<?xml version="1.0" encoding="UTF-8" standalone="no" ?>
<gpx xmlns="http://www.topografix.com/GPX/1/1" xmlns:xsi="http://www.w3.org/2001/XMLSchema-instance" xsi:schemaLocation="http://www.topografix.com/GPX/1/1 http://www.topografix.com/GPX/1/1/gpx.xsd" version="1.1" creator="VisuGPX - https://www.visugpx.com">
  <metadata>
    <name>Rando de Verneui/Seine à Herblay (95) 22 km </name>
    <desc><![CDATA[Belle rando de 22 km en bord de Seine , de Verneuil à Herblay . De gare à gare

]]></desc>
  </metadata>
  <trk>
    <name><![CDATA[12 juin 2022 à 09:48:54]]></name>
    <cmt><![CDATA[12 juin 2022 à 09:48:54]]></cmt>
    <trkseg>
      <trkpt lat="48.98111" lon="1.98288">
        <ele>23</ele>
        <time>2022-06-12T07:48:54Z</time>
      </trkpt>
      <trkpt lat="48.98104" lon="1.98286">
        <ele>23</ele>
        <time>2022-06-12T07:49:04Z</time>
      </trkpt>
      <trkpt lat="48.98104" lon="1.98273">
        <ele>23</ele>
        <time>2022-06-12T07:49:11Z</time>
      </trkpt>
      <trkpt lat="48.98105" lon="1.98265">
        <ele>23</ele>
        <time>2022-06-12T07:49:15Z</time>
      </trkpt>
      <trkpt lat="48.98107" lon="1.98258">
        <ele>23</ele>
        <time>2022-06-12T07:49:20Z</time>
      </trkpt>
      <trkpt lat="48.98108" lon="1.98251">
        <ele>23</ele>
        <time>2022-06-12T07:49:25Z</time>
      </trkpt>
      <trkpt lat="48.98106" lon="1.98235">
        <ele>22</ele>
        <time>2022-06-12T07:49:36Z</time>
      </trkpt>
      <trkpt lat="48.98103" lon="1.98228">
        <ele>22</ele>
        <time>2022-06-12T07:49:40Z</time>
      </trkpt>
      <trkpt lat="48.981" lon="1.98223">
        <ele>22</ele>
        <time>2022-06-12T07:49:44Z</time>
      </trkpt>
      <trkpt lat="48.98096" lon="1.98218">
        <ele>22</ele>
        <time>2022-06-12T07:49:49Z</time>
      </trkpt>
      <trkpt lat="48.98095" lon="1.98211">
        <ele>22</ele>
        <time>2022-06-12T07:49:53Z</time>
      </trkpt>
      <trkpt lat="48.98091" lon="1.98205">
        <ele>22</ele>
        <time>2022-06-12T07:49:57Z</time>
      </trkpt>
      <trkpt lat="48.98087" lon="1.98202">
        <ele>22</ele>
        <time>2022-06-12T07:50:00Z</time>
      </trkpt>
      <trkpt lat="48.98082" lon="1.98197">
        <ele>22</ele>
        <time>2022-06-12T07:50:04Z</time>
      </trkpt>
      <trkpt lat="48.98078" lon="1.98192">
        <ele>22</ele>
        <time>2022-06-12T07:50:08Z</time>
      </trkpt>
      <trkpt lat="48.98045" lon="1.98146">
        <ele>22</ele>
        <time>2022-06-12T07:50:42Z</time>
      </trkpt>
      <trkpt lat="48.98041" lon="1.9814">
        <ele>22</ele>
        <time>2022-06-12T07:50:46Z</time>
      </trkpt>
      <trkpt lat="48.98038" lon="1.98134">
        <ele>23</ele>
        <time>2022-06-12T07:50:49Z</time>
      </trkpt>
      <trkpt lat="48.98028" lon="1.98117">
        <ele>23</ele>
        <time>2022-06-12T07:51:01Z</time>
      </trkpt>
      <trkpt lat="48.98025" lon="1.98111">
        <ele>23</ele>
        <time>2022-06-12T07:51:05Z</time>
      </trkpt>
      <trkpt lat="48.98011" lon="1.98088">
        <ele>23</ele>
        <time>2022-06-12T07:51:21Z</time>
      </trkpt>
      <trkpt lat="48.97991" lon="1.98069">
        <ele>23</ele>
        <time>2022-06-12T07:51:57Z</time>
      </trkpt>
      <trkpt lat="48.97987" lon="1.9807">
        <ele>23</ele>
        <time>2022-06-12T07:52:03Z</time>
      </trkpt>
      <trkpt lat="48.97983" lon="1.98075">
        <ele>23</ele>
        <time>2022-06-12T07:52:21Z</time>
      </trkpt>
      <trkpt lat="48.97978" lon="1.98074">
        <ele>23</ele>
        <time>2022-06-12T07:52:33Z</time>
      </trkpt>
      <trkpt lat="48.97975" lon="1.98067">
        <ele>23</ele>
        <time>2022-06-12T07:52:38Z</time>
      </trkpt>
      <trkpt lat="48.97978" lon="1.98059">
        <ele>24</ele>
        <time>2022-06-12T07:52:52Z</time>
      </trkpt>
      <trkpt lat="48.97978" lon="1.98051">
        <ele>24</ele>
        <time>2022-06-12T07:52:56Z</time>
      </trkpt>
      <trkpt lat="48.97983" lon="1.9805">
        <ele>24</ele>
        <time>2022-06-12T07:53:09Z</time>
      </trkpt>
      <trkpt lat="48.9799" lon="1.98061">
        <ele>23</ele>
        <time>2022-06-12T07:53:14Z</time>
      </trkpt>
      <trkpt lat="48.97995" lon="1.98066">
        <ele>24</ele>
        <time>2022-06-12T07:53:17Z</time>
      </trkpt>
      <trkpt lat="48.97994" lon="1.98058">
        <ele>23</ele>
        <time>2022-06-12T07:53:26Z</time>
      </trkpt>
      <trkpt lat="48.97995" lon="1.9805">
        <ele>23</ele>
        <time>2022-06-12T07:53:31Z</time>
      </trkpt>
      <trkpt lat="48.97996" lon="1.98042">
        <ele>23</ele>
        <time>2022-06-12T07:53:36Z</time>
      </trkpt>
      <trkpt lat="48.97998" lon="1.98036">
        <ele>22</ele>
        <time>2022-06-12T07:53:40Z</time>
      </trkpt>
      <trkpt lat="48.97998" lon="1.98029">
        <ele>23</ele>
        <time>2022-06-12T07:53:44Z</time>
      </trkpt>
      <trkpt lat="48.97996" lon="1.98022">
        <ele>22</ele>
        <time>2022-06-12T07:53:51Z</time>
      </trkpt>
      <trkpt lat="48.98" lon="1.98">
        <ele>23</ele>
        <time>2022-06-12T07:54:06Z</time>
      </trkpt>
      <trkpt lat="48.98002" lon="1.98004">
        <ele>23</ele>
        <time>2022-06-12T07:54:24Z</time>
      </trkpt>
      <trkpt lat="48.98001" lon="1.98011">
        <ele>23</ele>
        <time>2022-06-12T07:54:28Z</time>
      </trkpt>
      <trkpt lat="48.98002" lon="1.98024">
        <ele>23</ele>
        <time>2022-06-12T07:54:36Z</time>
      </trkpt>
      <trkpt lat="48.98" lon="1.98032">
        <ele>23</ele>
        <time>2022-06-12T07:54:41Z</time>
      </trkpt>
      <trkpt lat="48.97995" lon="1.98054">
        <ele>23</ele>
        <time>2022-06-12T07:54:54Z</time>
      </trkpt>
      <trkpt lat="48.97991" lon="1.9806">
        <ele>24</ele>
        <time>2022-06-12T07:54:58Z</time>
      </trkpt>
      <trkpt lat="48.97981" lon="1.98057">
        <ele>24</ele>
        <time>2022-06-12T07:55:05Z</time>
      </trkpt>
      <trkpt lat="48.9797" lon="1.9805">
        <ele>24</ele>
        <time>2022-06-12T07:55:13Z</time>
      </trkpt>
      <trkpt lat="48.97966" lon="1.98048">
        <ele>24</ele>
        <time>2022-06-12T07:55:17Z</time>
      </trkpt>
      <trkpt lat="48.97959" lon="1.98044">
        <ele>24</ele>
        <time>2022-06-12T07:55:26Z</time>
      </trkpt>
      <trkpt lat="48.97952" lon="1.98039">
        <ele>24</ele>
        <time>2022-06-12T07:55:34Z</time>
      </trkpt>
      <trkpt lat="48.97945" lon="1.9803">
        <ele>24</ele>
        <time>2022-06-12T07:55:42Z</time>
      </trkpt>
      <trkpt lat="48.97942" lon="1.98024">
        <ele>24</ele>
        <time>2022-06-12T07:55:46Z</time>
      </trkpt>
      <trkpt lat="48.97936" lon="1.98009">
        <ele>24</ele>
        <time>2022-06-12T07:55:54Z</time>
      </trkpt>
      <trkpt lat="48.97925" lon="1.97989">
        <ele>24</ele>
        <time>2022-06-12T07:56:07Z</time>
      </trkpt>
      <trkpt lat="48.9791" lon="1.97979">
        <ele>24</ele>
        <time>2022-06-12T07:56:20Z</time>
      </trkpt>
      <trkpt lat="48.97903" lon="1.97988">
        <ele>25</ele>
        <time>2022-06-12T07:56:28Z</time>
      </trkpt>
      <trkpt lat="48.97899" lon="1.97993">
        <ele>24</ele>
        <time>2022-06-12T07:56:32Z</time>
      </trkpt>
      <trkpt lat="48.97897" lon="1.97998">
        <ele>24</ele>
        <time>2022-06-12T07:56:36Z</time>
      </trkpt>
      <trkpt lat="48.97893" lon="1.98003">
        <ele>24</ele>
        <time>2022-06-12T07:56:40Z</time>
      </trkpt>
      <trkpt lat="48.9789" lon="1.98009">
        <ele>24</ele>
        <time>2022-06-12T07:56:44Z</time>
      </trkpt>
      <trkpt lat="48.97887" lon="1.98016">
        <ele>25</ele>
        <time>2022-06-12T07:56:48Z</time>
      </trkpt>
      <trkpt lat="48.97885" lon="1.98022">
        <ele>25</ele>
        <time>2022-06-12T07:56:52Z</time>
      </trkpt>
      <trkpt lat="48.97881" lon="1.98029">
        <ele>25</ele>
        <time>2022-06-12T07:56:56Z</time>
      </trkpt>
      <trkpt lat="48.97866" lon="1.98051">
        <ele>24</ele>
        <time>2022-06-12T07:57:13Z</time>
      </trkpt>
      <trkpt lat="48.97864" lon="1.98058">
        <ele>24</ele>
        <time>2022-06-12T07:57:17Z</time>
      </trkpt>
      <trkpt lat="48.97841" lon="1.98091">
        <ele>25</ele>
        <time>2022-06-12T07:57:43Z</time>
      </trkpt>
      <trkpt lat="48.97837" lon="1.98095">
        <ele>25</ele>
        <time>2022-06-12T07:57:46Z</time>
      </trkpt>
      <trkpt lat="48.97828" lon="1.98129">
        <ele>25</ele>
        <time>2022-06-12T07:58:07Z</time>
      </trkpt>
      <trkpt lat="48.97824" lon="1.98134">
        <ele>25</ele>
        <time>2022-06-12T07:58:11Z</time>
      </trkpt>
      <trkpt lat="48.97817" lon="1.98138">
        <ele>24</ele>
        <time>2022-06-12T07:58:17Z</time>
      </trkpt>
      <trkpt lat="48.97813" lon="1.98138">
        <ele>25</ele>
        <time>2022-06-12T07:58:21Z</time>
      </trkpt>
      <trkpt lat="48.97809" lon="1.98138">
        <ele>25</ele>
        <time>2022-06-12T07:58:25Z</time>
      </trkpt>
      <trkpt lat="48.97783" lon="1.98148">
        <ele>26</ele>
        <time>2022-06-12T07:58:45Z</time>
      </trkpt>
      <trkpt lat="48.97778" lon="1.9815">
        <ele>25</ele>
        <time>2022-06-12T07:58:48Z</time>
      </trkpt>
      <trkpt lat="48.97768" lon="1.98156">
        <ele>25</ele>
        <time>2022-06-12T07:58:55Z</time>
      </trkpt>
      <trkpt lat="48.97753" lon="1.98154">
        <ele>25</ele>
        <time>2022-06-12T07:59:08Z</time>
      </trkpt>
      <trkpt lat="48.97748" lon="1.98156">
        <ele>25</ele>
        <time>2022-06-12T07:59:12Z</time>
      </trkpt>
      <trkpt lat="48.97745" lon="1.98161">
        <ele>25</ele>
        <time>2022-06-12T07:59:16Z</time>
      </trkpt>
      <trkpt lat="48.9774" lon="1.98161">
        <ele>25</ele>
        <time>2022-06-12T07:59:19Z</time>
      </trkpt>
      <trkpt lat="48.97735" lon="1.98159">
        <ele>26</ele>
        <time>2022-06-12T07:59:22Z</time>
      </trkpt>
      <trkpt lat="48.97731" lon="1.9816">
        <ele>26</ele>
        <time>2022-06-12T07:59:27Z</time>
      </trkpt>
      <trkpt lat="48.97726" lon="1.98161">
        <ele>26</ele>
        <time>2022-06-12T07:59:32Z</time>
      </trkpt>
      <trkpt lat="48.97712" lon="1.98171">
        <ele>26</ele>
        <time>2022-06-12T07:59:42Z</time>
      </trkpt>
      <trkpt lat="48.97697" lon="1.98174">
        <ele>27</ele>
        <time>2022-06-12T07:59:55Z</time>
      </trkpt>
      <trkpt lat="48.97659" lon="1.98191">
        <ele>28</ele>
        <time>2022-06-12T08:00:26Z</time>
      </trkpt>
      <trkpt lat="48.97654" lon="1.9819">
        <ele>28</ele>
        <time>2022-06-12T08:00:29Z</time>
      </trkpt>
      <trkpt lat="48.9764" lon="1.98183">
        <ele>29</ele>
        <time>2022-06-12T08:00:39Z</time>
      </trkpt>
      <trkpt lat="48.97636" lon="1.98179">
        <ele>29</ele>
        <time>2022-06-12T08:00:43Z</time>
      </trkpt>
      <trkpt lat="48.97628" lon="1.98175">
        <ele>29</ele>
        <time>2022-06-12T08:00:52Z</time>
      </trkpt>
      <trkpt lat="48.97619" lon="1.98177">
        <ele>30</ele>
        <time>2022-06-12T08:01:04Z</time>
      </trkpt>
      <trkpt lat="48.97611" lon="1.9817">
        <ele>30</ele>
        <time>2022-06-12T08:01:13Z</time>
      </trkpt>
      <trkpt lat="48.97605" lon="1.98174">
        <ele>31</ele>
        <time>2022-06-12T08:01:24Z</time>
      </trkpt>
      <trkpt lat="48.97609" lon="1.98181">
        <ele>30</ele>
        <time>2022-06-12T08:01:31Z</time>
      </trkpt>
      <trkpt lat="48.97613" lon="1.98185">
        <ele>30</ele>
        <time>2022-06-12T08:01:35Z</time>
      </trkpt>
      <trkpt lat="48.97613" lon="1.98194">
        <ele>30</ele>
        <time>2022-06-12T08:01:42Z</time>
      </trkpt>
      <trkpt lat="48.97608" lon="1.98198">
        <ele>31</ele>
        <time>2022-06-12T08:01:45Z</time>
      </trkpt>
      <trkpt lat="48.97606" lon="1.98206">
        <ele>31</ele>
        <time>2022-06-12T08:01:50Z</time>
      </trkpt>
      <trkpt lat="48.97571" lon="1.98236">
        <ele>32</ele>
        <time>2022-06-12T08:02:20Z</time>
      </trkpt>
      <trkpt lat="48.97567" lon="1.9824">
        <ele>32</ele>
        <time>2022-06-12T08:02:24Z</time>
      </trkpt>
      <trkpt lat="48.97558" lon="1.98245">
        <ele>32</ele>
        <time>2022-06-12T08:02:31Z</time>
      </trkpt>
      <trkpt lat="48.97534" lon="1.98268">
        <ele>33</ele>
        <time>2022-06-12T08:02:54Z</time>
      </trkpt>
      <trkpt lat="48.97529" lon="1.9827">
        <ele>34</ele>
        <time>2022-06-12T08:02:57Z</time>
      </trkpt>
      <trkpt lat="48.97522" lon="1.98284">
        <ele>34</ele>
        <time>2022-06-12T08:03:05Z</time>
      </trkpt>
      <trkpt lat="48.97509" lon="1.98294">
        <ele>35</ele>
        <time>2022-06-12T08:03:18Z</time>
      </trkpt>
      <trkpt lat="48.97501" lon="1.98293">
        <ele>35</ele>
        <time>2022-06-12T08:03:25Z</time>
      </trkpt>
      <trkpt lat="48.97495" lon="1.98293">
        <ele>35</ele>
        <time>2022-06-12T08:03:29Z</time>
      </trkpt>
      <trkpt lat="48.97474" lon="1.983">
        <ele>36</ele>
        <time>2022-06-12T08:03:45Z</time>
      </trkpt>
      <trkpt lat="48.97469" lon="1.98312">
        <ele>37</ele>
        <time>2022-06-12T08:03:52Z</time>
      </trkpt>
      <trkpt lat="48.97461" lon="1.98311">
        <ele>37</ele>
        <time>2022-06-12T08:03:58Z</time>
      </trkpt>
      <trkpt lat="48.97452" lon="1.98313">
        <ele>38</ele>
        <time>2022-06-12T08:04:04Z</time>
      </trkpt>
      <trkpt lat="48.97442" lon="1.9832">
        <ele>38</ele>
        <time>2022-06-12T08:04:12Z</time>
      </trkpt>
      <trkpt lat="48.97438" lon="1.98324">
        <ele>38</ele>
        <time>2022-06-12T08:04:15Z</time>
      </trkpt>
      <trkpt lat="48.97429" lon="1.98327">
        <ele>38</ele>
        <time>2022-06-12T08:04:23Z</time>
      </trkpt>
      <trkpt lat="48.97424" lon="1.98333">
        <ele>39</ele>
        <time>2022-06-12T08:04:30Z</time>
      </trkpt>
      <trkpt lat="48.97419" lon="1.98335">
        <ele>39</ele>
        <time>2022-06-12T08:04:34Z</time>
      </trkpt>
      <trkpt lat="48.97403" lon="1.98332">
        <ele>39</ele>
        <time>2022-06-12T08:04:45Z</time>
      </trkpt>
      <trkpt lat="48.97376" lon="1.98338">
        <ele>40</ele>
        <time>2022-06-12T08:05:04Z</time>
      </trkpt>
      <trkpt lat="48.97361" lon="1.98347">
        <ele>40</ele>
        <time>2022-06-12T08:05:16Z</time>
      </trkpt>
      <trkpt lat="48.97356" lon="1.98346">
        <ele>40</ele>
        <time>2022-06-12T08:05:21Z</time>
      </trkpt>
      <trkpt lat="48.97351" lon="1.98348">
        <ele>40</ele>
        <time>2022-06-12T08:05:26Z</time>
      </trkpt>
      <trkpt lat="48.97347" lon="1.98357">
        <ele>40</ele>
        <time>2022-06-12T08:05:38Z</time>
      </trkpt>
      <trkpt lat="48.97337" lon="1.98362">
        <ele>40</ele>
        <time>2022-06-12T08:05:46Z</time>
      </trkpt>
      <trkpt lat="48.97326" lon="1.98362">
        <ele>40</ele>
        <time>2022-06-12T08:05:53Z</time>
      </trkpt>
      <trkpt lat="48.97321" lon="1.98366">
        <ele>40</ele>
        <time>2022-06-12T08:05:57Z</time>
      </trkpt>
      <trkpt lat="48.97316" lon="1.98368">
        <ele>40</ele>
        <time>2022-06-12T08:06:01Z</time>
      </trkpt>
      <trkpt lat="48.97311" lon="1.98367">
        <ele>40</ele>
        <time>2022-06-12T08:06:05Z</time>
      </trkpt>
      <trkpt lat="48.97305" lon="1.98371">
        <ele>40</ele>
        <time>2022-06-12T08:06:10Z</time>
      </trkpt>
      <trkpt lat="48.97287" lon="1.98369">
        <ele>41</ele>
        <time>2022-06-12T08:06:23Z</time>
      </trkpt>
      <trkpt lat="48.97255" lon="1.98377">
        <ele>41</ele>
        <time>2022-06-12T08:06:47Z</time>
      </trkpt>
      <trkpt lat="48.97252" lon="1.98381">
        <ele>41</ele>
        <time>2022-06-12T08:06:50Z</time>
      </trkpt>
      <trkpt lat="48.97254" lon="1.98386">
        <ele>41</ele>
        <time>2022-06-12T08:07:09Z</time>
      </trkpt>
      <trkpt lat="48.97263" lon="1.98392">
        <ele>40</ele>
        <time>2022-06-12T08:07:21Z</time>
      </trkpt>
      <trkpt lat="48.97272" lon="1.98415">
        <ele>38</ele>
        <time>2022-06-12T08:07:44Z</time>
      </trkpt>
      <trkpt lat="48.97308" lon="1.9847">
        <ele>35</ele>
        <time>2022-06-12T08:08:16Z</time>
      </trkpt>
      <trkpt lat="48.9731" lon="1.98476">
        <ele>34</ele>
        <time>2022-06-12T08:08:19Z</time>
      </trkpt>
      <trkpt lat="48.97319" lon="1.98497">
        <ele>33</ele>
        <time>2022-06-12T08:08:33Z</time>
      </trkpt>
      <trkpt lat="48.97322" lon="1.98502">
        <ele>32</ele>
        <time>2022-06-12T08:08:38Z</time>
      </trkpt>
      <trkpt lat="48.9733" lon="1.98505">
        <ele>31</ele>
        <time>2022-06-12T08:08:45Z</time>
      </trkpt>
      <trkpt lat="48.97335" lon="1.98503">
        <ele>31</ele>
        <time>2022-06-12T08:08:49Z</time>
      </trkpt>
      <trkpt lat="48.97341" lon="1.98522">
        <ele>30</ele>
        <time>2022-06-12T08:08:58Z</time>
      </trkpt>
      <trkpt lat="48.9734" lon="1.9853">
        <ele>30</ele>
        <time>2022-06-12T08:09:01Z</time>
      </trkpt>
      <trkpt lat="48.97342" lon="1.98537">
        <ele>30</ele>
        <time>2022-06-12T08:09:04Z</time>
      </trkpt>
      <trkpt lat="48.97344" lon="1.98544">
        <ele>29</ele>
        <time>2022-06-12T08:09:07Z</time>
      </trkpt>
      <trkpt lat="48.97347" lon="1.98551">
        <ele>29</ele>
        <time>2022-06-12T08:09:10Z</time>
      </trkpt>
      <trkpt lat="48.9735" lon="1.98559">
        <ele>29</ele>
        <time>2022-06-12T08:09:16Z</time>
      </trkpt>
      <trkpt lat="48.97353" lon="1.98567">
        <ele>29</ele>
        <time>2022-06-12T08:09:24Z</time>
      </trkpt>
      <trkpt lat="48.97354" lon="1.98575">
        <ele>29</ele>
        <time>2022-06-12T08:09:29Z</time>
      </trkpt>
      <trkpt lat="48.97365" lon="1.98596">
        <ele>28</ele>
        <time>2022-06-12T08:09:39Z</time>
      </trkpt>
      <trkpt lat="48.97381" lon="1.98647">
        <ele>27</ele>
        <time>2022-06-12T08:10:00Z</time>
      </trkpt>
      <trkpt lat="48.97401" lon="1.98687">
        <ele>26</ele>
        <time>2022-06-12T08:10:23Z</time>
      </trkpt>
      <trkpt lat="48.9741" lon="1.98691">
        <ele>26</ele>
        <time>2022-06-12T08:10:32Z</time>
      </trkpt>
      <trkpt lat="48.97416" lon="1.9869">
        <ele>26</ele>
        <time>2022-06-12T08:10:40Z</time>
      </trkpt>
      <trkpt lat="48.97416" lon="1.98704">
        <ele>26</ele>
        <time>2022-06-12T08:10:58Z</time>
      </trkpt>
      <trkpt lat="48.97417" lon="1.98713">
        <ele>26</ele>
        <time>2022-06-12T08:11:02Z</time>
      </trkpt>
      <trkpt lat="48.97424" lon="1.98733">
        <ele>26</ele>
        <time>2022-06-12T08:11:16Z</time>
      </trkpt>
      <trkpt lat="48.97427" lon="1.98739">
        <ele>26</ele>
        <time>2022-06-12T08:11:21Z</time>
      </trkpt>
      <trkpt lat="48.9743" lon="1.98746">
        <ele>26</ele>
        <time>2022-06-12T08:11:28Z</time>
      </trkpt>
      <trkpt lat="48.97439" lon="1.98782">
        <ele>25</ele>
        <time>2022-06-12T08:11:44Z</time>
      </trkpt>
      <trkpt lat="48.97443" lon="1.98786">
        <ele>26</ele>
        <time>2022-06-12T08:11:47Z</time>
      </trkpt>
      <trkpt lat="48.97451" lon="1.98811">
        <ele>25</ele>
        <time>2022-06-12T08:11:57Z</time>
      </trkpt>
      <trkpt lat="48.97451" lon="1.98819">
        <ele>25</ele>
        <time>2022-06-12T08:12:00Z</time>
      </trkpt>
      <trkpt lat="48.97454" lon="1.98827">
        <ele>26</ele>
        <time>2022-06-12T08:12:04Z</time>
      </trkpt>
      <trkpt lat="48.97459" lon="1.98829">
        <ele>25</ele>
        <time>2022-06-12T08:12:07Z</time>
      </trkpt>
      <trkpt lat="48.97464" lon="1.98831">
        <ele>25</ele>
        <time>2022-06-12T08:12:10Z</time>
      </trkpt>
      <trkpt lat="48.97468" lon="1.98834">
        <ele>25</ele>
        <time>2022-06-12T08:12:14Z</time>
      </trkpt>
      <trkpt lat="48.97495" lon="1.98891">
        <ele>25</ele>
        <time>2022-06-12T08:12:45Z</time>
      </trkpt>
      <trkpt lat="48.97506" lon="1.98911">
        <ele>25</ele>
        <time>2022-06-12T08:12:59Z</time>
      </trkpt>
      <trkpt lat="48.97511" lon="1.98915">
        <ele>25</ele>
        <time>2022-06-12T08:13:03Z</time>
      </trkpt>
      <trkpt lat="48.97524" lon="1.98942">
        <ele>24</ele>
        <time>2022-06-12T08:13:21Z</time>
      </trkpt>
      <trkpt lat="48.97525" lon="1.9895">
        <ele>24</ele>
        <time>2022-06-12T08:13:25Z</time>
      </trkpt>
      <trkpt lat="48.97528" lon="1.98955">
        <ele>24</ele>
        <time>2022-06-12T08:13:29Z</time>
      </trkpt>
      <trkpt lat="48.97535" lon="1.98968">
        <ele>24</ele>
        <time>2022-06-12T08:13:37Z</time>
      </trkpt>
      <trkpt lat="48.97557" lon="1.99014">
        <ele>22</ele>
        <time>2022-06-12T08:14:08Z</time>
      </trkpt>
      <trkpt lat="48.97558" lon="1.99022">
        <ele>22</ele>
        <time>2022-06-12T08:14:12Z</time>
      </trkpt>
      <trkpt lat="48.97567" lon="1.99038">
        <ele>23</ele>
        <time>2022-06-12T08:14:26Z</time>
      </trkpt>
      <trkpt lat="48.97571" lon="1.99042">
        <ele>23</ele>
        <time>2022-06-12T08:14:30Z</time>
      </trkpt>
      <trkpt lat="48.97578" lon="1.99054">
        <ele>23</ele>
        <time>2022-06-12T08:14:40Z</time>
      </trkpt>
      <trkpt lat="48.97579" lon="1.99066">
        <ele>24</ele>
        <time>2022-06-12T08:14:52Z</time>
      </trkpt>
      <trkpt lat="48.97592" lon="1.991">
        <ele>24</ele>
        <time>2022-06-12T08:15:07Z</time>
      </trkpt>
      <trkpt lat="48.97595" lon="1.99106">
        <ele>24</ele>
        <time>2022-06-12T08:15:10Z</time>
      </trkpt>
      <trkpt lat="48.97599" lon="1.9911">
        <ele>24</ele>
        <time>2022-06-12T08:15:18Z</time>
      </trkpt>
      <trkpt lat="48.97608" lon="1.99131">
        <ele>25</ele>
        <time>2022-06-12T08:15:31Z</time>
      </trkpt>
      <trkpt lat="48.97627" lon="1.99168">
        <ele>25</ele>
        <time>2022-06-12T08:15:52Z</time>
      </trkpt>
      <trkpt lat="48.97632" lon="1.99174">
        <ele>25</ele>
        <time>2022-06-12T08:16:00Z</time>
      </trkpt>
      <trkpt lat="48.97644" lon="1.99199">
        <ele>25</ele>
        <time>2022-06-12T08:16:13Z</time>
      </trkpt>
      <trkpt lat="48.97647" lon="1.99205">
        <ele>25</ele>
        <time>2022-06-12T08:16:16Z</time>
      </trkpt>
      <trkpt lat="48.97666" lon="1.99248">
        <ele>25</ele>
        <time>2022-06-12T08:16:40Z</time>
      </trkpt>
      <trkpt lat="48.97686" lon="1.99284">
        <ele>24</ele>
        <time>2022-06-12T08:17:03Z</time>
      </trkpt>
      <trkpt lat="48.97696" lon="1.99287">
        <ele>24</ele>
        <time>2022-06-12T08:17:14Z</time>
      </trkpt>
      <trkpt lat="48.97735" lon="1.99265">
        <ele>24</ele>
        <time>2022-06-12T08:17:47Z</time>
      </trkpt>
      <trkpt lat="48.97773" lon="1.99239">
        <ele>24</ele>
        <time>2022-06-12T08:18:19Z</time>
      </trkpt>
      <trkpt lat="48.97782" lon="1.99234">
        <ele>24</ele>
        <time>2022-06-12T08:18:26Z</time>
      </trkpt>
      <trkpt lat="48.97787" lon="1.99232">
        <ele>24</ele>
        <time>2022-06-12T08:18:30Z</time>
      </trkpt>
      <trkpt lat="48.97795" lon="1.99226">
        <ele>24</ele>
        <time>2022-06-12T08:18:39Z</time>
      </trkpt>
      <trkpt lat="48.97803" lon="1.99217">
        <ele>24</ele>
        <time>2022-06-12T08:18:46Z</time>
      </trkpt>
      <trkpt lat="48.97817" lon="1.9921">
        <ele>23</ele>
        <time>2022-06-12T08:18:59Z</time>
      </trkpt>
      <trkpt lat="48.97822" lon="1.99205">
        <ele>24</ele>
        <time>2022-06-12T08:19:06Z</time>
      </trkpt>
      <trkpt lat="48.97827" lon="1.99203">
        <ele>23</ele>
        <time>2022-06-12T08:19:10Z</time>
      </trkpt>
      <trkpt lat="48.97831" lon="1.99197">
        <ele>24</ele>
        <time>2022-06-12T08:19:14Z</time>
      </trkpt>
      <trkpt lat="48.97835" lon="1.99194">
        <ele>24</ele>
        <time>2022-06-12T08:19:17Z</time>
      </trkpt>
      <trkpt lat="48.97843" lon="1.99187">
        <ele>24</ele>
        <time>2022-06-12T08:19:23Z</time>
      </trkpt>
      <trkpt lat="48.97867" lon="1.99173">
        <ele>24</ele>
        <time>2022-06-12T08:19:43Z</time>
      </trkpt>
      <trkpt lat="48.97871" lon="1.99172">
        <ele>24</ele>
        <time>2022-06-12T08:19:46Z</time>
      </trkpt>
      <trkpt lat="48.97876" lon="1.99169">
        <ele>23</ele>
        <time>2022-06-12T08:19:50Z</time>
      </trkpt>
      <trkpt lat="48.9788" lon="1.99165">
        <ele>24</ele>
        <time>2022-06-12T08:19:55Z</time>
      </trkpt>
      <trkpt lat="48.97888" lon="1.99171">
        <ele>24</ele>
        <time>2022-06-12T08:20:11Z</time>
      </trkpt>
      <trkpt lat="48.97893" lon="1.99176">
        <ele>24</ele>
        <time>2022-06-12T08:20:15Z</time>
      </trkpt>
      <trkpt lat="48.97897" lon="1.99178">
        <ele>25</ele>
        <time>2022-06-12T08:20:32Z</time>
      </trkpt>
      <trkpt lat="48.97903" lon="1.99179">
        <ele>24</ele>
        <time>2022-06-12T08:20:37Z</time>
      </trkpt>
      <trkpt lat="48.97907" lon="1.99181">
        <ele>24</ele>
        <time>2022-06-12T08:20:42Z</time>
      </trkpt>
      <trkpt lat="48.97914" lon="1.99182">
        <ele>24</ele>
        <time>2022-06-12T08:20:51Z</time>
      </trkpt>
      <trkpt lat="48.97916" lon="1.99189">
        <ele>24</ele>
        <time>2022-06-12T08:21:02Z</time>
      </trkpt>
      <trkpt lat="48.97918" lon="1.99198">
        <ele>23</ele>
        <time>2022-06-12T08:21:22Z</time>
      </trkpt>
      <trkpt lat="48.97931" lon="1.99211">
        <ele>22</ele>
        <time>2022-06-12T08:21:34Z</time>
      </trkpt>
      <trkpt lat="48.97946" lon="1.99273">
        <ele>22</ele>
        <time>2022-06-12T08:22:05Z</time>
      </trkpt>
      <trkpt lat="48.9796" lon="1.99333">
        <ele>21</ele>
        <time>2022-06-12T08:22:37Z</time>
      </trkpt>
      <trkpt lat="48.9796" lon="1.99354">
        <ele>21</ele>
        <time>2022-06-12T08:22:49Z</time>
      </trkpt>
      <trkpt lat="48.97977" lon="1.99414">
        <ele>20</ele>
        <time>2022-06-12T08:23:23Z</time>
      </trkpt>
      <trkpt lat="48.97983" lon="1.99435">
        <ele>20</ele>
        <time>2022-06-12T08:23:36Z</time>
      </trkpt>
      <trkpt lat="48.97985" lon="1.99441">
        <ele>20</ele>
        <time>2022-06-12T08:23:41Z</time>
      </trkpt>
      <trkpt lat="48.97983" lon="1.99448">
        <ele>21</ele>
        <time>2022-06-12T08:24:07Z</time>
      </trkpt>
      <trkpt lat="48.97985" lon="1.99454">
        <ele>20</ele>
        <time>2022-06-12T08:24:48Z</time>
      </trkpt>
      <trkpt lat="48.97982" lon="1.99458">
        <ele>21</ele>
        <time>2022-06-12T08:31:02Z</time>
      </trkpt>
      <trkpt lat="48.97984" lon="1.99464">
        <ele>21</ele>
        <time>2022-06-12T08:31:07Z</time>
      </trkpt>
      <trkpt lat="48.97989" lon="1.99488">
        <ele>23</ele>
        <time>2022-06-12T08:31:27Z</time>
      </trkpt>
      <trkpt lat="48.97991" lon="1.99495">
        <ele>23</ele>
        <time>2022-06-12T08:31:30Z</time>
      </trkpt>
      <trkpt lat="48.9799" lon="1.99508">
        <ele>24</ele>
        <time>2022-06-12T08:31:39Z</time>
      </trkpt>
      <trkpt lat="48.9799" lon="1.9953">
        <ele>23</ele>
        <time>2022-06-12T08:31:54Z</time>
      </trkpt>
      <trkpt lat="48.97997" lon="1.99577">
        <ele>23</ele>
        <time>2022-06-12T08:32:17Z</time>
      </trkpt>
      <trkpt lat="48.98001" lon="1.99591">
        <ele>23</ele>
        <time>2022-06-12T08:32:25Z</time>
      </trkpt>
      <trkpt lat="48.98003" lon="1.99607">
        <ele>23</ele>
        <time>2022-06-12T08:32:32Z</time>
      </trkpt>
      <trkpt lat="48.98006" lon="1.99621">
        <ele>23</ele>
        <time>2022-06-12T08:32:46Z</time>
      </trkpt>
      <trkpt lat="48.98006" lon="1.99629">
        <ele>23</ele>
        <time>2022-06-12T08:32:50Z</time>
      </trkpt>
      <trkpt lat="48.98008" lon="1.99637">
        <ele>23</ele>
        <time>2022-06-12T08:32:54Z</time>
      </trkpt>
      <trkpt lat="48.98007" lon="1.99659">
        <ele>23</ele>
        <time>2022-06-12T08:33:04Z</time>
      </trkpt>
      <trkpt lat="48.98002" lon="1.99671">
        <ele>22</ele>
        <time>2022-06-12T08:33:18Z</time>
      </trkpt>
      <trkpt lat="48.98003" lon="1.99717">
        <ele>22</ele>
        <time>2022-06-12T08:33:50Z</time>
      </trkpt>
      <trkpt lat="48.98002" lon="1.99733">
        <ele>22</ele>
        <time>2022-06-12T08:33:58Z</time>
      </trkpt>
      <trkpt lat="48.98001" lon="1.99741">
        <ele>22</ele>
        <time>2022-06-12T08:34:03Z</time>
      </trkpt>
      <trkpt lat="48.97999" lon="1.99748">
        <ele>22</ele>
        <time>2022-06-12T08:34:07Z</time>
      </trkpt>
      <trkpt lat="48.97998" lon="1.99757">
        <ele>22</ele>
        <time>2022-06-12T08:34:11Z</time>
      </trkpt>
      <trkpt lat="48.97996" lon="1.99763">
        <ele>22</ele>
        <time>2022-06-12T08:34:15Z</time>
      </trkpt>
      <trkpt lat="48.97991" lon="1.99773">
        <ele>22</ele>
        <time>2022-06-12T08:34:22Z</time>
      </trkpt>
      <trkpt lat="48.97985" lon="1.99786">
        <ele>21</ele>
        <time>2022-06-12T08:34:32Z</time>
      </trkpt>
      <trkpt lat="48.97984" lon="1.99795">
        <ele>21</ele>
        <time>2022-06-12T08:34:36Z</time>
      </trkpt>
      <trkpt lat="48.97984" lon="1.99802">
        <ele>21</ele>
        <time>2022-06-12T08:34:39Z</time>
      </trkpt>
      <trkpt lat="48.97983" lon="1.99819">
        <ele>21</ele>
        <time>2022-06-12T08:34:47Z</time>
      </trkpt>
      <trkpt lat="48.97975" lon="1.99864">
        <ele>21</ele>
        <time>2022-06-12T08:35:11Z</time>
      </trkpt>
      <trkpt lat="48.97971" lon="1.99871">
        <ele>21</ele>
        <time>2022-06-12T08:35:15Z</time>
      </trkpt>
      <trkpt lat="48.97967" lon="1.99876">
        <ele>21</ele>
        <time>2022-06-12T08:35:19Z</time>
      </trkpt>
      <trkpt lat="48.97968" lon="1.99889">
        <ele>21</ele>
        <time>2022-06-12T08:35:30Z</time>
      </trkpt>
      <trkpt lat="48.97971" lon="1.99892">
        <ele>21</ele>
        <time>2022-06-12T08:35:35Z</time>
      </trkpt>
      <trkpt lat="48.97966" lon="1.99899">
        <ele>21</ele>
        <time>2022-06-12T08:35:50Z</time>
      </trkpt>
      <trkpt lat="48.97961" lon="1.99901">
        <ele>22</ele>
        <time>2022-06-12T08:36:02Z</time>
      </trkpt>
      <trkpt lat="48.97963" lon="1.99917">
        <ele>20</ele>
        <time>2022-06-12T08:36:18Z</time>
      </trkpt>
      <trkpt lat="48.9796" lon="1.99932">
        <ele>20</ele>
        <time>2022-06-12T08:36:26Z</time>
      </trkpt>
      <trkpt lat="48.97957" lon="1.99938">
        <ele>20</ele>
        <time>2022-06-12T08:36:29Z</time>
      </trkpt>
      <trkpt lat="48.97943" lon="1.99949">
        <ele>20</ele>
        <time>2022-06-12T08:36:43Z</time>
      </trkpt>
      <trkpt lat="48.97939" lon="1.99955">
        <ele>20</ele>
        <time>2022-06-12T08:36:47Z</time>
      </trkpt>
      <trkpt lat="48.9793" lon="1.99961">
        <ele>20</ele>
        <time>2022-06-12T08:36:55Z</time>
      </trkpt>
      <trkpt lat="48.97927" lon="1.99966">
        <ele>20</ele>
        <time>2022-06-12T08:36:58Z</time>
      </trkpt>
      <trkpt lat="48.97918" lon="1.9997">
        <ele>20</ele>
        <time>2022-06-12T08:37:05Z</time>
      </trkpt>
      <trkpt lat="48.97875" lon="2.00001">
        <ele>20</ele>
        <time>2022-06-12T08:37:36Z</time>
      </trkpt>
      <trkpt lat="48.97849" lon="2.00021">
        <ele>20</ele>
        <time>2022-06-12T08:37:56Z</time>
      </trkpt>
      <trkpt lat="48.9784" lon="2.00019">
        <ele>20</ele>
        <time>2022-06-12T08:38:03Z</time>
      </trkpt>
      <trkpt lat="48.97835" lon="2.00015">
        <ele>21</ele>
        <time>2022-06-12T08:38:20Z</time>
      </trkpt>
      <trkpt lat="48.97831" lon="2.00011">
        <ele>20</ele>
        <time>2022-06-12T08:38:44Z</time>
      </trkpt>
      <trkpt lat="48.97821" lon="2">
        <ele>25</ele>
        <time>2022-06-12T08:39:03Z</time>
      </trkpt>
      <trkpt lat="48.9782" lon="2.00007">
        <ele>28</ele>
        <time>2022-06-12T08:39:19Z</time>
      </trkpt>
      <trkpt lat="48.97821" lon="2.00015">
        <ele>28</ele>
        <time>2022-06-12T08:39:24Z</time>
      </trkpt>
      <trkpt lat="48.97824" lon="2.0003">
        <ele>28</ele>
        <time>2022-06-12T08:39:32Z</time>
      </trkpt>
      <trkpt lat="48.97825" lon="2.00037">
        <ele>29</ele>
        <time>2022-06-12T08:39:37Z</time>
      </trkpt>
      <trkpt lat="48.97827" lon="2.00045">
        <ele>29</ele>
        <time>2022-06-12T08:39:41Z</time>
      </trkpt>
      <trkpt lat="48.9783" lon="2.00057">
        <ele>29</ele>
        <time>2022-06-12T08:40:00Z</time>
      </trkpt>
      <trkpt lat="48.97832" lon="2.00063">
        <ele>29</ele>
        <time>2022-06-12T08:40:03Z</time>
      </trkpt>
      <trkpt lat="48.97834" lon="2.00069">
        <ele>29</ele>
        <time>2022-06-12T08:40:07Z</time>
      </trkpt>
      <trkpt lat="48.97837" lon="2.00084">
        <ele>29</ele>
        <time>2022-06-12T08:40:15Z</time>
      </trkpt>
      <trkpt lat="48.9784" lon="2.00098">
        <ele>29</ele>
        <time>2022-06-12T08:40:23Z</time>
      </trkpt>
      <trkpt lat="48.97843" lon="2.00111">
        <ele>29</ele>
        <time>2022-06-12T08:40:40Z</time>
      </trkpt>
      <trkpt lat="48.97844" lon="2.00119">
        <ele>29</ele>
        <time>2022-06-12T08:40:44Z</time>
      </trkpt>
      <trkpt lat="48.97846" lon="2.00125">
        <ele>29</ele>
        <time>2022-06-12T08:40:48Z</time>
      </trkpt>
      <trkpt lat="48.97848" lon="2.00133">
        <ele>29</ele>
        <time>2022-06-12T08:40:52Z</time>
      </trkpt>
      <trkpt lat="48.97851" lon="2.0014">
        <ele>29</ele>
        <time>2022-06-12T08:40:56Z</time>
      </trkpt>
      <trkpt lat="48.97852" lon="2.00147">
        <ele>29</ele>
        <time>2022-06-12T08:40:59Z</time>
      </trkpt>
      <trkpt lat="48.97855" lon="2.0016">
        <ele>29</ele>
        <time>2022-06-12T08:41:05Z</time>
      </trkpt>
      <trkpt lat="48.97857" lon="2.00168">
        <ele>29</ele>
        <time>2022-06-12T08:41:09Z</time>
      </trkpt>
      <trkpt lat="48.9786" lon="2.00178">
        <ele>29</ele>
        <time>2022-06-12T08:41:32Z</time>
      </trkpt>
      <trkpt lat="48.97862" lon="2.00186">
        <ele>28</ele>
        <time>2022-06-12T08:41:36Z</time>
      </trkpt>
      <trkpt lat="48.97865" lon="2.00199">
        <ele>29</ele>
        <time>2022-06-12T08:41:43Z</time>
      </trkpt>
      <trkpt lat="48.97867" lon="2.00207">
        <ele>29</ele>
        <time>2022-06-12T08:41:47Z</time>
      </trkpt>
      <trkpt lat="48.97869" lon="2.00214">
        <ele>29</ele>
        <time>2022-06-12T08:41:51Z</time>
      </trkpt>
      <trkpt lat="48.97884" lon="2.00271">
        <ele>26</ele>
        <time>2022-06-12T08:42:21Z</time>
      </trkpt>
      <trkpt lat="48.97886" lon="2.00279">
        <ele>26</ele>
        <time>2022-06-12T08:42:25Z</time>
      </trkpt>
      <trkpt lat="48.97888" lon="2.00285">
        <ele>26</ele>
        <time>2022-06-12T08:42:28Z</time>
      </trkpt>
      <trkpt lat="48.9789" lon="2.00291">
        <ele>26</ele>
        <time>2022-06-12T08:42:31Z</time>
      </trkpt>
      <trkpt lat="48.97896" lon="2.00265">
        <ele>21</ele>
        <time>2022-06-12T08:42:53Z</time>
      </trkpt>
      <trkpt lat="48.97892" lon="2.00258">
        <ele>20</ele>
        <time>2022-06-12T08:42:59Z</time>
      </trkpt>
      <trkpt lat="48.97891" lon="2.0025">
        <ele>20</ele>
        <time>2022-06-12T08:43:03Z</time>
      </trkpt>
      <trkpt lat="48.97896" lon="2.00245">
        <ele>20</ele>
        <time>2022-06-12T08:43:08Z</time>
      </trkpt>
      <trkpt lat="48.97901" lon="2.00242">
        <ele>20</ele>
        <time>2022-06-12T08:43:12Z</time>
      </trkpt>
      <trkpt lat="48.97905" lon="2.00239">
        <ele>20</ele>
        <time>2022-06-12T08:43:16Z</time>
      </trkpt>
      <trkpt lat="48.9791" lon="2.00236">
        <ele>20</ele>
        <time>2022-06-12T08:43:20Z</time>
      </trkpt>
      <trkpt lat="48.97917" lon="2.00234">
        <ele>19</ele>
        <time>2022-06-12T08:43:24Z</time>
      </trkpt>
      <trkpt lat="48.97922" lon="2.00232">
        <ele>20</ele>
        <time>2022-06-12T08:43:28Z</time>
      </trkpt>
      <trkpt lat="48.97926" lon="2.00228">
        <ele>19</ele>
        <time>2022-06-12T08:43:32Z</time>
      </trkpt>
      <trkpt lat="48.97931" lon="2.00224">
        <ele>19</ele>
        <time>2022-06-12T08:43:36Z</time>
      </trkpt>
      <trkpt lat="48.97944" lon="2.0021">
        <ele>19</ele>
        <time>2022-06-12T08:43:49Z</time>
      </trkpt>
      <trkpt lat="48.97948" lon="2.00209">
        <ele>19</ele>
        <time>2022-06-12T08:43:52Z</time>
      </trkpt>
      <trkpt lat="48.97988" lon="2.00174">
        <ele>19</ele>
        <time>2022-06-12T08:44:25Z</time>
      </trkpt>
      <trkpt lat="48.98003" lon="2.00164">
        <ele>19</ele>
        <time>2022-06-12T08:44:37Z</time>
      </trkpt>
      <trkpt lat="48.98007" lon="2.00163">
        <ele>19</ele>
        <time>2022-06-12T08:44:41Z</time>
      </trkpt>
      <trkpt lat="48.98021" lon="2.00154">
        <ele>20</ele>
        <time>2022-06-12T08:44:52Z</time>
      </trkpt>
      <trkpt lat="48.98026" lon="2.00151">
        <ele>20</ele>
        <time>2022-06-12T08:45:10Z</time>
      </trkpt>
      <trkpt lat="48.98031" lon="2.00149">
        <ele>20</ele>
        <time>2022-06-12T08:45:15Z</time>
      </trkpt>
      <trkpt lat="48.98041" lon="2.00137">
        <ele>20</ele>
        <time>2022-06-12T08:45:29Z</time>
      </trkpt>
      <trkpt lat="48.98066" lon="2.00118">
        <ele>19</ele>
        <time>2022-06-12T08:45:51Z</time>
      </trkpt>
      <trkpt lat="48.9807" lon="2.00116">
        <ele>19</ele>
        <time>2022-06-12T08:45:54Z</time>
      </trkpt>
      <trkpt lat="48.98076" lon="2.00111">
        <ele>19</ele>
        <time>2022-06-12T08:45:57Z</time>
      </trkpt>
      <trkpt lat="48.98088" lon="2.00099">
        <ele>18</ele>
        <time>2022-06-12T08:46:08Z</time>
      </trkpt>
      <trkpt lat="48.98102" lon="2.00089">
        <ele>18</ele>
        <time>2022-06-12T08:46:21Z</time>
      </trkpt>
      <trkpt lat="48.98113" lon="2.00091">
        <ele>18</ele>
        <time>2022-06-12T08:46:28Z</time>
      </trkpt>
      <trkpt lat="48.98117" lon="2.00093">
        <ele>18</ele>
        <time>2022-06-12T08:46:31Z</time>
      </trkpt>
      <trkpt lat="48.98125" lon="2.00102">
        <ele>19</ele>
        <time>2022-06-12T08:46:39Z</time>
      </trkpt>
      <trkpt lat="48.98146" lon="2.00137">
        <ele>20</ele>
        <time>2022-06-12T08:47:02Z</time>
      </trkpt>
      <trkpt lat="48.98147" lon="2.00146">
        <ele>22</ele>
        <time>2022-06-12T08:47:21Z</time>
      </trkpt>
      <trkpt lat="48.98149" lon="2.00153">
        <ele>21</ele>
        <time>2022-06-12T08:47:26Z</time>
      </trkpt>
      <trkpt lat="48.9815" lon="2.00172">
        <ele>22</ele>
        <time>2022-06-12T08:47:37Z</time>
      </trkpt>
      <trkpt lat="48.98153" lon="2.00182">
        <ele>23</ele>
        <time>2022-06-12T08:47:41Z</time>
      </trkpt>
      <trkpt lat="48.98155" lon="2.0019">
        <ele>23</ele>
        <time>2022-06-12T08:47:45Z</time>
      </trkpt>
      <trkpt lat="48.98158" lon="2.00198">
        <ele>23</ele>
        <time>2022-06-12T08:47:50Z</time>
      </trkpt>
      <trkpt lat="48.98166" lon="2.00216">
        <ele>24</ele>
        <time>2022-06-12T08:48:02Z</time>
      </trkpt>
      <trkpt lat="48.9817" lon="2.00227">
        <ele>26</ele>
        <time>2022-06-12T08:48:14Z</time>
      </trkpt>
      <trkpt lat="48.9817" lon="2.00238">
        <ele>27</ele>
        <time>2022-06-12T08:48:25Z</time>
      </trkpt>
      <trkpt lat="48.98175" lon="2.00249">
        <ele>30</ele>
        <time>2022-06-12T08:48:38Z</time>
      </trkpt>
      <trkpt lat="48.9818" lon="2.00253">
        <ele>30</ele>
        <time>2022-06-12T08:48:44Z</time>
      </trkpt>
      <trkpt lat="48.98185" lon="2.00251">
        <ele>30</ele>
        <time>2022-06-12T08:48:49Z</time>
      </trkpt>
      <trkpt lat="48.98195" lon="2.00242">
        <ele>31</ele>
        <time>2022-06-12T08:49:00Z</time>
      </trkpt>
      <trkpt lat="48.98202" lon="2.00234">
        <ele>31</ele>
        <time>2022-06-12T08:49:08Z</time>
      </trkpt>
      <trkpt lat="48.98206" lon="2.0023">
        <ele>32</ele>
        <time>2022-06-12T08:49:13Z</time>
      </trkpt>
      <trkpt lat="48.98212" lon="2.00229">
        <ele>32</ele>
        <time>2022-06-12T08:49:19Z</time>
      </trkpt>
      <trkpt lat="48.98215" lon="2.00235">
        <ele>33</ele>
        <time>2022-06-12T08:49:24Z</time>
      </trkpt>
      <trkpt lat="48.98219" lon="2.0024">
        <ele>34</ele>
        <time>2022-06-12T08:49:32Z</time>
      </trkpt>
      <trkpt lat="48.98225" lon="2.00244">
        <ele>34</ele>
        <time>2022-06-12T08:49:38Z</time>
      </trkpt>
      <trkpt lat="48.98227" lon="2.00255">
        <ele>34</ele>
        <time>2022-06-12T08:49:47Z</time>
      </trkpt>
      <trkpt lat="48.98235" lon="2.00258">
        <ele>35</ele>
        <time>2022-06-12T08:49:54Z</time>
      </trkpt>
      <trkpt lat="48.98244" lon="2.00256">
        <ele>36</ele>
        <time>2022-06-12T08:50:08Z</time>
      </trkpt>
      <trkpt lat="48.98243" lon="2.00268">
        <ele>35</ele>
        <time>2022-06-12T08:50:26Z</time>
      </trkpt>
      <trkpt lat="48.98248" lon="2.00274">
        <ele>36</ele>
        <time>2022-06-12T08:50:32Z</time>
      </trkpt>
      <trkpt lat="48.98253" lon="2.00289">
        <ele>37</ele>
        <time>2022-06-12T08:50:44Z</time>
      </trkpt>
      <trkpt lat="48.98272" lon="2.00309">
        <ele>39</ele>
        <time>2022-06-12T08:51:03Z</time>
      </trkpt>
      <trkpt lat="48.98276" lon="2.00317">
        <ele>41</ele>
        <time>2022-06-12T08:51:15Z</time>
      </trkpt>
      <trkpt lat="48.9828" lon="2.00324">
        <ele>41</ele>
        <time>2022-06-12T08:51:25Z</time>
      </trkpt>
      <trkpt lat="48.98285" lon="2.00322">
        <ele>42</ele>
        <time>2022-06-12T08:51:28Z</time>
      </trkpt>
      <trkpt lat="48.9829" lon="2.00324">
        <ele>42</ele>
        <time>2022-06-12T08:51:35Z</time>
      </trkpt>
      <trkpt lat="48.98294" lon="2.0033">
        <ele>42</ele>
        <time>2022-06-12T08:51:39Z</time>
      </trkpt>
      <trkpt lat="48.98299" lon="2.00331">
        <ele>43</ele>
        <time>2022-06-12T08:51:43Z</time>
      </trkpt>
      <trkpt lat="48.98304" lon="2.00341">
        <ele>44</ele>
        <time>2022-06-12T08:51:53Z</time>
      </trkpt>
      <trkpt lat="48.98314" lon="2.00347">
        <ele>45</ele>
        <time>2022-06-12T08:52:02Z</time>
      </trkpt>
      <trkpt lat="48.98319" lon="2.00352">
        <ele>46</ele>
        <time>2022-06-12T08:52:06Z</time>
      </trkpt>
      <trkpt lat="48.98328" lon="2.0036">
        <ele>47</ele>
        <time>2022-06-12T08:52:14Z</time>
      </trkpt>
      <trkpt lat="48.98333" lon="2.00367">
        <ele>48</ele>
        <time>2022-06-12T08:52:19Z</time>
      </trkpt>
      <trkpt lat="48.98357" lon="2.00386">
        <ele>50</ele>
        <time>2022-06-12T08:52:44Z</time>
      </trkpt>
      <trkpt lat="48.98368" lon="2.00385">
        <ele>51</ele>
        <time>2022-06-12T08:52:53Z</time>
      </trkpt>
      <trkpt lat="48.98389" lon="2.00389">
        <ele>53</ele>
        <time>2022-06-12T08:53:15Z</time>
      </trkpt>
      <trkpt lat="48.98399" lon="2.00389">
        <ele>54</ele>
        <time>2022-06-12T08:53:21Z</time>
      </trkpt>
      <trkpt lat="48.98406" lon="2.00395">
        <ele>55</ele>
        <time>2022-06-12T08:53:29Z</time>
      </trkpt>
      <trkpt lat="48.98406" lon="2.00403">
        <ele>55</ele>
        <time>2022-06-12T08:53:33Z</time>
      </trkpt>
      <trkpt lat="48.98405" lon="2.00409">
        <ele>54</ele>
        <time>2022-06-12T08:53:36Z</time>
      </trkpt>
      <trkpt lat="48.98388" lon="2.00468">
        <ele>51</ele>
        <time>2022-06-12T08:54:09Z</time>
      </trkpt>
      <trkpt lat="48.98386" lon="2.00475">
        <ele>51</ele>
        <time>2022-06-12T08:54:13Z</time>
      </trkpt>
      <trkpt lat="48.98383" lon="2.00481">
        <ele>51</ele>
        <time>2022-06-12T08:54:18Z</time>
      </trkpt>
      <trkpt lat="48.98385" lon="2.00487">
        <ele>51</ele>
        <time>2022-06-12T08:54:27Z</time>
      </trkpt>
      <trkpt lat="48.98384" lon="2.00514">
        <ele>56</ele>
        <time>2022-06-12T08:55:01Z</time>
      </trkpt>
      <trkpt lat="48.98381" lon="2.00541">
        <ele>60</ele>
        <time>2022-06-12T08:55:19Z</time>
      </trkpt>
      <trkpt lat="48.98379" lon="2.00548">
        <ele>61</ele>
        <time>2022-06-12T08:55:25Z</time>
      </trkpt>
      <trkpt lat="48.98378" lon="2.00559">
        <ele>63</ele>
        <time>2022-06-12T08:55:32Z</time>
      </trkpt>
      <trkpt lat="48.98387" lon="2.00595">
        <ele>69</ele>
        <time>2022-06-12T08:56:04Z</time>
      </trkpt>
      <trkpt lat="48.98397" lon="2.00617">
        <ele>72</ele>
        <time>2022-06-12T08:56:25Z</time>
      </trkpt>
      <trkpt lat="48.98407" lon="2.00624">
        <ele>74</ele>
        <time>2022-06-12T08:56:38Z</time>
      </trkpt>
      <trkpt lat="48.98421" lon="2.00654">
        <ele>77</ele>
        <time>2022-06-12T08:57:01Z</time>
      </trkpt>
      <trkpt lat="48.98428" lon="2.00665">
        <ele>80</ele>
        <time>2022-06-12T08:57:14Z</time>
      </trkpt>
      <trkpt lat="48.9843" lon="2.00675">
        <ele>81</ele>
        <time>2022-06-12T08:57:22Z</time>
      </trkpt>
      <trkpt lat="48.98435" lon="2.00682">
        <ele>82</ele>
        <time>2022-06-12T08:57:31Z</time>
      </trkpt>
      <trkpt lat="48.98439" lon="2.00691">
        <ele>84</ele>
        <time>2022-06-12T08:57:39Z</time>
      </trkpt>
      <trkpt lat="48.98443" lon="2.00695">
        <ele>85</ele>
        <time>2022-06-12T08:57:44Z</time>
      </trkpt>
      <trkpt lat="48.98445" lon="2.00702">
        <ele>85</ele>
        <time>2022-06-12T08:57:49Z</time>
      </trkpt>
      <trkpt lat="48.98446" lon="2.00709">
        <ele>86</ele>
        <time>2022-06-12T08:57:54Z</time>
      </trkpt>
      <trkpt lat="48.98451" lon="2.00722">
        <ele>87</ele>
        <time>2022-06-12T08:58:03Z</time>
      </trkpt>
      <trkpt lat="48.98462" lon="2.00773">
        <ele>90</ele>
        <time>2022-06-12T08:58:33Z</time>
      </trkpt>
      <trkpt lat="48.98466" lon="2.00794">
        <ele>92</ele>
        <time>2022-06-12T08:58:47Z</time>
      </trkpt>
      <trkpt lat="48.98466" lon="2.00804">
        <ele>93</ele>
        <time>2022-06-12T08:58:53Z</time>
      </trkpt>
      <trkpt lat="48.98471" lon="2.00861">
        <ele>97</ele>
        <time>2022-06-12T08:59:28Z</time>
      </trkpt>
      <trkpt lat="48.98474" lon="2.00886">
        <ele>99</ele>
        <time>2022-06-12T08:59:43Z</time>
      </trkpt>
      <trkpt lat="48.98474" lon="2.00908">
        <ele>101</ele>
        <time>2022-06-12T08:59:56Z</time>
      </trkpt>
      <trkpt lat="48.98477" lon="2.00934">
        <ele>102</ele>
        <time>2022-06-12T09:00:08Z</time>
      </trkpt>
      <trkpt lat="48.98476" lon="2.00942">
        <ele>103</ele>
        <time>2022-06-12T09:00:12Z</time>
      </trkpt>
      <trkpt lat="48.98475" lon="2.0095">
        <ele>104</ele>
        <time>2022-06-12T09:00:16Z</time>
      </trkpt>
      <trkpt lat="48.98477" lon="2.00966">
        <ele>104</ele>
        <time>2022-06-12T09:00:24Z</time>
      </trkpt>
      <trkpt lat="48.98476" lon="2.00973">
        <ele>105</ele>
        <time>2022-06-12T09:00:29Z</time>
      </trkpt>
      <trkpt lat="48.98475" lon="2.00981">
        <ele>106</ele>
        <time>2022-06-12T09:00:34Z</time>
      </trkpt>
      <trkpt lat="48.98476" lon="2.0099">
        <ele>107</ele>
        <time>2022-06-12T09:00:38Z</time>
      </trkpt>
      <trkpt lat="48.98473" lon="2.01047">
        <ele>111</ele>
        <time>2022-06-12T09:01:09Z</time>
      </trkpt>
      <trkpt lat="48.98475" lon="2.01099">
        <ele>114</ele>
        <time>2022-06-12T09:01:40Z</time>
      </trkpt>
      <trkpt lat="48.9848" lon="2.01138">
        <ele>116</ele>
        <time>2022-06-12T09:02:01Z</time>
      </trkpt>
      <trkpt lat="48.9848" lon="2.01144">
        <ele>117</ele>
        <time>2022-06-12T09:02:12Z</time>
      </trkpt>
      <trkpt lat="48.98482" lon="2.01147">
        <ele>117</ele>
        <time>2022-06-12T09:04:15Z</time>
      </trkpt>
      <trkpt lat="48.98486" lon="2.01149">
        <ele>117</ele>
        <time>2022-06-12T09:07:06Z</time>
      </trkpt>
      <trkpt lat="48.98484" lon="2.01155">
        <ele>118</ele>
        <time>2022-06-12T09:08:00Z</time>
      </trkpt>
      <trkpt lat="48.98479" lon="2.01161">
        <ele>117</ele>
        <time>2022-06-12T09:08:34Z</time>
      </trkpt>
      <trkpt lat="48.98443" lon="2.01169">
        <ele>115</ele>
        <time>2022-06-12T09:09:03Z</time>
      </trkpt>
      <trkpt lat="48.98436" lon="2.01173">
        <ele>115</ele>
        <time>2022-06-12T09:09:10Z</time>
      </trkpt>
      <trkpt lat="48.98432" lon="2.01174">
        <ele>115</ele>
        <time>2022-06-12T09:09:13Z</time>
      </trkpt>
      <trkpt lat="48.98427" lon="2.01177">
        <ele>114</ele>
        <time>2022-06-12T09:09:17Z</time>
      </trkpt>
      <trkpt lat="48.98423" lon="2.01182">
        <ele>114</ele>
        <time>2022-06-12T09:09:21Z</time>
      </trkpt>
      <trkpt lat="48.98409" lon="2.01205">
        <ele>114</ele>
        <time>2022-06-12T09:09:40Z</time>
      </trkpt>
      <trkpt lat="48.98405" lon="2.01209">
        <ele>114</ele>
        <time>2022-06-12T09:09:44Z</time>
      </trkpt>
      <trkpt lat="48.98384" lon="2.0125">
        <ele>116</ele>
        <time>2022-06-12T09:10:15Z</time>
      </trkpt>
      <trkpt lat="48.98381" lon="2.01257">
        <ele>116</ele>
        <time>2022-06-12T09:10:20Z</time>
      </trkpt>
      <trkpt lat="48.98379" lon="2.01264">
        <ele>117</ele>
        <time>2022-06-12T09:10:25Z</time>
      </trkpt>
      <trkpt lat="48.98378" lon="2.01274">
        <ele>118</ele>
        <time>2022-06-12T09:10:30Z</time>
      </trkpt>
      <trkpt lat="48.98377" lon="2.01283">
        <ele>118</ele>
        <time>2022-06-12T09:10:35Z</time>
      </trkpt>
      <trkpt lat="48.98374" lon="2.01298">
        <ele>119</ele>
        <time>2022-06-12T09:10:44Z</time>
      </trkpt>
      <trkpt lat="48.98371" lon="2.01306">
        <ele>119</ele>
        <time>2022-06-12T09:10:48Z</time>
      </trkpt>
      <trkpt lat="48.98358" lon="2.01365">
        <ele>121</ele>
        <time>2022-06-12T09:11:21Z</time>
      </trkpt>
      <trkpt lat="48.98357" lon="2.01376">
        <ele>121</ele>
        <time>2022-06-12T09:11:27Z</time>
      </trkpt>
      <trkpt lat="48.98349" lon="2.01397">
        <ele>122</ele>
        <time>2022-06-12T09:11:39Z</time>
      </trkpt>
      <trkpt lat="48.98339" lon="2.01416">
        <ele>121</ele>
        <time>2022-06-12T09:11:50Z</time>
      </trkpt>
      <trkpt lat="48.98336" lon="2.01431">
        <ele>121</ele>
        <time>2022-06-12T09:11:58Z</time>
      </trkpt>
      <trkpt lat="48.98332" lon="2.01437">
        <ele>121</ele>
        <time>2022-06-12T09:12:05Z</time>
      </trkpt>
      <trkpt lat="48.98325" lon="2.01441">
        <ele>120</ele>
        <time>2022-06-12T09:12:14Z</time>
      </trkpt>
      <trkpt lat="48.98322" lon="2.01448">
        <ele>117</ele>
        <time>2022-06-12T09:12:22Z</time>
      </trkpt>
      <trkpt lat="48.98321" lon="2.01456">
        <ele>118</ele>
        <time>2022-06-12T09:12:29Z</time>
      </trkpt>
      <trkpt lat="48.98317" lon="2.0146">
        <ele>118</ele>
        <time>2022-06-12T09:12:33Z</time>
      </trkpt>
      <trkpt lat="48.98312" lon="2.01474">
        <ele>118</ele>
        <time>2022-06-12T09:12:41Z</time>
      </trkpt>
      <trkpt lat="48.9831" lon="2.01483">
        <ele>118</ele>
        <time>2022-06-12T09:12:46Z</time>
      </trkpt>
      <trkpt lat="48.9831" lon="2.01498">
        <ele>118</ele>
        <time>2022-06-12T09:12:54Z</time>
      </trkpt>
      <trkpt lat="48.9831" lon="2.01505">
        <ele>118</ele>
        <time>2022-06-12T09:12:58Z</time>
      </trkpt>
      <trkpt lat="48.98309" lon="2.01521">
        <ele>117</ele>
        <time>2022-06-12T09:13:06Z</time>
      </trkpt>
      <trkpt lat="48.98295" lon="2.01563">
        <ele>117</ele>
        <time>2022-06-12T09:13:28Z</time>
      </trkpt>
      <trkpt lat="48.98291" lon="2.01578">
        <ele>116</ele>
        <time>2022-06-12T09:13:36Z</time>
      </trkpt>
      <trkpt lat="48.98275" lon="2.01623">
        <ele>115</ele>
        <time>2022-06-12T09:14:00Z</time>
      </trkpt>
      <trkpt lat="48.98274" lon="2.01631">
        <ele>115</ele>
        <time>2022-06-12T09:14:04Z</time>
      </trkpt>
      <trkpt lat="48.98271" lon="2.01638">
        <ele>115</ele>
        <time>2022-06-12T09:14:08Z</time>
      </trkpt>
      <trkpt lat="48.98264" lon="2.01649">
        <ele>114</ele>
        <time>2022-06-12T09:14:15Z</time>
      </trkpt>
      <trkpt lat="48.98261" lon="2.01654">
        <ele>114</ele>
        <time>2022-06-12T09:14:18Z</time>
      </trkpt>
      <trkpt lat="48.98254" lon="2.01667">
        <ele>114</ele>
        <time>2022-06-12T09:14:26Z</time>
      </trkpt>
      <trkpt lat="48.98238" lon="2.01689">
        <ele>111</ele>
        <time>2022-06-12T09:14:43Z</time>
      </trkpt>
      <trkpt lat="48.98226" lon="2.01715">
        <ele>109</ele>
        <time>2022-06-12T09:14:59Z</time>
      </trkpt>
      <trkpt lat="48.98221" lon="2.01721">
        <ele>109</ele>
        <time>2022-06-12T09:15:03Z</time>
      </trkpt>
      <trkpt lat="48.98214" lon="2.01731">
        <ele>108</ele>
        <time>2022-06-12T09:15:09Z</time>
      </trkpt>
      <trkpt lat="48.98208" lon="2.01742">
        <ele>107</ele>
        <time>2022-06-12T09:15:17Z</time>
      </trkpt>
      <trkpt lat="48.98196" lon="2.01757">
        <ele>106</ele>
        <time>2022-06-12T09:15:28Z</time>
      </trkpt>
      <trkpt lat="48.98187" lon="2.01764">
        <ele>105</ele>
        <time>2022-06-12T09:15:36Z</time>
      </trkpt>
      <trkpt lat="48.98183" lon="2.01768">
        <ele>105</ele>
        <time>2022-06-12T09:15:39Z</time>
      </trkpt>
      <trkpt lat="48.98178" lon="2.01773">
        <ele>104</ele>
        <time>2022-06-12T09:15:43Z</time>
      </trkpt>
      <trkpt lat="48.98173" lon="2.01776">
        <ele>104</ele>
        <time>2022-06-12T09:15:48Z</time>
      </trkpt>
      <trkpt lat="48.98167" lon="2.01783">
        <ele>103</ele>
        <time>2022-06-12T09:15:56Z</time>
      </trkpt>
      <trkpt lat="48.98163" lon="2.01788">
        <ele>103</ele>
        <time>2022-06-12T09:15:59Z</time>
      </trkpt>
      <trkpt lat="48.98146" lon="2.01805">
        <ele>102</ele>
        <time>2022-06-12T09:16:15Z</time>
      </trkpt>
      <trkpt lat="48.98144" lon="2.01818">
        <ele>103</ele>
        <time>2022-06-12T09:16:24Z</time>
      </trkpt>
      <trkpt lat="48.98144" lon="2.0187">
        <ele>108</ele>
        <time>2022-06-12T09:16:57Z</time>
      </trkpt>
      <trkpt lat="48.98144" lon="2.01877">
        <ele>109</ele>
        <time>2022-06-12T09:17:02Z</time>
      </trkpt>
      <trkpt lat="48.98144" lon="2.01894">
        <ele>111</ele>
        <time>2022-06-12T09:17:13Z</time>
      </trkpt>
      <trkpt lat="48.98126" lon="2.01936">
        <ele>115</ele>
        <time>2022-06-12T09:17:41Z</time>
      </trkpt>
      <trkpt lat="48.98115" lon="2.01953">
        <ele>117</ele>
        <time>2022-06-12T09:17:56Z</time>
      </trkpt>
      <trkpt lat="48.98113" lon="2.0196">
        <ele>117</ele>
        <time>2022-06-12T09:18:00Z</time>
      </trkpt>
      <trkpt lat="48.9811" lon="2.01976">
        <ele>117</ele>
        <time>2022-06-12T09:18:09Z</time>
      </trkpt>
      <trkpt lat="48.98088" lon="2.02023">
        <ele>117</ele>
        <time>2022-06-12T09:18:39Z</time>
      </trkpt>
      <trkpt lat="48.98086" lon="2.02031">
        <ele>118</ele>
        <time>2022-06-12T09:18:43Z</time>
      </trkpt>
      <trkpt lat="48.98081" lon="2.02045">
        <ele>119</ele>
        <time>2022-06-12T09:18:52Z</time>
      </trkpt>
      <trkpt lat="48.9808" lon="2.02053">
        <ele>119</ele>
        <time>2022-06-12T09:18:57Z</time>
      </trkpt>
      <trkpt lat="48.98079" lon="2.0206">
        <ele>119</ele>
        <time>2022-06-12T09:19:02Z</time>
      </trkpt>
      <trkpt lat="48.98071" lon="2.02089">
        <ele>121</ele>
        <time>2022-06-12T09:19:20Z</time>
      </trkpt>
      <trkpt lat="48.98067" lon="2.02097">
        <ele>120</ele>
        <time>2022-06-12T09:19:29Z</time>
      </trkpt>
      <trkpt lat="48.98049" lon="2.02153">
        <ele>120</ele>
        <time>2022-06-12T09:20:04Z</time>
      </trkpt>
      <trkpt lat="48.98049" lon="2.02164">
        <ele>119</ele>
        <time>2022-06-12T09:20:12Z</time>
      </trkpt>
      <trkpt lat="48.98051" lon="2.02225">
        <ele>118</ele>
        <time>2022-06-12T09:20:41Z</time>
      </trkpt>
      <trkpt lat="48.98058" lon="2.02256">
        <ele>118</ele>
        <time>2022-06-12T09:20:59Z</time>
      </trkpt>
      <trkpt lat="48.98065" lon="2.02266">
        <ele>118</ele>
        <time>2022-06-12T09:21:07Z</time>
      </trkpt>
      <trkpt lat="48.98079" lon="2.02305">
        <ele>120</ele>
        <time>2022-06-12T09:21:32Z</time>
      </trkpt>
      <trkpt lat="48.98079" lon="2.02313">
        <ele>119</ele>
        <time>2022-06-12T09:21:37Z</time>
      </trkpt>
      <trkpt lat="48.98074" lon="2.02362">
        <ele>117</ele>
        <time>2022-06-12T09:22:06Z</time>
      </trkpt>
      <trkpt lat="48.98072" lon="2.0237">
        <ele>117</ele>
        <time>2022-06-12T09:22:10Z</time>
      </trkpt>
      <trkpt lat="48.98068" lon="2.02376">
        <ele>116</ele>
        <time>2022-06-12T09:22:15Z</time>
      </trkpt>
      <trkpt lat="48.98065" lon="2.02383">
        <ele>116</ele>
        <time>2022-06-12T09:22:20Z</time>
      </trkpt>
      <trkpt lat="48.98056" lon="2.02394">
        <ele>114</ele>
        <time>2022-06-12T09:22:29Z</time>
      </trkpt>
      <trkpt lat="48.98037" lon="2.02405">
        <ele>112</ele>
        <time>2022-06-12T09:22:46Z</time>
      </trkpt>
      <trkpt lat="48.98028" lon="2.02416">
        <ele>110</ele>
        <time>2022-06-12T09:22:56Z</time>
      </trkpt>
      <trkpt lat="48.98026" lon="2.02446">
        <ele>109</ele>
        <time>2022-06-12T09:23:13Z</time>
      </trkpt>
      <trkpt lat="48.98026" lon="2.02455">
        <ele>109</ele>
        <time>2022-06-12T09:23:17Z</time>
      </trkpt>
      <trkpt lat="48.98024" lon="2.02484">
        <ele>108</ele>
        <time>2022-06-12T09:23:34Z</time>
      </trkpt>
      <trkpt lat="48.98022" lon="2.02492">
        <ele>108</ele>
        <time>2022-06-12T09:23:38Z</time>
      </trkpt>
      <trkpt lat="48.98021" lon="2.02514">
        <ele>109</ele>
        <time>2022-06-12T09:23:51Z</time>
      </trkpt>
      <trkpt lat="48.98019" lon="2.02523">
        <ele>109</ele>
        <time>2022-06-12T09:23:55Z</time>
      </trkpt>
      <trkpt lat="48.98003" lon="2.02561">
        <ele>110</ele>
        <time>2022-06-12T09:24:18Z</time>
      </trkpt>
      <trkpt lat="48.97992" lon="2.02576">
        <ele>110</ele>
        <time>2022-06-12T09:24:29Z</time>
      </trkpt>
      <trkpt lat="48.97989" lon="2.02583">
        <ele>110</ele>
        <time>2022-06-12T09:24:33Z</time>
      </trkpt>
      <trkpt lat="48.97978" lon="2.02599">
        <ele>110</ele>
        <time>2022-06-12T09:24:47Z</time>
      </trkpt>
      <trkpt lat="48.97977" lon="2.02605">
        <ele>110</ele>
        <time>2022-06-12T09:24:51Z</time>
      </trkpt>
      <trkpt lat="48.97974" lon="2.02612">
        <ele>110</ele>
        <time>2022-06-12T09:24:55Z</time>
      </trkpt>
      <trkpt lat="48.9797" lon="2.02617">
        <ele>110</ele>
        <time>2022-06-12T09:24:59Z</time>
      </trkpt>
      <trkpt lat="48.97961" lon="2.02629">
        <ele>109</ele>
        <time>2022-06-12T09:25:10Z</time>
      </trkpt>
      <trkpt lat="48.97958" lon="2.02636">
        <ele>107</ele>
        <time>2022-06-12T09:26:16Z</time>
      </trkpt>
      <trkpt lat="48.97956" lon="2.02644">
        <ele>107</ele>
        <time>2022-06-12T09:26:22Z</time>
      </trkpt>
      <trkpt lat="48.97957" lon="2.02652">
        <ele>107</ele>
        <time>2022-06-12T09:26:27Z</time>
      </trkpt>
      <trkpt lat="48.97954" lon="2.02682">
        <ele>104</ele>
        <time>2022-06-12T09:26:46Z</time>
      </trkpt>
      <trkpt lat="48.97952" lon="2.02693">
        <ele>104</ele>
        <time>2022-06-12T09:26:56Z</time>
      </trkpt>
      <trkpt lat="48.97948" lon="2.02718">
        <ele>102</ele>
        <time>2022-06-12T09:27:18Z</time>
      </trkpt>
      <trkpt lat="48.97944" lon="2.02731">
        <ele>101</ele>
        <time>2022-06-12T09:27:27Z</time>
      </trkpt>
      <trkpt lat="48.97943" lon="2.02739">
        <ele>101</ele>
        <time>2022-06-12T09:27:32Z</time>
      </trkpt>
      <trkpt lat="48.97938" lon="2.02752">
        <ele>101</ele>
        <time>2022-06-12T09:27:39Z</time>
      </trkpt>
      <trkpt lat="48.97933" lon="2.02772">
        <ele>100</ele>
        <time>2022-06-12T09:27:51Z</time>
      </trkpt>
      <trkpt lat="48.97934" lon="2.02779">
        <ele>100</ele>
        <time>2022-06-12T09:27:55Z</time>
      </trkpt>
      <trkpt lat="48.97924" lon="2.0283">
        <ele>99</ele>
        <time>2022-06-12T09:28:22Z</time>
      </trkpt>
      <trkpt lat="48.97924" lon="2.02838">
        <ele>99</ele>
        <time>2022-06-12T09:28:26Z</time>
      </trkpt>
      <trkpt lat="48.97919" lon="2.02851">
        <ele>98</ele>
        <time>2022-06-12T09:28:34Z</time>
      </trkpt>
      <trkpt lat="48.97916" lon="2.02872">
        <ele>98</ele>
        <time>2022-06-12T09:28:46Z</time>
      </trkpt>
      <trkpt lat="48.97919" lon="2.02887">
        <ele>98</ele>
        <time>2022-06-12T09:28:54Z</time>
      </trkpt>
      <trkpt lat="48.97921" lon="2.02894">
        <ele>98</ele>
        <time>2022-06-12T09:28:58Z</time>
      </trkpt>
      <trkpt lat="48.97889" lon="2.02899">
        <ele>96</ele>
        <time>2022-06-12T09:29:26Z</time>
      </trkpt>
      <trkpt lat="48.97884" lon="2.02905">
        <ele>96</ele>
        <time>2022-06-12T09:29:31Z</time>
      </trkpt>
      <trkpt lat="48.97883" lon="2.02912">
        <ele>96</ele>
        <time>2022-06-12T09:29:35Z</time>
      </trkpt>
      <trkpt lat="48.97881" lon="2.02935">
        <ele>97</ele>
        <time>2022-06-12T09:29:47Z</time>
      </trkpt>
      <trkpt lat="48.97877" lon="2.02949">
        <ele>97</ele>
        <time>2022-06-12T09:29:56Z</time>
      </trkpt>
      <trkpt lat="48.97872" lon="2.03">
        <ele>96</ele>
        <time>2022-06-12T09:30:25Z</time>
      </trkpt>
      <trkpt lat="48.97874" lon="2.03009">
        <ele>96</ele>
        <time>2022-06-12T09:30:31Z</time>
      </trkpt>
      <trkpt lat="48.97878" lon="2.03034">
        <ele>95</ele>
        <time>2022-06-12T09:30:47Z</time>
      </trkpt>
      <trkpt lat="48.97881" lon="2.03043">
        <ele>95</ele>
        <time>2022-06-12T09:31:01Z</time>
      </trkpt>
      <trkpt lat="48.9788" lon="2.0305">
        <ele>95</ele>
        <time>2022-06-12T09:33:29Z</time>
      </trkpt>
      <trkpt lat="48.97876" lon="2.03057">
        <ele>95</ele>
        <time>2022-06-12T09:34:01Z</time>
      </trkpt>
      <trkpt lat="48.97876" lon="2.03064">
        <ele>95</ele>
        <time>2022-06-12T09:34:05Z</time>
      </trkpt>
      <trkpt lat="48.9788" lon="2.0308">
        <ele>95</ele>
        <time>2022-06-12T09:34:13Z</time>
      </trkpt>
      <trkpt lat="48.97883" lon="2.03094">
        <ele>95</ele>
        <time>2022-06-12T09:34:20Z</time>
      </trkpt>
      <trkpt lat="48.97884" lon="2.03101">
        <ele>95</ele>
        <time>2022-06-12T09:34:25Z</time>
      </trkpt>
      <trkpt lat="48.97888" lon="2.03097">
        <ele>94</ele>
        <time>2022-06-12T09:39:50Z</time>
      </trkpt>
      <trkpt lat="48.97894" lon="2.03108">
        <ele>95</ele>
        <time>2022-06-12T09:40:14Z</time>
      </trkpt>
      <trkpt lat="48.9789" lon="2.03114">
        <ele>95</ele>
        <time>2022-06-12T09:40:21Z</time>
      </trkpt>
      <trkpt lat="48.97889" lon="2.03133">
        <ele>94</ele>
        <time>2022-06-12T09:40:32Z</time>
      </trkpt>
      <trkpt lat="48.97891" lon="2.03139">
        <ele>94</ele>
        <time>2022-06-12T09:40:36Z</time>
      </trkpt>
      <trkpt lat="48.97898" lon="2.03137">
        <ele>95</ele>
        <time>2022-06-12T09:40:52Z</time>
      </trkpt>
      <trkpt lat="48.97923" lon="2.03118">
        <ele>96</ele>
        <time>2022-06-12T09:41:17Z</time>
      </trkpt>
      <trkpt lat="48.97932" lon="2.03105">
        <ele>97</ele>
        <time>2022-06-12T09:41:28Z</time>
      </trkpt>
      <trkpt lat="48.97941" lon="2.03104">
        <ele>97</ele>
        <time>2022-06-12T09:41:38Z</time>
      </trkpt>
      <trkpt lat="48.97952" lon="2.03121">
        <ele>97</ele>
        <time>2022-06-12T09:41:47Z</time>
      </trkpt>
      <trkpt lat="48.97962" lon="2.03124">
        <ele>96</ele>
        <time>2022-06-12T09:41:53Z</time>
      </trkpt>
      <trkpt lat="48.97978" lon="2.03138">
        <ele>96</ele>
        <time>2022-06-12T09:42:04Z</time>
      </trkpt>
      <trkpt lat="48.97981" lon="2.03145">
        <ele>96</ele>
        <time>2022-06-12T09:42:08Z</time>
      </trkpt>
      <trkpt lat="48.97984" lon="2.03159">
        <ele>97</ele>
        <time>2022-06-12T09:42:14Z</time>
      </trkpt>
      <trkpt lat="48.97984" lon="2.0319">
        <ele>97</ele>
        <time>2022-06-12T09:42:28Z</time>
      </trkpt>
      <trkpt lat="48.97989" lon="2.03203">
        <ele>97</ele>
        <time>2022-06-12T09:42:37Z</time>
      </trkpt>
      <trkpt lat="48.97995" lon="2.03211">
        <ele>97</ele>
        <time>2022-06-12T09:42:43Z</time>
      </trkpt>
      <trkpt lat="48.97999" lon="2.03226">
        <ele>98</ele>
        <time>2022-06-12T09:42:51Z</time>
      </trkpt>
      <trkpt lat="48.97999" lon="2.03244">
        <ele>98</ele>
        <time>2022-06-12T09:43:02Z</time>
      </trkpt>
      <trkpt lat="48.98006" lon="2.03265">
        <ele>99</ele>
        <time>2022-06-12T09:43:14Z</time>
      </trkpt>
      <trkpt lat="48.98007" lon="2.03272">
        <ele>99</ele>
        <time>2022-06-12T09:43:19Z</time>
      </trkpt>
      <trkpt lat="48.98011" lon="2.03278">
        <ele>99</ele>
        <time>2022-06-12T09:43:24Z</time>
      </trkpt>
      <trkpt lat="48.98036" lon="2.03312">
        <ele>102</ele>
        <time>2022-06-12T09:43:53Z</time>
      </trkpt>
      <trkpt lat="48.9805" lon="2.03347">
        <ele>104</ele>
        <time>2022-06-12T09:44:13Z</time>
      </trkpt>
      <trkpt lat="48.9805" lon="2.03354">
        <ele>105</ele>
        <time>2022-06-12T09:44:18Z</time>
      </trkpt>
      <trkpt lat="48.98058" lon="2.03375">
        <ele>106</ele>
        <time>2022-06-12T09:44:32Z</time>
      </trkpt>
      <trkpt lat="48.98057" lon="2.03395">
        <ele>108</ele>
        <time>2022-06-12T09:44:43Z</time>
      </trkpt>
      <trkpt lat="48.98055" lon="2.03404">
        <ele>108</ele>
        <time>2022-06-12T09:44:46Z</time>
      </trkpt>
      <trkpt lat="48.98056" lon="2.03411">
        <ele>108</ele>
        <time>2022-06-12T09:44:50Z</time>
      </trkpt>
      <trkpt lat="48.98054" lon="2.03418">
        <ele>108</ele>
        <time>2022-06-12T09:44:54Z</time>
      </trkpt>
      <trkpt lat="48.98034" lon="2.03444">
        <ele>106</ele>
        <time>2022-06-12T09:45:12Z</time>
      </trkpt>
      <trkpt lat="48.98031" lon="2.03453">
        <ele>106</ele>
        <time>2022-06-12T09:45:18Z</time>
      </trkpt>
      <trkpt lat="48.98031" lon="2.0346">
        <ele>105</ele>
        <time>2022-06-12T09:45:22Z</time>
      </trkpt>
      <trkpt lat="48.98032" lon="2.03468">
        <ele>105</ele>
        <time>2022-06-12T09:45:26Z</time>
      </trkpt>
      <trkpt lat="48.9804" lon="2.03505">
        <ele>106</ele>
        <time>2022-06-12T09:45:47Z</time>
      </trkpt>
      <trkpt lat="48.98042" lon="2.03514">
        <ele>106</ele>
        <time>2022-06-12T09:45:53Z</time>
      </trkpt>
      <trkpt lat="48.98043" lon="2.03523">
        <ele>106</ele>
        <time>2022-06-12T09:45:57Z</time>
      </trkpt>
      <trkpt lat="48.98039" lon="2.03538">
        <ele>106</ele>
        <time>2022-06-12T09:46:05Z</time>
      </trkpt>
      <trkpt lat="48.98039" lon="2.03546">
        <ele>105</ele>
        <time>2022-06-12T09:46:09Z</time>
      </trkpt>
      <trkpt lat="48.98036" lon="2.0356">
        <ele>104</ele>
        <time>2022-06-12T09:46:17Z</time>
      </trkpt>
      <trkpt lat="48.98016" lon="2.03607">
        <ele>105</ele>
        <time>2022-06-12T09:46:48Z</time>
      </trkpt>
      <trkpt lat="48.98014" lon="2.03613">
        <ele>105</ele>
        <time>2022-06-12T09:46:52Z</time>
      </trkpt>
      <trkpt lat="48.98012" lon="2.03621">
        <ele>105</ele>
        <time>2022-06-12T09:46:56Z</time>
      </trkpt>
      <trkpt lat="48.98011" lon="2.03628">
        <ele>106</ele>
        <time>2022-06-12T09:47:00Z</time>
      </trkpt>
      <trkpt lat="48.98012" lon="2.0364">
        <ele>107</ele>
        <time>2022-06-12T09:47:10Z</time>
      </trkpt>
      <trkpt lat="48.98013" lon="2.03656">
        <ele>107</ele>
        <time>2022-06-12T09:47:16Z</time>
      </trkpt>
      <trkpt lat="48.98014" lon="2.03692">
        <ele>106</ele>
        <time>2022-06-12T09:47:36Z</time>
      </trkpt>
      <trkpt lat="48.98017" lon="2.0373">
        <ele>107</ele>
        <time>2022-06-12T09:48:02Z</time>
      </trkpt>
      <trkpt lat="48.98028" lon="2.03797">
        <ele>107</ele>
        <time>2022-06-12T09:48:35Z</time>
      </trkpt>
      <trkpt lat="48.98031" lon="2.03811">
        <ele>106</ele>
        <time>2022-06-12T09:48:43Z</time>
      </trkpt>
      <trkpt lat="48.98032" lon="2.03819">
        <ele>106</ele>
        <time>2022-06-12T09:48:48Z</time>
      </trkpt>
      <trkpt lat="48.98034" lon="2.03834">
        <ele>106</ele>
        <time>2022-06-12T09:48:56Z</time>
      </trkpt>
      <trkpt lat="48.98033" lon="2.03859">
        <ele>106</ele>
        <time>2022-06-12T09:49:08Z</time>
      </trkpt>
      <trkpt lat="48.98031" lon="2.03866">
        <ele>105</ele>
        <time>2022-06-12T09:49:12Z</time>
      </trkpt>
      <trkpt lat="48.98027" lon="2.03901">
        <ele>105</ele>
        <time>2022-06-12T09:49:32Z</time>
      </trkpt>
      <trkpt lat="48.98029" lon="2.03962">
        <ele>106</ele>
        <time>2022-06-12T09:50:06Z</time>
      </trkpt>
      <trkpt lat="48.98031" lon="2.03969">
        <ele>106</ele>
        <time>2022-06-12T09:50:10Z</time>
      </trkpt>
      <trkpt lat="48.98037" lon="2.04023">
        <ele>107</ele>
        <time>2022-06-12T09:50:41Z</time>
      </trkpt>
      <trkpt lat="48.98039" lon="2.04038">
        <ele>107</ele>
        <time>2022-06-12T09:50:49Z</time>
      </trkpt>
      <trkpt lat="48.98039" lon="2.04045">
        <ele>107</ele>
        <time>2022-06-12T09:50:53Z</time>
      </trkpt>
      <trkpt lat="48.9804" lon="2.04053">
        <ele>107</ele>
        <time>2022-06-12T09:50:58Z</time>
      </trkpt>
      <trkpt lat="48.98043" lon="2.04067">
        <ele>107</ele>
        <time>2022-06-12T09:51:06Z</time>
      </trkpt>
      <trkpt lat="48.98046" lon="2.04088">
        <ele>107</ele>
        <time>2022-06-12T09:51:19Z</time>
      </trkpt>
      <trkpt lat="48.98056" lon="2.04135">
        <ele>107</ele>
        <time>2022-06-12T09:51:47Z</time>
      </trkpt>
      <trkpt lat="48.98063" lon="2.0415">
        <ele>107</ele>
        <time>2022-06-12T09:51:58Z</time>
      </trkpt>
      <trkpt lat="48.98064" lon="2.04158">
        <ele>107</ele>
        <time>2022-06-12T09:52:02Z</time>
      </trkpt>
      <trkpt lat="48.98067" lon="2.04164">
        <ele>107</ele>
        <time>2022-06-12T09:52:06Z</time>
      </trkpt>
      <trkpt lat="48.98068" lon="2.04173">
        <ele>108</ele>
        <time>2022-06-12T09:52:12Z</time>
      </trkpt>
      <trkpt lat="48.98066" lon="2.04197">
        <ele>108</ele>
        <time>2022-06-12T09:52:25Z</time>
      </trkpt>
      <trkpt lat="48.98069" lon="2.04209">
        <ele>108</ele>
        <time>2022-06-12T09:52:32Z</time>
      </trkpt>
      <trkpt lat="48.98071" lon="2.04215">
        <ele>108</ele>
        <time>2022-06-12T09:52:35Z</time>
      </trkpt>
      <trkpt lat="48.98077" lon="2.04256">
        <ele>108</ele>
        <time>2022-06-12T09:52:55Z</time>
      </trkpt>
      <trkpt lat="48.98075" lon="2.04263">
        <ele>108</ele>
        <time>2022-06-12T09:53:00Z</time>
      </trkpt>
      <trkpt lat="48.98071" lon="2.04267">
        <ele>108</ele>
        <time>2022-06-12T09:53:15Z</time>
      </trkpt>
      <trkpt lat="48.9807" lon="2.04267">
        <ele>108</ele>
        <time>2022-06-12T09:54:19Z</time>
      </trkpt>
      <trkpt lat="48.98077" lon="2.04276">
        <ele>108</ele>
        <time>2022-06-12T09:54:30Z</time>
      </trkpt>
      <trkpt lat="48.98079" lon="2.04283">
        <ele>109</ele>
        <time>2022-06-12T09:54:34Z</time>
      </trkpt>
      <trkpt lat="48.98089" lon="2.043">
        <ele>109</ele>
        <time>2022-06-12T09:54:47Z</time>
      </trkpt>
      <trkpt lat="48.98093" lon="2.04303">
        <ele>110</ele>
        <time>2022-06-12T09:54:51Z</time>
      </trkpt>
      <trkpt lat="48.98101" lon="2.04299">
        <ele>111</ele>
        <time>2022-06-12T09:54:59Z</time>
      </trkpt>
      <trkpt lat="48.98133" lon="2.04277">
        <ele>114</ele>
        <time>2022-06-12T09:55:30Z</time>
      </trkpt>
      <trkpt lat="48.98171" lon="2.04259">
        <ele>120</ele>
        <time>2022-06-12T09:56:04Z</time>
      </trkpt>
      <trkpt lat="48.98176" lon="2.04257">
        <ele>120</ele>
        <time>2022-06-12T09:56:08Z</time>
      </trkpt>
      <trkpt lat="48.98181" lon="2.04262">
        <ele>121</ele>
        <time>2022-06-12T09:56:14Z</time>
      </trkpt>
      <trkpt lat="48.98187" lon="2.04282">
        <ele>122</ele>
        <time>2022-06-12T09:56:24Z</time>
      </trkpt>
      <trkpt lat="48.98192" lon="2.04314">
        <ele>123</ele>
        <time>2022-06-12T09:56:41Z</time>
      </trkpt>
      <trkpt lat="48.98196" lon="2.04325">
        <ele>124</ele>
        <time>2022-06-12T09:56:49Z</time>
      </trkpt>
      <trkpt lat="48.982" lon="2.04378">
        <ele>126</ele>
        <time>2022-06-12T09:57:21Z</time>
      </trkpt>
      <trkpt lat="48.98202" lon="2.04385">
        <ele>126</ele>
        <time>2022-06-12T09:57:25Z</time>
      </trkpt>
      <trkpt lat="48.98203" lon="2.04391">
        <ele>126</ele>
        <time>2022-06-12T09:57:28Z</time>
      </trkpt>
      <trkpt lat="48.98208" lon="2.04406">
        <ele>127</ele>
        <time>2022-06-12T09:57:33Z</time>
      </trkpt>
      <trkpt lat="48.98205" lon="2.04429">
        <ele>127</ele>
        <time>2022-06-12T09:57:43Z</time>
      </trkpt>
      <trkpt lat="48.98206" lon="2.04436">
        <ele>127</ele>
        <time>2022-06-12T09:57:47Z</time>
      </trkpt>
      <trkpt lat="48.98203" lon="2.04443">
        <ele>127</ele>
        <time>2022-06-12T09:57:51Z</time>
      </trkpt>
      <trkpt lat="48.98204" lon="2.04467">
        <ele>128</ele>
        <time>2022-06-12T09:58:02Z</time>
      </trkpt>
      <trkpt lat="48.98207" lon="2.04481">
        <ele>127</ele>
        <time>2022-06-12T09:58:11Z</time>
      </trkpt>
      <trkpt lat="48.98211" lon="2.04487">
        <ele>127</ele>
        <time>2022-06-12T09:58:15Z</time>
      </trkpt>
      <trkpt lat="48.98213" lon="2.04493">
        <ele>128</ele>
        <time>2022-06-12T09:58:19Z</time>
      </trkpt>
      <trkpt lat="48.98222" lon="2.04512">
        <ele>128</ele>
        <time>2022-06-12T09:58:28Z</time>
      </trkpt>
      <trkpt lat="48.98224" lon="2.0452">
        <ele>128</ele>
        <time>2022-06-12T09:58:32Z</time>
      </trkpt>
      <trkpt lat="48.98248" lon="2.04561">
        <ele>129</ele>
        <time>2022-06-12T09:58:59Z</time>
      </trkpt>
      <trkpt lat="48.98252" lon="2.04566">
        <ele>129</ele>
        <time>2022-06-12T09:59:03Z</time>
      </trkpt>
      <trkpt lat="48.98258" lon="2.04577">
        <ele>130</ele>
        <time>2022-06-12T09:59:11Z</time>
      </trkpt>
      <trkpt lat="48.98278" lon="2.04608">
        <ele>130</ele>
        <time>2022-06-12T09:59:38Z</time>
      </trkpt>
      <trkpt lat="48.9829" lon="2.04622">
        <ele>131</ele>
        <time>2022-06-12T09:59:48Z</time>
      </trkpt>
      <trkpt lat="48.98322" lon="2.04669">
        <ele>132</ele>
        <time>2022-06-12T10:00:19Z</time>
      </trkpt>
      <trkpt lat="48.98335" lon="2.04682">
        <ele>132</ele>
        <time>2022-06-12T10:00:32Z</time>
      </trkpt>
      <trkpt lat="48.98348" lon="2.04719">
        <ele>131</ele>
        <time>2022-06-12T10:00:51Z</time>
      </trkpt>
      <trkpt lat="48.9835" lon="2.04735">
        <ele>130</ele>
        <time>2022-06-12T10:00:59Z</time>
      </trkpt>
      <trkpt lat="48.9835" lon="2.04742">
        <ele>130</ele>
        <time>2022-06-12T10:01:04Z</time>
      </trkpt>
      <trkpt lat="48.98347" lon="2.04755">
        <ele>129</ele>
        <time>2022-06-12T10:01:13Z</time>
      </trkpt>
      <trkpt lat="48.98343" lon="2.04759">
        <ele>128</ele>
        <time>2022-06-12T10:01:16Z</time>
      </trkpt>
      <trkpt lat="48.98338" lon="2.04761">
        <ele>128</ele>
        <time>2022-06-12T10:01:19Z</time>
      </trkpt>
      <trkpt lat="48.98329" lon="2.04764">
        <ele>128</ele>
        <time>2022-06-12T10:01:25Z</time>
      </trkpt>
      <trkpt lat="48.98319" lon="2.04774">
        <ele>127</ele>
        <time>2022-06-12T10:01:32Z</time>
      </trkpt>
      <trkpt lat="48.98312" lon="2.04796">
        <ele>125</ele>
        <time>2022-06-12T10:01:45Z</time>
      </trkpt>
      <trkpt lat="48.98311" lon="2.04803">
        <ele>125</ele>
        <time>2022-06-12T10:01:49Z</time>
      </trkpt>
      <trkpt lat="48.98309" lon="2.04811">
        <ele>125</ele>
        <time>2022-06-12T10:01:54Z</time>
      </trkpt>
      <trkpt lat="48.9831" lon="2.04819">
        <ele>124</ele>
        <time>2022-06-12T10:01:59Z</time>
      </trkpt>
      <trkpt lat="48.98305" lon="2.04833">
        <ele>124</ele>
        <time>2022-06-12T10:02:06Z</time>
      </trkpt>
      <trkpt lat="48.98301" lon="2.04865">
        <ele>123</ele>
        <time>2022-06-12T10:02:25Z</time>
      </trkpt>
      <trkpt lat="48.98299" lon="2.04872">
        <ele>122</ele>
        <time>2022-06-12T10:02:29Z</time>
      </trkpt>
      <trkpt lat="48.98293" lon="2.04895">
        <ele>122</ele>
        <time>2022-06-12T10:02:43Z</time>
      </trkpt>
      <trkpt lat="48.98291" lon="2.04902">
        <ele>121</ele>
        <time>2022-06-12T10:02:47Z</time>
      </trkpt>
      <trkpt lat="48.98289" lon="2.04908">
        <ele>121</ele>
        <time>2022-06-12T10:02:51Z</time>
      </trkpt>
      <trkpt lat="48.98285" lon="2.04922">
        <ele>121</ele>
        <time>2022-06-12T10:02:59Z</time>
      </trkpt>
      <trkpt lat="48.98279" lon="2.0493">
        <ele>120</ele>
        <time>2022-06-12T10:03:08Z</time>
      </trkpt>
      <trkpt lat="48.98274" lon="2.04941">
        <ele>119</ele>
        <time>2022-06-12T10:03:22Z</time>
      </trkpt>
      <trkpt lat="48.98268" lon="2.04952">
        <ele>118</ele>
        <time>2022-06-12T10:03:30Z</time>
      </trkpt>
      <trkpt lat="48.98255" lon="2.04975">
        <ele>116</ele>
        <time>2022-06-12T10:03:49Z</time>
      </trkpt>
      <trkpt lat="48.98247" lon="2.04994">
        <ele>114</ele>
        <time>2022-06-12T10:04:01Z</time>
      </trkpt>
      <trkpt lat="48.98244" lon="2.05">
        <ele>113</ele>
        <time>2022-06-12T10:04:05Z</time>
      </trkpt>
      <trkpt lat="48.98242" lon="2.05009">
        <ele>112</ele>
        <time>2022-06-12T10:04:12Z</time>
      </trkpt>
      <trkpt lat="48.98235" lon="2.05018">
        <ele>111</ele>
        <time>2022-06-12T10:04:20Z</time>
      </trkpt>
      <trkpt lat="48.98231" lon="2.05033">
        <ele>109</ele>
        <time>2022-06-12T10:04:30Z</time>
      </trkpt>
      <trkpt lat="48.98219" lon="2.05082">
        <ele>104</ele>
        <time>2022-06-12T10:05:01Z</time>
      </trkpt>
      <trkpt lat="48.98208" lon="2.05131">
        <ele>100</ele>
        <time>2022-06-12T10:05:36Z</time>
      </trkpt>
      <trkpt lat="48.98205" lon="2.0514">
        <ele>99</ele>
        <time>2022-06-12T10:05:46Z</time>
      </trkpt>
      <trkpt lat="48.98204" lon="2.0515">
        <ele>99</ele>
        <time>2022-06-12T10:06:29Z</time>
      </trkpt>
      <trkpt lat="48.98203" lon="2.05157">
        <ele>99</ele>
        <time>2022-06-12T10:06:35Z</time>
      </trkpt>
      <trkpt lat="48.98202" lon="2.05165">
        <ele>99</ele>
        <time>2022-06-12T10:06:40Z</time>
      </trkpt>
      <trkpt lat="48.98195" lon="2.05207">
        <ele>97</ele>
        <time>2022-06-12T10:07:06Z</time>
      </trkpt>
      <trkpt lat="48.9819" lon="2.05221">
        <ele>97</ele>
        <time>2022-06-12T10:07:14Z</time>
      </trkpt>
      <trkpt lat="48.98182" lon="2.05251">
        <ele>95</ele>
        <time>2022-06-12T10:07:30Z</time>
      </trkpt>
      <trkpt lat="48.98178" lon="2.05256">
        <ele>95</ele>
        <time>2022-06-12T10:07:34Z</time>
      </trkpt>
      <trkpt lat="48.98173" lon="2.05257">
        <ele>95</ele>
        <time>2022-06-12T10:07:38Z</time>
      </trkpt>
      <trkpt lat="48.98169" lon="2.05255">
        <ele>95</ele>
        <time>2022-06-12T10:07:41Z</time>
      </trkpt>
      <trkpt lat="48.98164" lon="2.05256">
        <ele>95</ele>
        <time>2022-06-12T10:07:45Z</time>
      </trkpt>
      <trkpt lat="48.98159" lon="2.05252">
        <ele>95</ele>
        <time>2022-06-12T10:07:54Z</time>
      </trkpt>
      <trkpt lat="48.98152" lon="2.05258">
        <ele>95</ele>
        <time>2022-06-12T10:08:12Z</time>
      </trkpt>
      <trkpt lat="48.98143" lon="2.05275">
        <ele>93</ele>
        <time>2022-06-12T10:08:25Z</time>
      </trkpt>
      <trkpt lat="48.98138" lon="2.05288">
        <ele>92</ele>
        <time>2022-06-12T10:08:34Z</time>
      </trkpt>
      <trkpt lat="48.98114" lon="2.05335">
        <ele>86</ele>
        <time>2022-06-12T10:09:08Z</time>
      </trkpt>
      <trkpt lat="48.98105" lon="2.05353">
        <ele>84</ele>
        <time>2022-06-12T10:09:20Z</time>
      </trkpt>
      <trkpt lat="48.98097" lon="2.05362">
        <ele>83</ele>
        <time>2022-06-12T10:09:28Z</time>
      </trkpt>
      <trkpt lat="48.98087" lon="2.05387">
        <ele>81</ele>
        <time>2022-06-12T10:09:45Z</time>
      </trkpt>
      <trkpt lat="48.98082" lon="2.05408">
        <ele>79</ele>
        <time>2022-06-12T10:09:57Z</time>
      </trkpt>
      <trkpt lat="48.9808" lon="2.05415">
        <ele>78</ele>
        <time>2022-06-12T10:10:02Z</time>
      </trkpt>
      <trkpt lat="48.98077" lon="2.05429">
        <ele>77</ele>
        <time>2022-06-12T10:10:10Z</time>
      </trkpt>
      <trkpt lat="48.98069" lon="2.05449">
        <ele>75</ele>
        <time>2022-06-12T10:10:22Z</time>
      </trkpt>
      <trkpt lat="48.98057" lon="2.0549">
        <ele>70</ele>
        <time>2022-06-12T10:10:48Z</time>
      </trkpt>
      <trkpt lat="48.98056" lon="2.05502">
        <ele>69</ele>
        <time>2022-06-12T10:10:56Z</time>
      </trkpt>
      <trkpt lat="48.98054" lon="2.0551">
        <ele>68</ele>
        <time>2022-06-12T10:11:01Z</time>
      </trkpt>
      <trkpt lat="48.98048" lon="2.05523">
        <ele>66</ele>
        <time>2022-06-12T10:11:09Z</time>
      </trkpt>
      <trkpt lat="48.98047" lon="2.05531">
        <ele>65</ele>
        <time>2022-06-12T10:11:13Z</time>
      </trkpt>
      <trkpt lat="48.98042" lon="2.05538">
        <ele>64</ele>
        <time>2022-06-12T10:11:22Z</time>
      </trkpt>
      <trkpt lat="48.9804" lon="2.05545">
        <ele>64</ele>
        <time>2022-06-12T10:11:34Z</time>
      </trkpt>
      <trkpt lat="48.98044" lon="2.05554">
        <ele>64</ele>
        <time>2022-06-12T10:11:55Z</time>
      </trkpt>
      <trkpt lat="48.98055" lon="2.05567">
        <ele>64</ele>
        <time>2022-06-12T10:12:07Z</time>
      </trkpt>
      <trkpt lat="48.98063" lon="2.05574">
        <ele>64</ele>
        <time>2022-06-12T10:12:15Z</time>
      </trkpt>
      <trkpt lat="48.98068" lon="2.05575">
        <ele>64</ele>
        <time>2022-06-12T10:12:18Z</time>
      </trkpt>
      <trkpt lat="48.98072" lon="2.0558">
        <ele>64</ele>
        <time>2022-06-12T10:12:21Z</time>
      </trkpt>
      <trkpt lat="48.98075" lon="2.05585">
        <ele>64</ele>
        <time>2022-06-12T10:12:25Z</time>
      </trkpt>
      <trkpt lat="48.98078" lon="2.05591">
        <ele>64</ele>
        <time>2022-06-12T10:12:29Z</time>
      </trkpt>
      <trkpt lat="48.98082" lon="2.05597">
        <ele>64</ele>
        <time>2022-06-12T10:12:33Z</time>
      </trkpt>
      <trkpt lat="48.98087" lon="2.05599">
        <ele>64</ele>
        <time>2022-06-12T10:12:37Z</time>
      </trkpt>
      <trkpt lat="48.9809" lon="2.05604">
        <ele>64</ele>
        <time>2022-06-12T10:12:40Z</time>
      </trkpt>
      <trkpt lat="48.98103" lon="2.05613">
        <ele>64</ele>
        <time>2022-06-12T10:12:51Z</time>
      </trkpt>
      <trkpt lat="48.98112" lon="2.05617">
        <ele>64</ele>
        <time>2022-06-12T10:12:59Z</time>
      </trkpt>
      <trkpt lat="48.98117" lon="2.05619">
        <ele>64</ele>
        <time>2022-06-12T10:13:03Z</time>
      </trkpt>
      <trkpt lat="48.98121" lon="2.0562">
        <ele>64</ele>
        <time>2022-06-12T10:13:08Z</time>
      </trkpt>
      <trkpt lat="48.98146" lon="2.05635">
        <ele>64</ele>
        <time>2022-06-12T10:13:27Z</time>
      </trkpt>
      <trkpt lat="48.9815" lon="2.05639">
        <ele>64</ele>
        <time>2022-06-12T10:13:31Z</time>
      </trkpt>
      <trkpt lat="48.98178" lon="2.05652">
        <ele>64</ele>
        <time>2022-06-12T10:13:54Z</time>
      </trkpt>
      <trkpt lat="48.98182" lon="2.05657">
        <ele>64</ele>
        <time>2022-06-12T10:13:57Z</time>
      </trkpt>
      <trkpt lat="48.98187" lon="2.05659">
        <ele>64</ele>
        <time>2022-06-12T10:14:01Z</time>
      </trkpt>
      <trkpt lat="48.98198" lon="2.05662">
        <ele>64</ele>
        <time>2022-06-12T10:14:10Z</time>
      </trkpt>
      <trkpt lat="48.98202" lon="2.05665">
        <ele>64</ele>
        <time>2022-06-12T10:14:13Z</time>
      </trkpt>
      <trkpt lat="48.98207" lon="2.05666">
        <ele>64</ele>
        <time>2022-06-12T10:14:17Z</time>
      </trkpt>
      <trkpt lat="48.98211" lon="2.05668">
        <ele>64</ele>
        <time>2022-06-12T10:14:21Z</time>
      </trkpt>
      <trkpt lat="48.98216" lon="2.05672">
        <ele>64</ele>
        <time>2022-06-12T10:14:25Z</time>
      </trkpt>
      <trkpt lat="48.9822" lon="2.05673">
        <ele>64</ele>
        <time>2022-06-12T10:14:29Z</time>
      </trkpt>
      <trkpt lat="48.98226" lon="2.05676">
        <ele>63</ele>
        <time>2022-06-12T10:14:33Z</time>
      </trkpt>
      <trkpt lat="48.98231" lon="2.05678">
        <ele>63</ele>
        <time>2022-06-12T10:14:37Z</time>
      </trkpt>
      <trkpt lat="48.98253" lon="2.05692">
        <ele>62</ele>
        <time>2022-06-12T10:14:55Z</time>
      </trkpt>
      <trkpt lat="48.98264" lon="2.05694">
        <ele>61</ele>
        <time>2022-06-12T10:15:05Z</time>
      </trkpt>
      <trkpt lat="48.98272" lon="2.05705">
        <ele>60</ele>
        <time>2022-06-12T10:15:12Z</time>
      </trkpt>
      <trkpt lat="48.98274" lon="2.05713">
        <ele>59</ele>
        <time>2022-06-12T10:15:15Z</time>
      </trkpt>
      <trkpt lat="48.98273" lon="2.05722">
        <ele>59</ele>
        <time>2022-06-12T10:15:18Z</time>
      </trkpt>
      <trkpt lat="48.98274" lon="2.05735">
        <ele>58</ele>
        <time>2022-06-12T10:15:24Z</time>
      </trkpt>
      <trkpt lat="48.98274" lon="2.05744">
        <ele>58</ele>
        <time>2022-06-12T10:15:28Z</time>
      </trkpt>
      <trkpt lat="48.98269" lon="2.05765">
        <ele>57</ele>
        <time>2022-06-12T10:15:39Z</time>
      </trkpt>
      <trkpt lat="48.98267" lon="2.05781">
        <ele>56</ele>
        <time>2022-06-12T10:15:47Z</time>
      </trkpt>
      <trkpt lat="48.98268" lon="2.05791">
        <ele>56</ele>
        <time>2022-06-12T10:15:56Z</time>
      </trkpt>
      <trkpt lat="48.98262" lon="2.05793">
        <ele>56</ele>
        <time>2022-06-12T10:16:17Z</time>
      </trkpt>
      <trkpt lat="48.98257" lon="2.05792">
        <ele>55</ele>
        <time>2022-06-12T10:16:21Z</time>
      </trkpt>
      <trkpt lat="48.98252" lon="2.05791">
        <ele>55</ele>
        <time>2022-06-12T10:16:25Z</time>
      </trkpt>
      <trkpt lat="48.98213" lon="2.05772">
        <ele>57</ele>
        <time>2022-06-12T10:16:55Z</time>
      </trkpt>
      <trkpt lat="48.9819" lon="2.05758">
        <ele>57</ele>
        <time>2022-06-12T10:17:15Z</time>
      </trkpt>
      <trkpt lat="48.98155" lon="2.05729">
        <ele>56</ele>
        <time>2022-06-12T10:17:47Z</time>
      </trkpt>
      <trkpt lat="48.98122" lon="2.05708">
        <ele>55</ele>
        <time>2022-06-12T10:18:20Z</time>
      </trkpt>
      <trkpt lat="48.98118" lon="2.05705">
        <ele>55</ele>
        <time>2022-06-12T10:18:24Z</time>
      </trkpt>
      <trkpt lat="48.98105" lon="2.05695">
        <ele>54</ele>
        <time>2022-06-12T10:18:35Z</time>
      </trkpt>
      <trkpt lat="48.98089" lon="2.0568">
        <ele>52</ele>
        <time>2022-06-12T10:18:51Z</time>
      </trkpt>
      <trkpt lat="48.98084" lon="2.05677">
        <ele>52</ele>
        <time>2022-06-12T10:18:55Z</time>
      </trkpt>
      <trkpt lat="48.9805" lon="2.05651">
        <ele>48</ele>
        <time>2022-06-12T10:19:28Z</time>
      </trkpt>
      <trkpt lat="48.98037" lon="2.05647">
        <ele>45</ele>
        <time>2022-06-12T10:19:46Z</time>
      </trkpt>
      <trkpt lat="48.98041" lon="2.05651">
        <ele>44</ele>
        <time>2022-06-12T10:20:03Z</time>
      </trkpt>
      <trkpt lat="48.98048" lon="2.05662">
        <ele>42</ele>
        <time>2022-06-12T10:20:13Z</time>
      </trkpt>
      <trkpt lat="48.9805" lon="2.05678">
        <ele>40</ele>
        <time>2022-06-12T10:20:22Z</time>
      </trkpt>
      <trkpt lat="48.98049" lon="2.05687">
        <ele>39</ele>
        <time>2022-06-12T10:20:27Z</time>
      </trkpt>
      <trkpt lat="48.98048" lon="2.05694">
        <ele>39</ele>
        <time>2022-06-12T10:20:32Z</time>
      </trkpt>
      <trkpt lat="48.98041" lon="2.05708">
        <ele>37</ele>
        <time>2022-06-12T10:20:41Z</time>
      </trkpt>
      <trkpt lat="48.98033" lon="2.05719">
        <ele>36</ele>
        <time>2022-06-12T10:20:50Z</time>
      </trkpt>
      <trkpt lat="48.9803" lon="2.05725">
        <ele>35</ele>
        <time>2022-06-12T10:20:54Z</time>
      </trkpt>
      <trkpt lat="48.98029" lon="2.05733">
        <ele>35</ele>
        <time>2022-06-12T10:20:59Z</time>
      </trkpt>
      <trkpt lat="48.98026" lon="2.05741">
        <ele>34</ele>
        <time>2022-06-12T10:21:04Z</time>
      </trkpt>
      <trkpt lat="48.98026" lon="2.05752">
        <ele>34</ele>
        <time>2022-06-12T10:21:09Z</time>
      </trkpt>
      <trkpt lat="48.98024" lon="2.05758">
        <ele>33</ele>
        <time>2022-06-12T10:21:14Z</time>
      </trkpt>
      <trkpt lat="48.98018" lon="2.0576">
        <ele>33</ele>
        <time>2022-06-12T10:21:19Z</time>
      </trkpt>
      <trkpt lat="48.98015" lon="2.05766">
        <ele>33</ele>
        <time>2022-06-12T10:21:23Z</time>
      </trkpt>
      <trkpt lat="48.98007" lon="2.05797">
        <ele>31</ele>
        <time>2022-06-12T10:21:41Z</time>
      </trkpt>
      <trkpt lat="48.98007" lon="2.05804">
        <ele>30</ele>
        <time>2022-06-12T10:21:45Z</time>
      </trkpt>
      <trkpt lat="48.98021" lon="2.05839">
        <ele>28</ele>
        <time>2022-06-12T10:22:07Z</time>
      </trkpt>
      <trkpt lat="48.98024" lon="2.05844">
        <ele>27</ele>
        <time>2022-06-12T10:22:15Z</time>
      </trkpt>
      <trkpt lat="48.98023" lon="2.05852">
        <ele>27</ele>
        <time>2022-06-12T10:22:20Z</time>
      </trkpt>
      <trkpt lat="48.98019" lon="2.05858">
        <ele>27</ele>
        <time>2022-06-12T10:22:24Z</time>
      </trkpt>
      <trkpt lat="48.98016" lon="2.05863">
        <ele>26</ele>
        <time>2022-06-12T10:22:32Z</time>
      </trkpt>
      <trkpt lat="48.98018" lon="2.05872">
        <ele>26</ele>
        <time>2022-06-12T10:22:37Z</time>
      </trkpt>
      <trkpt lat="48.98011" lon="2.05885">
        <ele>25</ele>
        <time>2022-06-12T10:22:46Z</time>
      </trkpt>
      <trkpt lat="48.98005" lon="2.05895">
        <ele>24</ele>
        <time>2022-06-12T10:22:55Z</time>
      </trkpt>
      <trkpt lat="48.97997" lon="2.0591">
        <ele>24</ele>
        <time>2022-06-12T10:23:04Z</time>
      </trkpt>
      <trkpt lat="48.97993" lon="2.05916">
        <ele>23</ele>
        <time>2022-06-12T10:23:08Z</time>
      </trkpt>
      <trkpt lat="48.97988" lon="2.05918">
        <ele>23</ele>
        <time>2022-06-12T10:23:13Z</time>
      </trkpt>
      <trkpt lat="48.97981" lon="2.05916">
        <ele>23</ele>
        <time>2022-06-12T10:23:22Z</time>
      </trkpt>
      <trkpt lat="48.97979" lon="2.05927">
        <ele>23</ele>
        <time>2022-06-12T10:23:39Z</time>
      </trkpt>
      <trkpt lat="48.97969" lon="2.05923">
        <ele>23</ele>
        <time>2022-06-12T10:23:46Z</time>
      </trkpt>
      <trkpt lat="48.97955" lon="2.05908">
        <ele>23</ele>
        <time>2022-06-12T10:24:28Z</time>
      </trkpt>
      <trkpt lat="48.97943" lon="2.05906">
        <ele>23</ele>
        <time>2022-06-12T10:24:40Z</time>
      </trkpt>
      <trkpt lat="48.9794" lon="2.05903">
        <ele>23</ele>
        <time>2022-06-12T10:24:43Z</time>
      </trkpt>
      <trkpt lat="48.97935" lon="2.05902">
        <ele>23</ele>
        <time>2022-06-12T10:24:47Z</time>
      </trkpt>
      <trkpt lat="48.97928" lon="2.05899">
        <ele>23</ele>
        <time>2022-06-12T10:24:53Z</time>
      </trkpt>
      <trkpt lat="48.97924" lon="2.05894">
        <ele>23</ele>
        <time>2022-06-12T10:24:58Z</time>
      </trkpt>
      <trkpt lat="48.97918" lon="2.05884">
        <ele>23</ele>
        <time>2022-06-12T10:25:06Z</time>
      </trkpt>
      <trkpt lat="48.97916" lon="2.05875">
        <ele>23</ele>
        <time>2022-06-12T10:25:09Z</time>
      </trkpt>
      <trkpt lat="48.97915" lon="2.05868">
        <ele>23</ele>
        <time>2022-06-12T10:25:13Z</time>
      </trkpt>
      <trkpt lat="48.97911" lon="2.05864">
        <ele>23</ele>
        <time>2022-06-12T10:25:18Z</time>
      </trkpt>
      <trkpt lat="48.97906" lon="2.05857">
        <ele>23</ele>
        <time>2022-06-12T10:25:25Z</time>
      </trkpt>
      <trkpt lat="48.97887" lon="2.05845">
        <ele>23</ele>
        <time>2022-06-12T10:25:41Z</time>
      </trkpt>
      <trkpt lat="48.97883" lon="2.05837">
        <ele>23</ele>
        <time>2022-06-12T10:25:49Z</time>
      </trkpt>
      <trkpt lat="48.97883" lon="2.0583">
        <ele>22</ele>
        <time>2022-06-12T10:25:54Z</time>
      </trkpt>
      <trkpt lat="48.97882" lon="2.05823">
        <ele>22</ele>
        <time>2022-06-12T10:26:07Z</time>
      </trkpt>
      <trkpt lat="48.97879" lon="2.05807">
        <ele>23</ele>
        <time>2022-06-12T10:26:25Z</time>
      </trkpt>
      <trkpt lat="48.9787" lon="2.05787">
        <ele>22</ele>
        <time>2022-06-12T10:26:31Z</time>
      </trkpt>
      <trkpt lat="48.97866" lon="2.05795">
        <ele>23</ele>
        <time>2022-06-12T10:26:33Z</time>
      </trkpt>
      <trkpt lat="48.97864" lon="2.058">
        <ele>23</ele>
        <time>2022-06-12T10:26:35Z</time>
      </trkpt>
      <trkpt lat="48.97864" lon="2.05811">
        <ele>22</ele>
        <time>2022-06-12T10:26:46Z</time>
      </trkpt>
      <trkpt lat="48.97869" lon="2.05816">
        <ele>22</ele>
        <time>2022-06-12T10:26:52Z</time>
      </trkpt>
      <trkpt lat="48.97881" lon="2.05831">
        <ele>22</ele>
        <time>2022-06-12T10:27:04Z</time>
      </trkpt>
      <trkpt lat="48.97888" lon="2.05836">
        <ele>22</ele>
        <time>2022-06-12T10:27:10Z</time>
      </trkpt>
      <trkpt lat="48.97892" lon="2.0584">
        <ele>22</ele>
        <time>2022-06-12T10:27:13Z</time>
      </trkpt>
      <trkpt lat="48.97894" lon="2.05845">
        <ele>22</ele>
        <time>2022-06-12T10:27:17Z</time>
      </trkpt>
      <trkpt lat="48.97899" lon="2.05848">
        <ele>22</ele>
        <time>2022-06-12T10:27:21Z</time>
      </trkpt>
      <trkpt lat="48.97903" lon="2.05855">
        <ele>22</ele>
        <time>2022-06-12T10:27:25Z</time>
      </trkpt>
      <trkpt lat="48.97935" lon="2.05893">
        <ele>21</ele>
        <time>2022-06-12T10:27:58Z</time>
      </trkpt>
      <trkpt lat="48.97944" lon="2.05905">
        <ele>21</ele>
        <time>2022-06-12T10:28:08Z</time>
      </trkpt>
      <trkpt lat="48.97953" lon="2.05911">
        <ele>22</ele>
        <time>2022-06-12T10:28:15Z</time>
      </trkpt>
      <trkpt lat="48.97961" lon="2.05918">
        <ele>22</ele>
        <time>2022-06-12T10:28:23Z</time>
      </trkpt>
      <trkpt lat="48.97966" lon="2.05923">
        <ele>22</ele>
        <time>2022-06-12T10:28:27Z</time>
      </trkpt>
      <trkpt lat="48.97978" lon="2.0594">
        <ele>22</ele>
        <time>2022-06-12T10:28:40Z</time>
      </trkpt>
      <trkpt lat="48.97982" lon="2.05944">
        <ele>22</ele>
        <time>2022-06-12T10:28:45Z</time>
      </trkpt>
      <trkpt lat="48.97986" lon="2.05948">
        <ele>22</ele>
        <time>2022-06-12T10:28:49Z</time>
      </trkpt>
      <trkpt lat="48.97995" lon="2.05959">
        <ele>22</ele>
        <time>2022-06-12T10:28:57Z</time>
      </trkpt>
      <trkpt lat="48.97999" lon="2.05963">
        <ele>22</ele>
        <time>2022-06-12T10:29:00Z</time>
      </trkpt>
      <trkpt lat="48.98017" lon="2.05981">
        <ele>22</ele>
        <time>2022-06-12T10:29:17Z</time>
      </trkpt>
      <trkpt lat="48.98021" lon="2.05987">
        <ele>22</ele>
        <time>2022-06-12T10:29:21Z</time>
      </trkpt>
      <trkpt lat="48.98053" lon="2.06019">
        <ele>21</ele>
        <time>2022-06-12T10:29:51Z</time>
      </trkpt>
      <trkpt lat="48.98087" lon="2.06049">
        <ele>21</ele>
        <time>2022-06-12T10:30:23Z</time>
      </trkpt>
      <trkpt lat="48.98113" lon="2.06073">
        <ele>22</ele>
        <time>2022-06-12T10:30:47Z</time>
      </trkpt>
      <trkpt lat="48.9812" lon="2.06083">
        <ele>21</ele>
        <time>2022-06-12T10:30:55Z</time>
      </trkpt>
      <trkpt lat="48.98124" lon="2.06086">
        <ele>21</ele>
        <time>2022-06-12T10:31:00Z</time>
      </trkpt>
      <trkpt lat="48.98129" lon="2.06084">
        <ele>21</ele>
        <time>2022-06-12T10:31:12Z</time>
      </trkpt>
      <trkpt lat="48.98134" lon="2.06087">
        <ele>21</ele>
        <time>2022-06-12T10:31:32Z</time>
      </trkpt>
      <trkpt lat="48.98131" lon="2.06094">
        <ele>22</ele>
        <time>2022-06-12T10:31:48Z</time>
      </trkpt>
      <trkpt lat="48.98131" lon="2.06099">
        <ele>22</ele>
        <time>2022-06-12T10:33:22Z</time>
      </trkpt>
      <trkpt lat="48.98144" lon="2.06114">
        <ele>22</ele>
        <time>2022-06-12T10:33:53Z</time>
      </trkpt>
      <trkpt lat="48.98146" lon="2.06119">
        <ele>21</ele>
        <time>2022-06-12T10:33:57Z</time>
      </trkpt>
      <trkpt lat="48.98145" lon="2.06127">
        <ele>20</ele>
        <time>2022-06-12T10:34:01Z</time>
      </trkpt>
      <trkpt lat="48.9814" lon="2.06127">
        <ele>20</ele>
        <time>2022-06-12T10:34:06Z</time>
      </trkpt>
      <trkpt lat="48.98141" lon="2.06135">
        <ele>20</ele>
        <time>2022-06-12T10:34:37Z</time>
      </trkpt>
      <trkpt lat="48.98136" lon="2.06137">
        <ele>20</ele>
        <time>2022-06-12T10:34:57Z</time>
      </trkpt>
      <trkpt lat="48.98136" lon="2.06144">
        <ele>20</ele>
        <time>2022-06-12T10:35:02Z</time>
      </trkpt>
      <trkpt lat="48.98134" lon="2.06152">
        <ele>20</ele>
        <time>2022-06-12T10:35:06Z</time>
      </trkpt>
      <trkpt lat="48.98131" lon="2.06156">
        <ele>20</ele>
        <time>2022-06-12T10:35:09Z</time>
      </trkpt>
      <trkpt lat="48.98121" lon="2.06163">
        <ele>20</ele>
        <time>2022-06-12T10:35:17Z</time>
      </trkpt>
      <trkpt lat="48.98118" lon="2.0617">
        <ele>19</ele>
        <time>2022-06-12T10:35:21Z</time>
      </trkpt>
      <trkpt lat="48.98114" lon="2.06195">
        <ele>19</ele>
        <time>2022-06-12T10:35:32Z</time>
      </trkpt>
      <trkpt lat="48.98116" lon="2.06209">
        <ele>19</ele>
        <time>2022-06-12T10:35:41Z</time>
      </trkpt>
      <trkpt lat="48.98118" lon="2.06215">
        <ele>19</ele>
        <time>2022-06-12T10:35:47Z</time>
      </trkpt>
      <trkpt lat="48.98122" lon="2.06225">
        <ele>19</ele>
        <time>2022-06-12T10:35:57Z</time>
      </trkpt>
      <trkpt lat="48.98121" lon="2.06241">
        <ele>20</ele>
        <time>2022-06-12T10:36:47Z</time>
      </trkpt>
      <trkpt lat="48.98118" lon="2.06247">
        <ele>20</ele>
        <time>2022-06-12T10:36:58Z</time>
      </trkpt>
      <trkpt lat="48.98118" lon="2.06249">
        <ele>20</ele>
        <time>2022-06-12T10:37:36Z</time>
      </trkpt>
      <trkpt lat="48.98119" lon="2.06253">
        <ele>20</ele>
        <time>2022-06-12T10:39:49Z</time>
      </trkpt>
      <trkpt lat="48.98115" lon="2.06256">
        <ele>21</ele>
        <time>2022-06-12T10:43:31Z</time>
      </trkpt>
      <trkpt lat="48.98121" lon="2.06259">
        <ele>21</ele>
        <time>2022-06-12T10:43:48Z</time>
      </trkpt>
      <trkpt lat="48.98129" lon="2.06263">
        <ele>21</ele>
        <time>2022-06-12T10:43:59Z</time>
      </trkpt>
      <trkpt lat="48.98138" lon="2.06263">
        <ele>21</ele>
        <time>2022-06-12T10:44:12Z</time>
      </trkpt>
      <trkpt lat="48.98152" lon="2.06276">
        <ele>22</ele>
        <time>2022-06-12T10:44:27Z</time>
      </trkpt>
      <trkpt lat="48.98155" lon="2.06281">
        <ele>22</ele>
        <time>2022-06-12T10:44:31Z</time>
      </trkpt>
      <trkpt lat="48.98164" lon="2.06288">
        <ele>22</ele>
        <time>2022-06-12T10:44:41Z</time>
      </trkpt>
      <trkpt lat="48.98169" lon="2.0629">
        <ele>22</ele>
        <time>2022-06-12T10:44:45Z</time>
      </trkpt>
      <trkpt lat="48.98178" lon="2.06296">
        <ele>21</ele>
        <time>2022-06-12T10:44:52Z</time>
      </trkpt>
      <trkpt lat="48.98184" lon="2.06299">
        <ele>21</ele>
        <time>2022-06-12T10:44:56Z</time>
      </trkpt>
      <trkpt lat="48.98187" lon="2.06303">
        <ele>21</ele>
        <time>2022-06-12T10:44:59Z</time>
      </trkpt>
      <trkpt lat="48.982" lon="2.06318">
        <ele>22</ele>
        <time>2022-06-12T10:45:12Z</time>
      </trkpt>
      <trkpt lat="48.98202" lon="2.06323">
        <ele>21</ele>
        <time>2022-06-12T10:45:16Z</time>
      </trkpt>
      <trkpt lat="48.98222" lon="2.06353">
        <ele>21</ele>
        <time>2022-06-12T10:45:39Z</time>
      </trkpt>
      <trkpt lat="48.98236" lon="2.06362">
        <ele>21</ele>
        <time>2022-06-12T10:45:55Z</time>
      </trkpt>
      <trkpt lat="48.98241" lon="2.06368">
        <ele>20</ele>
        <time>2022-06-12T10:46:00Z</time>
      </trkpt>
      <trkpt lat="48.98247" lon="2.0638">
        <ele>20</ele>
        <time>2022-06-12T10:46:09Z</time>
      </trkpt>
      <trkpt lat="48.98263" lon="2.06389">
        <ele>20</ele>
        <time>2022-06-12T10:46:23Z</time>
      </trkpt>
      <trkpt lat="48.98269" lon="2.06388">
        <ele>21</ele>
        <time>2022-06-12T10:46:28Z</time>
      </trkpt>
      <trkpt lat="48.98274" lon="2.0639">
        <ele>21</ele>
        <time>2022-06-12T10:46:33Z</time>
      </trkpt>
      <trkpt lat="48.98291" lon="2.06407">
        <ele>20</ele>
        <time>2022-06-12T10:46:55Z</time>
      </trkpt>
      <trkpt lat="48.98293" lon="2.06414">
        <ele>20</ele>
        <time>2022-06-12T10:46:59Z</time>
      </trkpt>
      <trkpt lat="48.98301" lon="2.06424">
        <ele>21</ele>
        <time>2022-06-12T10:47:06Z</time>
      </trkpt>
      <trkpt lat="48.98311" lon="2.06444">
        <ele>20</ele>
        <time>2022-06-12T10:47:19Z</time>
      </trkpt>
      <trkpt lat="48.98314" lon="2.06459">
        <ele>20</ele>
        <time>2022-06-12T10:47:26Z</time>
      </trkpt>
      <trkpt lat="48.98317" lon="2.06466">
        <ele>20</ele>
        <time>2022-06-12T10:47:30Z</time>
      </trkpt>
      <trkpt lat="48.98319" lon="2.06472">
        <ele>20</ele>
        <time>2022-06-12T10:47:33Z</time>
      </trkpt>
      <trkpt lat="48.98337" lon="2.06499">
        <ele>20</ele>
        <time>2022-06-12T10:47:56Z</time>
      </trkpt>
      <trkpt lat="48.98346" lon="2.06516">
        <ele>20</ele>
        <time>2022-06-12T10:48:13Z</time>
      </trkpt>
      <trkpt lat="48.98346" lon="2.06523">
        <ele>20</ele>
        <time>2022-06-12T10:48:21Z</time>
      </trkpt>
      <trkpt lat="48.98347" lon="2.06539">
        <ele>20</ele>
        <time>2022-06-12T10:48:30Z</time>
      </trkpt>
      <trkpt lat="48.98346" lon="2.06546">
        <ele>20</ele>
        <time>2022-06-12T10:48:35Z</time>
      </trkpt>
      <trkpt lat="48.98341" lon="2.0656">
        <ele>20</ele>
        <time>2022-06-12T10:48:44Z</time>
      </trkpt>
      <trkpt lat="48.98337" lon="2.06564">
        <ele>20</ele>
        <time>2022-06-12T10:48:47Z</time>
      </trkpt>
      <trkpt lat="48.98336" lon="2.06573">
        <ele>21</ele>
        <time>2022-06-12T10:49:01Z</time>
      </trkpt>
      <trkpt lat="48.98335" lon="2.0658">
        <ele>21</ele>
        <time>2022-06-12T10:49:05Z</time>
      </trkpt>
      <trkpt lat="48.98329" lon="2.06583">
        <ele>21</ele>
        <time>2022-06-12T10:49:18Z</time>
      </trkpt>
      <trkpt lat="48.98321" lon="2.0659">
        <ele>21</ele>
        <time>2022-06-12T10:49:27Z</time>
      </trkpt>
      <trkpt lat="48.98315" lon="2.06591">
        <ele>21</ele>
        <time>2022-06-12T10:49:32Z</time>
      </trkpt>
      <trkpt lat="48.98321" lon="2.06601">
        <ele>21</ele>
        <time>2022-06-12T10:49:51Z</time>
      </trkpt>
      <trkpt lat="48.98331" lon="2.06604">
        <ele>21</ele>
        <time>2022-06-12T10:50:01Z</time>
      </trkpt>
      <trkpt lat="48.98333" lon="2.0661">
        <ele>21</ele>
        <time>2022-06-12T10:50:05Z</time>
      </trkpt>
      <trkpt lat="48.98344" lon="2.06624">
        <ele>21</ele>
        <time>2022-06-12T10:50:17Z</time>
      </trkpt>
      <trkpt lat="48.98348" lon="2.06628">
        <ele>21</ele>
        <time>2022-06-12T10:50:22Z</time>
      </trkpt>
      <trkpt lat="48.98352" lon="2.06633">
        <ele>21</ele>
        <time>2022-06-12T10:50:28Z</time>
      </trkpt>
      <trkpt lat="48.98357" lon="2.06634">
        <ele>21</ele>
        <time>2022-06-12T10:50:33Z</time>
      </trkpt>
      <trkpt lat="48.98362" lon="2.0663">
        <ele>21</ele>
        <time>2022-06-12T10:50:40Z</time>
      </trkpt>
      <trkpt lat="48.98363" lon="2.0662">
        <ele>21</ele>
        <time>2022-06-12T10:51:03Z</time>
      </trkpt>
      <trkpt lat="48.98356" lon="2.06613">
        <ele>21</ele>
        <time>2022-06-12T10:51:15Z</time>
      </trkpt>
      <trkpt lat="48.9835" lon="2.0661">
        <ele>21</ele>
        <time>2022-06-12T10:51:23Z</time>
      </trkpt>
      <trkpt lat="48.98336" lon="2.06599">
        <ele>22</ele>
        <time>2022-06-12T10:51:35Z</time>
      </trkpt>
      <trkpt lat="48.98325" lon="2.06587">
        <ele>22</ele>
        <time>2022-06-12T10:51:56Z</time>
      </trkpt>
      <trkpt lat="48.9832" lon="2.06588">
        <ele>22</ele>
        <time>2022-06-12T10:52:01Z</time>
      </trkpt>
      <trkpt lat="48.98315" lon="2.06596">
        <ele>22</ele>
        <time>2022-06-12T10:52:09Z</time>
      </trkpt>
      <trkpt lat="48.98308" lon="2.06594">
        <ele>22</ele>
        <time>2022-06-12T10:52:14Z</time>
      </trkpt>
      <trkpt lat="48.98298" lon="2.06587">
        <ele>22</ele>
        <time>2022-06-12T10:52:21Z</time>
      </trkpt>
      <trkpt lat="48.98291" lon="2.06574">
        <ele>22</ele>
        <time>2022-06-12T10:52:28Z</time>
      </trkpt>
      <trkpt lat="48.98287" lon="2.06571">
        <ele>22</ele>
        <time>2022-06-12T10:52:33Z</time>
      </trkpt>
      <trkpt lat="48.9828" lon="2.06561">
        <ele>21</ele>
        <time>2022-06-12T10:52:41Z</time>
      </trkpt>
      <trkpt lat="48.9827" lon="2.06555">
        <ele>21</ele>
        <time>2022-06-12T10:52:51Z</time>
      </trkpt>
      <trkpt lat="48.98261" lon="2.06546">
        <ele>21</ele>
        <time>2022-06-12T10:53:00Z</time>
      </trkpt>
      <trkpt lat="48.98259" lon="2.06536">
        <ele>21</ele>
        <time>2022-06-12T10:53:05Z</time>
      </trkpt>
      <trkpt lat="48.98259" lon="2.06529">
        <ele>21</ele>
        <time>2022-06-12T10:53:08Z</time>
      </trkpt>
      <trkpt lat="48.98251" lon="2.06501">
        <ele>21</ele>
        <time>2022-06-12T10:53:26Z</time>
      </trkpt>
      <trkpt lat="48.98249" lon="2.06486">
        <ele>21</ele>
        <time>2022-06-12T10:53:39Z</time>
      </trkpt>
      <trkpt lat="48.9824" lon="2.06463">
        <ele>21</ele>
        <time>2022-06-12T10:54:02Z</time>
      </trkpt>
      <trkpt lat="48.98237" lon="2.06458">
        <ele>21</ele>
        <time>2022-06-12T10:54:06Z</time>
      </trkpt>
      <trkpt lat="48.98239" lon="2.06462">
        <ele>21</ele>
        <time>2022-06-12T10:54:27Z</time>
      </trkpt>
      <trkpt lat="48.98229" lon="2.06476">
        <ele>21</ele>
        <time>2022-06-12T10:54:40Z</time>
      </trkpt>
      <trkpt lat="48.98224" lon="2.0648">
        <ele>21</ele>
        <time>2022-06-12T10:54:48Z</time>
      </trkpt>
      <trkpt lat="48.98212" lon="2.06482">
        <ele>22</ele>
        <time>2022-06-12T10:54:57Z</time>
      </trkpt>
      <trkpt lat="48.98199" lon="2.06473">
        <ele>22</ele>
        <time>2022-06-12T10:55:08Z</time>
      </trkpt>
      <trkpt lat="48.98193" lon="2.06465">
        <ele>21</ele>
        <time>2022-06-12T10:55:19Z</time>
      </trkpt>
      <trkpt lat="48.98179" lon="2.0645">
        <ele>22</ele>
        <time>2022-06-12T10:55:36Z</time>
      </trkpt>
      <trkpt lat="48.98174" lon="2.06445">
        <ele>21</ele>
        <time>2022-06-12T10:55:42Z</time>
      </trkpt>
      <trkpt lat="48.98168" lon="2.06443">
        <ele>21</ele>
        <time>2022-06-12T10:55:47Z</time>
      </trkpt>
      <trkpt lat="48.98162" lon="2.06435">
        <ele>21</ele>
        <time>2022-06-12T10:55:53Z</time>
      </trkpt>
      <trkpt lat="48.98158" lon="2.06421">
        <ele>21</ele>
        <time>2022-06-12T10:56:01Z</time>
      </trkpt>
      <trkpt lat="48.98155" lon="2.06414">
        <ele>21</ele>
        <time>2022-06-12T10:56:05Z</time>
      </trkpt>
      <trkpt lat="48.9814" lon="2.06398">
        <ele>21</ele>
        <time>2022-06-12T10:56:23Z</time>
      </trkpt>
      <trkpt lat="48.98135" lon="2.06376">
        <ele>21</ele>
        <time>2022-06-12T10:56:37Z</time>
      </trkpt>
      <trkpt lat="48.98135" lon="2.0637">
        <ele>21</ele>
        <time>2022-06-12T10:56:42Z</time>
      </trkpt>
      <trkpt lat="48.98134" lon="2.0636">
        <ele>22</ele>
        <time>2022-06-12T10:56:55Z</time>
      </trkpt>
      <trkpt lat="48.98137" lon="2.06352">
        <ele>21</ele>
        <time>2022-06-12T10:57:00Z</time>
      </trkpt>
      <trkpt lat="48.98134" lon="2.06344">
        <ele>21</ele>
        <time>2022-06-12T10:57:25Z</time>
      </trkpt>
      <trkpt lat="48.98133" lon="2.06331">
        <ele>21</ele>
        <time>2022-06-12T10:57:37Z</time>
      </trkpt>
      <trkpt lat="48.98133" lon="2.06321">
        <ele>21</ele>
        <time>2022-06-12T10:57:41Z</time>
      </trkpt>
      <trkpt lat="48.98135" lon="2.06312">
        <ele>21</ele>
        <time>2022-06-12T10:57:47Z</time>
      </trkpt>
      <trkpt lat="48.98135" lon="2.06305">
        <ele>21</ele>
        <time>2022-06-12T10:57:52Z</time>
      </trkpt>
      <trkpt lat="48.98131" lon="2.06297">
        <ele>22</ele>
        <time>2022-06-12T10:58:02Z</time>
      </trkpt>
      <trkpt lat="48.98122" lon="2.06289">
        <ele>22</ele>
        <time>2022-06-12T10:58:14Z</time>
      </trkpt>
      <trkpt lat="48.98117" lon="2.06281">
        <ele>21</ele>
        <time>2022-06-12T10:58:23Z</time>
      </trkpt>
      <trkpt lat="48.98102" lon="2.06297">
        <ele>22</ele>
        <time>2022-06-12T10:58:46Z</time>
      </trkpt>
      <trkpt lat="48.98091" lon="2.063">
        <ele>21</ele>
        <time>2022-06-12T10:59:00Z</time>
      </trkpt>
      <trkpt lat="48.98072" lon="2.06283">
        <ele>21</ele>
        <time>2022-06-12T10:59:31Z</time>
      </trkpt>
      <trkpt lat="48.9807" lon="2.06278">
        <ele>21</ele>
        <time>2022-06-12T10:59:35Z</time>
      </trkpt>
      <trkpt lat="48.98068" lon="2.0627">
        <ele>22</ele>
        <time>2022-06-12T10:59:39Z</time>
      </trkpt>
      <trkpt lat="48.98069" lon="2.06263">
        <ele>22</ele>
        <time>2022-06-12T10:59:44Z</time>
      </trkpt>
      <trkpt lat="48.98066" lon="2.06254">
        <ele>22</ele>
        <time>2022-06-12T10:59:52Z</time>
      </trkpt>
      <trkpt lat="48.98074" lon="2.06245">
        <ele>22</ele>
        <time>2022-06-12T11:00:20Z</time>
      </trkpt>
      <trkpt lat="48.98071" lon="2.06248">
        <ele>21</ele>
        <time>2022-06-12T11:01:11Z</time>
      </trkpt>
      <trkpt lat="48.98072" lon="2.06255">
        <ele>22</ele>
        <time>2022-06-12T12:12:14Z</time>
      </trkpt>
      <trkpt lat="48.98072" lon="2.06255">
        <ele>22</ele>
        <time>2022-06-12T12:12:15Z</time>
      </trkpt>
      <trkpt lat="48.98133" lon="2.06094">
        <ele>22</ele>
        <time>2022-06-12T12:27:46Z</time>
      </trkpt>
      <trkpt lat="48.98133" lon="2.06094">
        <ele>22</ele>
        <time>2022-06-12T12:27:47Z</time>
      </trkpt>
      <trkpt lat="48.98143" lon="2.06102">
        <ele>22</ele>
        <time>2022-06-12T12:28:01Z</time>
      </trkpt>
      <trkpt lat="48.98148" lon="2.06107">
        <ele>22</ele>
        <time>2022-06-12T12:28:07Z</time>
      </trkpt>
      <trkpt lat="48.98154" lon="2.06116">
        <ele>22</ele>
        <time>2022-06-12T12:28:15Z</time>
      </trkpt>
      <trkpt lat="48.98161" lon="2.06122">
        <ele>22</ele>
        <time>2022-06-12T12:28:23Z</time>
      </trkpt>
      <trkpt lat="48.98175" lon="2.06133">
        <ele>22</ele>
        <time>2022-06-12T12:28:35Z</time>
      </trkpt>
      <trkpt lat="48.98183" lon="2.06142">
        <ele>22</ele>
        <time>2022-06-12T12:28:43Z</time>
      </trkpt>
      <trkpt lat="48.98195" lon="2.06152">
        <ele>22</ele>
        <time>2022-06-12T12:28:55Z</time>
      </trkpt>
      <trkpt lat="48.982" lon="2.06152">
        <ele>22</ele>
        <time>2022-06-12T12:29:00Z</time>
      </trkpt>
      <trkpt lat="48.98207" lon="2.06158">
        <ele>21</ele>
        <time>2022-06-12T12:29:17Z</time>
      </trkpt>
      <trkpt lat="48.98221" lon="2.06168">
        <ele>22</ele>
        <time>2022-06-12T12:29:30Z</time>
      </trkpt>
      <trkpt lat="48.98225" lon="2.0617">
        <ele>22</ele>
        <time>2022-06-12T12:29:34Z</time>
      </trkpt>
      <trkpt lat="48.98254" lon="2.06196">
        <ele>22</ele>
        <time>2022-06-12T12:30:05Z</time>
      </trkpt>
      <trkpt lat="48.98258" lon="2.062">
        <ele>22</ele>
        <time>2022-06-12T12:30:09Z</time>
      </trkpt>
      <trkpt lat="48.98269" lon="2.06207">
        <ele>22</ele>
        <time>2022-06-12T12:30:18Z</time>
      </trkpt>
      <trkpt lat="48.98281" lon="2.06222">
        <ele>21</ele>
        <time>2022-06-12T12:30:30Z</time>
      </trkpt>
      <trkpt lat="48.98287" lon="2.06224">
        <ele>22</ele>
        <time>2022-06-12T12:30:35Z</time>
      </trkpt>
      <trkpt lat="48.98291" lon="2.06228">
        <ele>22</ele>
        <time>2022-06-12T12:30:49Z</time>
      </trkpt>
      <trkpt lat="48.98299" lon="2.06234">
        <ele>21</ele>
        <time>2022-06-12T12:31:16Z</time>
      </trkpt>
      <trkpt lat="48.98304" lon="2.06237">
        <ele>22</ele>
        <time>2022-06-12T12:31:21Z</time>
      </trkpt>
      <trkpt lat="48.9831" lon="2.06241">
        <ele>21</ele>
        <time>2022-06-12T12:31:27Z</time>
      </trkpt>
      <trkpt lat="48.98324" lon="2.0625">
        <ele>21</ele>
        <time>2022-06-12T12:31:40Z</time>
      </trkpt>
      <trkpt lat="48.98355" lon="2.0629">
        <ele>21</ele>
        <time>2022-06-12T12:32:14Z</time>
      </trkpt>
      <trkpt lat="48.98372" lon="2.06313">
        <ele>21</ele>
        <time>2022-06-12T12:32:36Z</time>
      </trkpt>
      <trkpt lat="48.98376" lon="2.06319">
        <ele>21</ele>
        <time>2022-06-12T12:32:40Z</time>
      </trkpt>
      <trkpt lat="48.9838" lon="2.06324">
        <ele>21</ele>
        <time>2022-06-12T12:32:44Z</time>
      </trkpt>
      <trkpt lat="48.98383" lon="2.0633">
        <ele>21</ele>
        <time>2022-06-12T12:32:49Z</time>
      </trkpt>
      <trkpt lat="48.98399" lon="2.06351">
        <ele>21</ele>
        <time>2022-06-12T12:33:04Z</time>
      </trkpt>
      <trkpt lat="48.98402" lon="2.06358">
        <ele>21</ele>
        <time>2022-06-12T12:33:08Z</time>
      </trkpt>
      <trkpt lat="48.98404" lon="2.06364">
        <ele>21</ele>
        <time>2022-06-12T12:33:12Z</time>
      </trkpt>
      <trkpt lat="48.98408" lon="2.06369">
        <ele>21</ele>
        <time>2022-06-12T12:33:16Z</time>
      </trkpt>
      <trkpt lat="48.98423" lon="2.06402">
        <ele>21</ele>
        <time>2022-06-12T12:33:37Z</time>
      </trkpt>
      <trkpt lat="48.98433" lon="2.06417">
        <ele>21</ele>
        <time>2022-06-12T12:33:51Z</time>
      </trkpt>
      <trkpt lat="48.98439" lon="2.0643">
        <ele>21</ele>
        <time>2022-06-12T12:34:00Z</time>
      </trkpt>
      <trkpt lat="48.98443" lon="2.06438">
        <ele>21</ele>
        <time>2022-06-12T12:34:17Z</time>
      </trkpt>
      <trkpt lat="48.98459" lon="2.06471">
        <ele>21</ele>
        <time>2022-06-12T12:34:36Z</time>
      </trkpt>
      <trkpt lat="48.9846" lon="2.06478">
        <ele>21</ele>
        <time>2022-06-12T12:34:40Z</time>
      </trkpt>
      <trkpt lat="48.9848" lon="2.06526">
        <ele>21</ele>
        <time>2022-06-12T12:35:11Z</time>
      </trkpt>
      <trkpt lat="48.985" lon="2.06569">
        <ele>21</ele>
        <time>2022-06-12T12:35:39Z</time>
      </trkpt>
      <trkpt lat="48.98513" lon="2.06607">
        <ele>21</ele>
        <time>2022-06-12T12:36:02Z</time>
      </trkpt>
      <trkpt lat="48.98522" lon="2.06616">
        <ele>21</ele>
        <time>2022-06-12T12:36:09Z</time>
      </trkpt>
      <trkpt lat="48.98526" lon="2.06639">
        <ele>21</ele>
        <time>2022-06-12T12:36:20Z</time>
      </trkpt>
      <trkpt lat="48.98526" lon="2.06646">
        <ele>21</ele>
        <time>2022-06-12T12:36:25Z</time>
      </trkpt>
      <trkpt lat="48.98529" lon="2.06654">
        <ele>21</ele>
        <time>2022-06-12T12:36:32Z</time>
      </trkpt>
      <trkpt lat="48.98531" lon="2.06661">
        <ele>21</ele>
        <time>2022-06-12T12:36:36Z</time>
      </trkpt>
      <trkpt lat="48.98536" lon="2.06673">
        <ele>21</ele>
        <time>2022-06-12T12:36:44Z</time>
      </trkpt>
      <trkpt lat="48.98538" lon="2.06681">
        <ele>21</ele>
        <time>2022-06-12T12:36:48Z</time>
      </trkpt>
      <trkpt lat="48.98545" lon="2.06693">
        <ele>21</ele>
        <time>2022-06-12T12:36:57Z</time>
      </trkpt>
      <trkpt lat="48.98548" lon="2.067">
        <ele>21</ele>
        <time>2022-06-12T12:37:01Z</time>
      </trkpt>
      <trkpt lat="48.98552" lon="2.06714">
        <ele>21</ele>
        <time>2022-06-12T12:37:09Z</time>
      </trkpt>
      <trkpt lat="48.98556" lon="2.0672">
        <ele>21</ele>
        <time>2022-06-12T12:37:12Z</time>
      </trkpt>
      <trkpt lat="48.98564" lon="2.06739">
        <ele>21</ele>
        <time>2022-06-12T12:37:24Z</time>
      </trkpt>
      <trkpt lat="48.98564" lon="2.06747">
        <ele>21</ele>
        <time>2022-06-12T12:37:28Z</time>
      </trkpt>
      <trkpt lat="48.98565" lon="2.06754">
        <ele>21</ele>
        <time>2022-06-12T12:37:32Z</time>
      </trkpt>
      <trkpt lat="48.98568" lon="2.06761">
        <ele>21</ele>
        <time>2022-06-12T12:37:36Z</time>
      </trkpt>
      <trkpt lat="48.98582" lon="2.06794">
        <ele>21</ele>
        <time>2022-06-12T12:37:56Z</time>
      </trkpt>
      <trkpt lat="48.98584" lon="2.06801">
        <ele>21</ele>
        <time>2022-06-12T12:38:00Z</time>
      </trkpt>
      <trkpt lat="48.98602" lon="2.06848">
        <ele>21</ele>
        <time>2022-06-12T12:38:29Z</time>
      </trkpt>
      <trkpt lat="48.9861" lon="2.06859">
        <ele>21</ele>
        <time>2022-06-12T12:38:36Z</time>
      </trkpt>
      <trkpt lat="48.98611" lon="2.06868">
        <ele>21</ele>
        <time>2022-06-12T12:38:40Z</time>
      </trkpt>
      <trkpt lat="48.98616" lon="2.0688">
        <ele>21</ele>
        <time>2022-06-12T12:38:48Z</time>
      </trkpt>
      <trkpt lat="48.98631" lon="2.06903">
        <ele>21</ele>
        <time>2022-06-12T12:39:04Z</time>
      </trkpt>
      <trkpt lat="48.98637" lon="2.06917">
        <ele>21</ele>
        <time>2022-06-12T12:39:12Z</time>
      </trkpt>
      <trkpt lat="48.98659" lon="2.06949">
        <ele>21</ele>
        <time>2022-06-12T12:39:36Z</time>
      </trkpt>
      <trkpt lat="48.98674" lon="2.06982">
        <ele>21</ele>
        <time>2022-06-12T12:39:58Z</time>
      </trkpt>
      <trkpt lat="48.98684" lon="2.0699">
        <ele>21</ele>
        <time>2022-06-12T12:40:05Z</time>
      </trkpt>
      <trkpt lat="48.98687" lon="2.06995">
        <ele>21</ele>
        <time>2022-06-12T12:40:09Z</time>
      </trkpt>
      <trkpt lat="48.98689" lon="2.07001">
        <ele>21</ele>
        <time>2022-06-12T12:40:13Z</time>
      </trkpt>
      <trkpt lat="48.98714" lon="2.07028">
        <ele>21</ele>
        <time>2022-06-12T12:40:42Z</time>
      </trkpt>
      <trkpt lat="48.98718" lon="2.07029">
        <ele>21</ele>
        <time>2022-06-12T12:40:45Z</time>
      </trkpt>
      <trkpt lat="48.98722" lon="2.07032">
        <ele>20</ele>
        <time>2022-06-12T12:40:48Z</time>
      </trkpt>
      <trkpt lat="48.98732" lon="2.07041">
        <ele>21</ele>
        <time>2022-06-12T12:40:57Z</time>
      </trkpt>
      <trkpt lat="48.98741" lon="2.07045">
        <ele>21</ele>
        <time>2022-06-12T12:41:06Z</time>
      </trkpt>
      <trkpt lat="48.98746" lon="2.0705">
        <ele>21</ele>
        <time>2022-06-12T12:41:13Z</time>
      </trkpt>
      <trkpt lat="48.98749" lon="2.07052">
        <ele>21</ele>
        <time>2022-06-12T12:42:14Z</time>
      </trkpt>
      <trkpt lat="48.98754" lon="2.07053">
        <ele>21</ele>
        <time>2022-06-12T12:42:18Z</time>
      </trkpt>
      <trkpt lat="48.98768" lon="2.07059">
        <ele>21</ele>
        <time>2022-06-12T12:42:27Z</time>
      </trkpt>
      <trkpt lat="48.98772" lon="2.07061">
        <ele>21</ele>
        <time>2022-06-12T12:42:30Z</time>
      </trkpt>
      <trkpt lat="48.98782" lon="2.07066">
        <ele>21</ele>
        <time>2022-06-12T12:42:37Z</time>
      </trkpt>
      <trkpt lat="48.98795" lon="2.07074">
        <ele>22</ele>
        <time>2022-06-12T12:42:49Z</time>
      </trkpt>
      <trkpt lat="48.98804" lon="2.07079">
        <ele>22</ele>
        <time>2022-06-12T12:42:58Z</time>
      </trkpt>
      <trkpt lat="48.98846" lon="2.07083">
        <ele>23</ele>
        <time>2022-06-12T12:43:34Z</time>
      </trkpt>
      <trkpt lat="48.98855" lon="2.07083">
        <ele>23</ele>
        <time>2022-06-12T12:43:42Z</time>
      </trkpt>
      <trkpt lat="48.98865" lon="2.07086">
        <ele>23</ele>
        <time>2022-06-12T12:43:51Z</time>
      </trkpt>
      <trkpt lat="48.9887" lon="2.0709">
        <ele>22</ele>
        <time>2022-06-12T12:43:58Z</time>
      </trkpt>
      <trkpt lat="48.98875" lon="2.07093">
        <ele>22</ele>
        <time>2022-06-12T12:44:02Z</time>
      </trkpt>
      <trkpt lat="48.98903" lon="2.071">
        <ele>22</ele>
        <time>2022-06-12T12:44:24Z</time>
      </trkpt>
      <trkpt lat="48.98908" lon="2.07102">
        <ele>22</ele>
        <time>2022-06-12T12:44:28Z</time>
      </trkpt>
      <trkpt lat="48.98913" lon="2.07103">
        <ele>22</ele>
        <time>2022-06-12T12:44:33Z</time>
      </trkpt>
      <trkpt lat="48.98925" lon="2.07112">
        <ele>22</ele>
        <time>2022-06-12T12:44:46Z</time>
      </trkpt>
      <trkpt lat="48.98932" lon="2.07112">
        <ele>22</ele>
        <time>2022-06-12T12:44:53Z</time>
      </trkpt>
      <trkpt lat="48.98937" lon="2.07123">
        <ele>22</ele>
        <time>2022-06-12T12:45:00Z</time>
      </trkpt>
      <trkpt lat="48.98933" lon="2.0713">
        <ele>22</ele>
        <time>2022-06-12T12:45:24Z</time>
      </trkpt>
      <trkpt lat="48.98928" lon="2.07127">
        <ele>22</ele>
        <time>2022-06-12T12:45:39Z</time>
      </trkpt>
      <trkpt lat="48.98932" lon="2.07118">
        <ele>21</ele>
        <time>2022-06-12T12:46:05Z</time>
      </trkpt>
      <trkpt lat="48.98943" lon="2.07086">
        <ele>22</ele>
        <time>2022-06-12T12:46:26Z</time>
      </trkpt>
      <trkpt lat="48.9895" lon="2.07068">
        <ele>24</ele>
        <time>2022-06-12T12:46:46Z</time>
      </trkpt>
      <trkpt lat="48.98948" lon="2.07079">
        <ele>25</ele>
        <time>2022-06-12T12:47:00Z</time>
      </trkpt>
      <trkpt lat="48.98941" lon="2.07098">
        <ele>28</ele>
        <time>2022-06-12T12:47:16Z</time>
      </trkpt>
      <trkpt lat="48.98937" lon="2.07103">
        <ele>28</ele>
        <time>2022-06-12T12:47:20Z</time>
      </trkpt>
      <trkpt lat="48.98926" lon="2.07134">
        <ele>29</ele>
        <time>2022-06-12T12:47:42Z</time>
      </trkpt>
      <trkpt lat="48.98921" lon="2.07146">
        <ele>29</ele>
        <time>2022-06-12T12:47:50Z</time>
      </trkpt>
      <trkpt lat="48.98918" lon="2.07159">
        <ele>29</ele>
        <time>2022-06-12T12:47:58Z</time>
      </trkpt>
      <trkpt lat="48.98915" lon="2.07165">
        <ele>30</ele>
        <time>2022-06-12T12:48:02Z</time>
      </trkpt>
      <trkpt lat="48.98913" lon="2.07172">
        <ele>30</ele>
        <time>2022-06-12T12:48:07Z</time>
      </trkpt>
      <trkpt lat="48.98896" lon="2.07215">
        <ele>29</ele>
        <time>2022-06-12T12:48:36Z</time>
      </trkpt>
      <trkpt lat="48.98893" lon="2.07222">
        <ele>29</ele>
        <time>2022-06-12T12:48:40Z</time>
      </trkpt>
      <trkpt lat="48.98891" lon="2.07229">
        <ele>29</ele>
        <time>2022-06-12T12:48:44Z</time>
      </trkpt>
      <trkpt lat="48.98876" lon="2.07276">
        <ele>27</ele>
        <time>2022-06-12T12:49:13Z</time>
      </trkpt>
      <trkpt lat="48.98875" lon="2.07283">
        <ele>27</ele>
        <time>2022-06-12T12:49:17Z</time>
      </trkpt>
      <trkpt lat="48.98863" lon="2.0732">
        <ele>23</ele>
        <time>2022-06-12T12:49:41Z</time>
      </trkpt>
      <trkpt lat="48.98868" lon="2.07307">
        <ele>21</ele>
        <time>2022-06-12T12:49:57Z</time>
      </trkpt>
      <trkpt lat="48.98873" lon="2.07298">
        <ele>21</ele>
        <time>2022-06-12T12:50:03Z</time>
      </trkpt>
      <trkpt lat="48.98876" lon="2.07285">
        <ele>21</ele>
        <time>2022-06-12T12:50:10Z</time>
      </trkpt>
      <trkpt lat="48.98881" lon="2.07277">
        <ele>21</ele>
        <time>2022-06-12T12:50:15Z</time>
      </trkpt>
      <trkpt lat="48.98875" lon="2.07269">
        <ele>21</ele>
        <time>2022-06-12T12:50:24Z</time>
      </trkpt>
      <trkpt lat="48.98869" lon="2.07266">
        <ele>21</ele>
        <time>2022-06-12T12:50:27Z</time>
      </trkpt>
      <trkpt lat="48.98853" lon="2.07264">
        <ele>20</ele>
        <time>2022-06-12T12:50:37Z</time>
      </trkpt>
      <trkpt lat="48.98844" lon="2.07258">
        <ele>21</ele>
        <time>2022-06-12T12:50:48Z</time>
      </trkpt>
      <trkpt lat="48.98839" lon="2.07255">
        <ele>21</ele>
        <time>2022-06-12T12:50:52Z</time>
      </trkpt>
      <trkpt lat="48.9882" lon="2.07253">
        <ele>21</ele>
        <time>2022-06-12T12:51:12Z</time>
      </trkpt>
      <trkpt lat="48.98808" lon="2.07259">
        <ele>21</ele>
        <time>2022-06-12T12:51:25Z</time>
      </trkpt>
      <trkpt lat="48.98804" lon="2.07263">
        <ele>21</ele>
        <time>2022-06-12T12:51:30Z</time>
      </trkpt>
      <trkpt lat="48.98799" lon="2.07269">
        <ele>21</ele>
        <time>2022-06-12T12:51:35Z</time>
      </trkpt>
      <trkpt lat="48.98794" lon="2.07271">
        <ele>21</ele>
        <time>2022-06-12T12:51:40Z</time>
      </trkpt>
      <trkpt lat="48.98784" lon="2.07284">
        <ele>21</ele>
        <time>2022-06-12T12:51:51Z</time>
      </trkpt>
      <trkpt lat="48.98776" lon="2.07304">
        <ele>22</ele>
        <time>2022-06-12T12:52:05Z</time>
      </trkpt>
      <trkpt lat="48.98775" lon="2.07311">
        <ele>22</ele>
        <time>2022-06-12T12:52:09Z</time>
      </trkpt>
      <trkpt lat="48.98771" lon="2.07325">
        <ele>21</ele>
        <time>2022-06-12T12:52:18Z</time>
      </trkpt>
      <trkpt lat="48.98769" lon="2.07356">
        <ele>21</ele>
        <time>2022-06-12T12:52:38Z</time>
      </trkpt>
      <trkpt lat="48.98772" lon="2.07377">
        <ele>21</ele>
        <time>2022-06-12T12:52:52Z</time>
      </trkpt>
      <trkpt lat="48.98776" lon="2.07389">
        <ele>21</ele>
        <time>2022-06-12T12:52:59Z</time>
      </trkpt>
      <trkpt lat="48.98779" lon="2.07405">
        <ele>21</ele>
        <time>2022-06-12T12:53:07Z</time>
      </trkpt>
      <trkpt lat="48.98781" lon="2.07411">
        <ele>21</ele>
        <time>2022-06-12T12:53:10Z</time>
      </trkpt>
      <trkpt lat="48.98783" lon="2.07418">
        <ele>21</ele>
        <time>2022-06-12T12:53:14Z</time>
      </trkpt>
      <trkpt lat="48.98788" lon="2.07459">
        <ele>20</ele>
        <time>2022-06-12T12:53:34Z</time>
      </trkpt>
      <trkpt lat="48.98782" lon="2.07472">
        <ele>18</ele>
        <time>2022-06-12T12:53:54Z</time>
      </trkpt>
      <trkpt lat="48.98783" lon="2.0748">
        <ele>19</ele>
        <time>2022-06-12T12:53:59Z</time>
      </trkpt>
      <trkpt lat="48.98784" lon="2.07487">
        <ele>19</ele>
        <time>2022-06-12T12:54:03Z</time>
      </trkpt>
      <trkpt lat="48.98786" lon="2.07494">
        <ele>19</ele>
        <time>2022-06-12T12:54:10Z</time>
      </trkpt>
      <trkpt lat="48.98788" lon="2.07508">
        <ele>19</ele>
        <time>2022-06-12T12:54:18Z</time>
      </trkpt>
      <trkpt lat="48.9879" lon="2.07516">
        <ele>19</ele>
        <time>2022-06-12T12:54:22Z</time>
      </trkpt>
      <trkpt lat="48.98793" lon="2.07525">
        <ele>19</ele>
        <time>2022-06-12T12:54:26Z</time>
      </trkpt>
      <trkpt lat="48.98796" lon="2.07529">
        <ele>19</ele>
        <time>2022-06-12T12:54:31Z</time>
      </trkpt>
      <trkpt lat="48.98802" lon="2.07554">
        <ele>19</ele>
        <time>2022-06-12T12:54:46Z</time>
      </trkpt>
      <trkpt lat="48.98802" lon="2.07561">
        <ele>19</ele>
        <time>2022-06-12T12:54:50Z</time>
      </trkpt>
      <trkpt lat="48.9881" lon="2.07585">
        <ele>19</ele>
        <time>2022-06-12T12:55:05Z</time>
      </trkpt>
      <trkpt lat="48.98823" lon="2.07645">
        <ele>20</ele>
        <time>2022-06-12T12:55:34Z</time>
      </trkpt>
      <trkpt lat="48.9883" lon="2.07666">
        <ele>20</ele>
        <time>2022-06-12T12:55:45Z</time>
      </trkpt>
      <trkpt lat="48.98833" lon="2.07681">
        <ele>20</ele>
        <time>2022-06-12T12:55:53Z</time>
      </trkpt>
      <trkpt lat="48.98839" lon="2.07695">
        <ele>20</ele>
        <time>2022-06-12T12:56:02Z</time>
      </trkpt>
      <trkpt lat="48.9884" lon="2.07712">
        <ele>20</ele>
        <time>2022-06-12T12:56:10Z</time>
      </trkpt>
      <trkpt lat="48.9885" lon="2.07748">
        <ele>20</ele>
        <time>2022-06-12T12:56:30Z</time>
      </trkpt>
      <trkpt lat="48.98851" lon="2.07757">
        <ele>20</ele>
        <time>2022-06-12T12:56:34Z</time>
      </trkpt>
      <trkpt lat="48.98853" lon="2.07764">
        <ele>20</ele>
        <time>2022-06-12T12:56:38Z</time>
      </trkpt>
      <trkpt lat="48.98853" lon="2.07772">
        <ele>20</ele>
        <time>2022-06-12T12:56:42Z</time>
      </trkpt>
      <trkpt lat="48.98855" lon="2.07779">
        <ele>20</ele>
        <time>2022-06-12T12:56:45Z</time>
      </trkpt>
      <trkpt lat="48.98855" lon="2.07786">
        <ele>20</ele>
        <time>2022-06-12T12:56:49Z</time>
      </trkpt>
      <trkpt lat="48.98864" lon="2.07825">
        <ele>20</ele>
        <time>2022-06-12T12:57:09Z</time>
      </trkpt>
      <trkpt lat="48.9887" lon="2.07838">
        <ele>20</ele>
        <time>2022-06-12T12:57:16Z</time>
      </trkpt>
      <trkpt lat="48.98873" lon="2.07843">
        <ele>20</ele>
        <time>2022-06-12T12:57:19Z</time>
      </trkpt>
      <trkpt lat="48.98879" lon="2.07873">
        <ele>20</ele>
        <time>2022-06-12T12:57:35Z</time>
      </trkpt>
      <trkpt lat="48.98884" lon="2.07885">
        <ele>20</ele>
        <time>2022-06-12T12:57:43Z</time>
      </trkpt>
      <trkpt lat="48.98885" lon="2.07892">
        <ele>20</ele>
        <time>2022-06-12T12:57:47Z</time>
      </trkpt>
      <trkpt lat="48.98886" lon="2.07899">
        <ele>20</ele>
        <time>2022-06-12T12:57:51Z</time>
      </trkpt>
      <trkpt lat="48.98889" lon="2.07905">
        <ele>20</ele>
        <time>2022-06-12T12:57:55Z</time>
      </trkpt>
      <trkpt lat="48.98891" lon="2.07912">
        <ele>20</ele>
        <time>2022-06-12T12:57:59Z</time>
      </trkpt>
      <trkpt lat="48.989" lon="2.0795">
        <ele>20</ele>
        <time>2022-06-12T12:58:18Z</time>
      </trkpt>
      <trkpt lat="48.98904" lon="2.07955">
        <ele>20</ele>
        <time>2022-06-12T12:58:22Z</time>
      </trkpt>
      <trkpt lat="48.98908" lon="2.07971">
        <ele>20</ele>
        <time>2022-06-12T12:58:30Z</time>
      </trkpt>
      <trkpt lat="48.9891" lon="2.07977">
        <ele>20</ele>
        <time>2022-06-12T12:58:34Z</time>
      </trkpt>
      <trkpt lat="48.98912" lon="2.07993">
        <ele>20</ele>
        <time>2022-06-12T12:58:42Z</time>
      </trkpt>
      <trkpt lat="48.98913" lon="2.08">
        <ele>20</ele>
        <time>2022-06-12T12:58:46Z</time>
      </trkpt>
      <trkpt lat="48.98913" lon="2.08008">
        <ele>20</ele>
        <time>2022-06-12T12:58:50Z</time>
      </trkpt>
      <trkpt lat="48.98913" lon="2.08016">
        <ele>20</ele>
        <time>2022-06-12T12:58:54Z</time>
      </trkpt>
      <trkpt lat="48.98914" lon="2.08022">
        <ele>20</ele>
        <time>2022-06-12T12:58:58Z</time>
      </trkpt>
      <trkpt lat="48.98917" lon="2.08037">
        <ele>20</ele>
        <time>2022-06-12T12:59:05Z</time>
      </trkpt>
      <trkpt lat="48.98918" lon="2.08043">
        <ele>20</ele>
        <time>2022-06-12T12:59:08Z</time>
      </trkpt>
      <trkpt lat="48.98922" lon="2.08057">
        <ele>20</ele>
        <time>2022-06-12T12:59:16Z</time>
      </trkpt>
      <trkpt lat="48.98924" lon="2.08064">
        <ele>20</ele>
        <time>2022-06-12T12:59:20Z</time>
      </trkpt>
      <trkpt lat="48.98926" lon="2.08072">
        <ele>20</ele>
        <time>2022-06-12T12:59:24Z</time>
      </trkpt>
      <trkpt lat="48.9893" lon="2.08085">
        <ele>20</ele>
        <time>2022-06-12T12:59:32Z</time>
      </trkpt>
      <trkpt lat="48.98932" lon="2.08099">
        <ele>20</ele>
        <time>2022-06-12T12:59:40Z</time>
      </trkpt>
      <trkpt lat="48.98935" lon="2.08107">
        <ele>20</ele>
        <time>2022-06-12T12:59:45Z</time>
      </trkpt>
      <trkpt lat="48.98936" lon="2.08114">
        <ele>20</ele>
        <time>2022-06-12T12:59:49Z</time>
      </trkpt>
      <trkpt lat="48.98944" lon="2.08144">
        <ele>20</ele>
        <time>2022-06-12T13:00:05Z</time>
      </trkpt>
      <trkpt lat="48.98947" lon="2.08168">
        <ele>20</ele>
        <time>2022-06-12T13:00:18Z</time>
      </trkpt>
      <trkpt lat="48.98949" lon="2.08175">
        <ele>20</ele>
        <time>2022-06-12T13:00:23Z</time>
      </trkpt>
      <trkpt lat="48.9895" lon="2.08182">
        <ele>20</ele>
        <time>2022-06-12T13:00:28Z</time>
      </trkpt>
      <trkpt lat="48.98953" lon="2.08189">
        <ele>20</ele>
        <time>2022-06-12T13:00:31Z</time>
      </trkpt>
      <trkpt lat="48.98955" lon="2.08205">
        <ele>20</ele>
        <time>2022-06-12T13:00:38Z</time>
      </trkpt>
      <trkpt lat="48.98958" lon="2.08211">
        <ele>20</ele>
        <time>2022-06-12T13:00:41Z</time>
      </trkpt>
      <trkpt lat="48.98959" lon="2.08218">
        <ele>21</ele>
        <time>2022-06-12T13:00:45Z</time>
      </trkpt>
      <trkpt lat="48.98957" lon="2.08232">
        <ele>20</ele>
        <time>2022-06-12T13:01:07Z</time>
      </trkpt>
      <trkpt lat="48.98958" lon="2.08237">
        <ele>20</ele>
        <time>2022-06-12T13:01:17Z</time>
      </trkpt>
      <trkpt lat="48.98956" lon="2.08245">
        <ele>20</ele>
        <time>2022-06-12T13:01:23Z</time>
      </trkpt>
      <trkpt lat="48.98958" lon="2.08252">
        <ele>20</ele>
        <time>2022-06-12T13:01:26Z</time>
      </trkpt>
      <trkpt lat="48.98961" lon="2.08258">
        <ele>20</ele>
        <time>2022-06-12T13:01:31Z</time>
      </trkpt>
      <trkpt lat="48.98963" lon="2.08266">
        <ele>20</ele>
        <time>2022-06-12T13:01:38Z</time>
      </trkpt>
      <trkpt lat="48.98959" lon="2.08281">
        <ele>20</ele>
        <time>2022-06-12T13:01:49Z</time>
      </trkpt>
      <trkpt lat="48.98962" lon="2.08288">
        <ele>20</ele>
        <time>2022-06-12T13:01:53Z</time>
      </trkpt>
      <trkpt lat="48.98965" lon="2.08293">
        <ele>20</ele>
        <time>2022-06-12T13:01:56Z</time>
      </trkpt>
      <trkpt lat="48.98973" lon="2.08312">
        <ele>20</ele>
        <time>2022-06-12T13:02:05Z</time>
      </trkpt>
      <trkpt lat="48.98983" lon="2.08372">
        <ele>21</ele>
        <time>2022-06-12T13:02:38Z</time>
      </trkpt>
      <trkpt lat="48.98994" lon="2.0841">
        <ele>21</ele>
        <time>2022-06-12T13:03:00Z</time>
      </trkpt>
      <trkpt lat="48.98994" lon="2.08418">
        <ele>21</ele>
        <time>2022-06-12T13:03:03Z</time>
      </trkpt>
      <trkpt lat="48.98996" lon="2.08424">
        <ele>21</ele>
        <time>2022-06-12T13:03:07Z</time>
      </trkpt>
      <trkpt lat="48.98999" lon="2.08432">
        <ele>21</ele>
        <time>2022-06-12T13:03:11Z</time>
      </trkpt>
      <trkpt lat="48.99004" lon="2.08456">
        <ele>21</ele>
        <time>2022-06-12T13:03:23Z</time>
      </trkpt>
      <trkpt lat="48.99004" lon="2.08464">
        <ele>21</ele>
        <time>2022-06-12T13:03:27Z</time>
      </trkpt>
      <trkpt lat="48.99012" lon="2.08508">
        <ele>21</ele>
        <time>2022-06-12T13:03:49Z</time>
      </trkpt>
      <trkpt lat="48.99013" lon="2.08539">
        <ele>21</ele>
        <time>2022-06-12T13:04:07Z</time>
      </trkpt>
      <trkpt lat="48.99025" lon="2.08573">
        <ele>21</ele>
        <time>2022-06-12T13:04:29Z</time>
      </trkpt>
      <trkpt lat="48.99027" lon="2.08581">
        <ele>21</ele>
        <time>2022-06-12T13:04:34Z</time>
      </trkpt>
      <trkpt lat="48.99029" lon="2.08588">
        <ele>21</ele>
        <time>2022-06-12T13:04:38Z</time>
      </trkpt>
      <trkpt lat="48.9903" lon="2.08595">
        <ele>21</ele>
        <time>2022-06-12T13:04:42Z</time>
      </trkpt>
      <trkpt lat="48.99031" lon="2.08602">
        <ele>21</ele>
        <time>2022-06-12T13:04:46Z</time>
      </trkpt>
      <trkpt lat="48.99032" lon="2.08611">
        <ele>21</ele>
        <time>2022-06-12T13:04:50Z</time>
      </trkpt>
      <trkpt lat="48.99036" lon="2.08626">
        <ele>21</ele>
        <time>2022-06-12T13:04:58Z</time>
      </trkpt>
      <trkpt lat="48.99041" lon="2.08652">
        <ele>21</ele>
        <time>2022-06-12T13:05:14Z</time>
      </trkpt>
      <trkpt lat="48.9904" lon="2.0866">
        <ele>21</ele>
        <time>2022-06-12T13:05:17Z</time>
      </trkpt>
      <trkpt lat="48.99042" lon="2.08674">
        <ele>21</ele>
        <time>2022-06-12T13:05:23Z</time>
      </trkpt>
      <trkpt lat="48.99045" lon="2.08679">
        <ele>21</ele>
        <time>2022-06-12T13:05:27Z</time>
      </trkpt>
      <trkpt lat="48.99052" lon="2.0869">
        <ele>21</ele>
        <time>2022-06-12T13:05:35Z</time>
      </trkpt>
      <trkpt lat="48.99062" lon="2.0872">
        <ele>21</ele>
        <time>2022-06-12T13:05:52Z</time>
      </trkpt>
      <trkpt lat="48.99068" lon="2.08741">
        <ele>21</ele>
        <time>2022-06-12T13:06:03Z</time>
      </trkpt>
      <trkpt lat="48.99073" lon="2.08757">
        <ele>21</ele>
        <time>2022-06-12T13:06:14Z</time>
      </trkpt>
      <trkpt lat="48.99077" lon="2.08774">
        <ele>21</ele>
        <time>2022-06-12T13:06:25Z</time>
      </trkpt>
      <trkpt lat="48.9908" lon="2.08781">
        <ele>21</ele>
        <time>2022-06-12T13:06:29Z</time>
      </trkpt>
      <trkpt lat="48.99083" lon="2.08797">
        <ele>21</ele>
        <time>2022-06-12T13:06:39Z</time>
      </trkpt>
      <trkpt lat="48.99089" lon="2.08812">
        <ele>21</ele>
        <time>2022-06-12T13:06:46Z</time>
      </trkpt>
      <trkpt lat="48.99095" lon="2.08822">
        <ele>22</ele>
        <time>2022-06-12T13:06:52Z</time>
      </trkpt>
      <trkpt lat="48.9909" lon="2.08837">
        <ele>22</ele>
        <time>2022-06-12T13:07:12Z</time>
      </trkpt>
      <trkpt lat="48.99093" lon="2.08841">
        <ele>22</ele>
        <time>2022-06-12T13:07:26Z</time>
      </trkpt>
      <trkpt lat="48.99101" lon="2.08845">
        <ele>22</ele>
        <time>2022-06-12T13:09:16Z</time>
      </trkpt>
      <trkpt lat="48.99103" lon="2.0885">
        <ele>22</ele>
        <time>2022-06-12T13:09:20Z</time>
      </trkpt>
      <trkpt lat="48.99106" lon="2.08861">
        <ele>22</ele>
        <time>2022-06-12T13:09:30Z</time>
      </trkpt>
      <trkpt lat="48.99111" lon="2.08875">
        <ele>23</ele>
        <time>2022-06-12T13:09:42Z</time>
      </trkpt>
      <trkpt lat="48.9911" lon="2.08891">
        <ele>22</ele>
        <time>2022-06-12T13:09:50Z</time>
      </trkpt>
      <trkpt lat="48.99112" lon="2.08898">
        <ele>22</ele>
        <time>2022-06-12T13:09:57Z</time>
      </trkpt>
      <trkpt lat="48.99111" lon="2.08905">
        <ele>22</ele>
        <time>2022-06-12T13:10:08Z</time>
      </trkpt>
      <trkpt lat="48.99117" lon="2.08909">
        <ele>24</ele>
        <time>2022-06-12T13:10:43Z</time>
      </trkpt>
      <trkpt lat="48.99119" lon="2.08914">
        <ele>23</ele>
        <time>2022-06-12T13:11:58Z</time>
      </trkpt>
      <trkpt lat="48.99123" lon="2.08941">
        <ele>24</ele>
        <time>2022-06-12T13:35:15Z</time>
      </trkpt>
      <trkpt lat="48.99122" lon="2.08942">
        <ele>24</ele>
        <time>2022-06-12T13:35:16Z</time>
      </trkpt>
      <trkpt lat="48.99122" lon="2.08949">
        <ele>24</ele>
        <time>2022-06-12T13:35:20Z</time>
      </trkpt>
      <trkpt lat="48.99121" lon="2.08957">
        <ele>24</ele>
        <time>2022-06-12T13:35:25Z</time>
      </trkpt>
      <trkpt lat="48.99123" lon="2.08964">
        <ele>24</ele>
        <time>2022-06-12T13:35:30Z</time>
      </trkpt>
      <trkpt lat="48.99124" lon="2.08972">
        <ele>24</ele>
        <time>2022-06-12T13:35:34Z</time>
      </trkpt>
      <trkpt lat="48.99124" lon="2.08979">
        <ele>24</ele>
        <time>2022-06-12T13:35:38Z</time>
      </trkpt>
      <trkpt lat="48.99125" lon="2.08986">
        <ele>24</ele>
        <time>2022-06-12T13:35:42Z</time>
      </trkpt>
      <trkpt lat="48.99127" lon="2.08993">
        <ele>24</ele>
        <time>2022-06-12T13:35:46Z</time>
      </trkpt>
      <trkpt lat="48.99127" lon="2.09">
        <ele>24</ele>
        <time>2022-06-12T13:35:50Z</time>
      </trkpt>
      <trkpt lat="48.99128" lon="2.09008">
        <ele>24</ele>
        <time>2022-06-12T13:35:54Z</time>
      </trkpt>
      <trkpt lat="48.99128" lon="2.09015">
        <ele>24</ele>
        <time>2022-06-12T13:35:58Z</time>
      </trkpt>
      <trkpt lat="48.99134" lon="2.09024">
        <ele>24</ele>
        <time>2022-06-12T13:36:06Z</time>
      </trkpt>
      <trkpt lat="48.99135" lon="2.09031">
        <ele>24</ele>
        <time>2022-06-12T13:36:10Z</time>
      </trkpt>
      <trkpt lat="48.99135" lon="2.0904">
        <ele>23</ele>
        <time>2022-06-12T13:36:14Z</time>
      </trkpt>
      <trkpt lat="48.99137" lon="2.09047">
        <ele>24</ele>
        <time>2022-06-12T13:36:18Z</time>
      </trkpt>
      <trkpt lat="48.99136" lon="2.09056">
        <ele>23</ele>
        <time>2022-06-12T13:36:22Z</time>
      </trkpt>
      <trkpt lat="48.99135" lon="2.09062">
        <ele>23</ele>
        <time>2022-06-12T13:36:25Z</time>
      </trkpt>
      <trkpt lat="48.99134" lon="2.09071">
        <ele>23</ele>
        <time>2022-06-12T13:36:29Z</time>
      </trkpt>
      <trkpt lat="48.99134" lon="2.09103">
        <ele>23</ele>
        <time>2022-06-12T13:36:45Z</time>
      </trkpt>
      <trkpt lat="48.99134" lon="2.0911">
        <ele>23</ele>
        <time>2022-06-12T13:36:49Z</time>
      </trkpt>
      <trkpt lat="48.99137" lon="2.09116">
        <ele>23</ele>
        <time>2022-06-12T13:36:54Z</time>
      </trkpt>
      <trkpt lat="48.9914" lon="2.09125">
        <ele>24</ele>
        <time>2022-06-12T13:37:02Z</time>
      </trkpt>
      <trkpt lat="48.99139" lon="2.09133">
        <ele>24</ele>
        <time>2022-06-12T13:37:06Z</time>
      </trkpt>
      <trkpt lat="48.99138" lon="2.09149">
        <ele>23</ele>
        <time>2022-06-12T13:37:15Z</time>
      </trkpt>
      <trkpt lat="48.99138" lon="2.09156">
        <ele>23</ele>
        <time>2022-06-12T13:37:19Z</time>
      </trkpt>
      <trkpt lat="48.99138" lon="2.09163">
        <ele>23</ele>
        <time>2022-06-12T13:37:23Z</time>
      </trkpt>
      <trkpt lat="48.99137" lon="2.09187">
        <ele>23</ele>
        <time>2022-06-12T13:37:35Z</time>
      </trkpt>
      <trkpt lat="48.99135" lon="2.09195">
        <ele>23</ele>
        <time>2022-06-12T13:37:39Z</time>
      </trkpt>
      <trkpt lat="48.99136" lon="2.09239">
        <ele>23</ele>
        <time>2022-06-12T13:38:05Z</time>
      </trkpt>
      <trkpt lat="48.99138" lon="2.09247">
        <ele>23</ele>
        <time>2022-06-12T13:38:09Z</time>
      </trkpt>
      <trkpt lat="48.99139" lon="2.09255">
        <ele>23</ele>
        <time>2022-06-12T13:38:14Z</time>
      </trkpt>
      <trkpt lat="48.9914" lon="2.09264">
        <ele>23</ele>
        <time>2022-06-12T13:38:21Z</time>
      </trkpt>
      <trkpt lat="48.99138" lon="2.09272">
        <ele>23</ele>
        <time>2022-06-12T13:38:24Z</time>
      </trkpt>
      <trkpt lat="48.99138" lon="2.09287">
        <ele>23</ele>
        <time>2022-06-12T13:38:32Z</time>
      </trkpt>
      <trkpt lat="48.99139" lon="2.09302">
        <ele>23</ele>
        <time>2022-06-12T13:38:40Z</time>
      </trkpt>
      <trkpt lat="48.9914" lon="2.09313">
        <ele>23</ele>
        <time>2022-06-12T13:38:46Z</time>
      </trkpt>
      <trkpt lat="48.9914" lon="2.09322">
        <ele>23</ele>
        <time>2022-06-12T13:38:50Z</time>
      </trkpt>
      <trkpt lat="48.99142" lon="2.09346">
        <ele>23</ele>
        <time>2022-06-12T13:39:02Z</time>
      </trkpt>
      <trkpt lat="48.99142" lon="2.09354">
        <ele>22</ele>
        <time>2022-06-12T13:39:06Z</time>
      </trkpt>
      <trkpt lat="48.99144" lon="2.09378">
        <ele>23</ele>
        <time>2022-06-12T13:39:19Z</time>
      </trkpt>
      <trkpt lat="48.99146" lon="2.09386">
        <ele>22</ele>
        <time>2022-06-12T13:39:23Z</time>
      </trkpt>
      <trkpt lat="48.99148" lon="2.09393">
        <ele>22</ele>
        <time>2022-06-12T13:39:28Z</time>
      </trkpt>
      <trkpt lat="48.99148" lon="2.09402">
        <ele>22</ele>
        <time>2022-06-12T13:39:32Z</time>
      </trkpt>
      <trkpt lat="48.99148" lon="2.09409">
        <ele>22</ele>
        <time>2022-06-12T13:39:36Z</time>
      </trkpt>
      <trkpt lat="48.9915" lon="2.09416">
        <ele>22</ele>
        <time>2022-06-12T13:39:40Z</time>
      </trkpt>
      <trkpt lat="48.99148" lon="2.0944">
        <ele>22</ele>
        <time>2022-06-12T13:39:53Z</time>
      </trkpt>
      <trkpt lat="48.99149" lon="2.09457">
        <ele>22</ele>
        <time>2022-06-12T13:40:02Z</time>
      </trkpt>
      <trkpt lat="48.9915" lon="2.09465">
        <ele>22</ele>
        <time>2022-06-12T13:40:07Z</time>
      </trkpt>
      <trkpt lat="48.99151" lon="2.09473">
        <ele>22</ele>
        <time>2022-06-12T13:40:11Z</time>
      </trkpt>
      <trkpt lat="48.99153" lon="2.09481">
        <ele>23</ele>
        <time>2022-06-12T13:40:15Z</time>
      </trkpt>
      <trkpt lat="48.99156" lon="2.09496">
        <ele>23</ele>
        <time>2022-06-12T13:40:23Z</time>
      </trkpt>
      <trkpt lat="48.9916" lon="2.0951">
        <ele>23</ele>
        <time>2022-06-12T13:40:29Z</time>
      </trkpt>
      <trkpt lat="48.9916" lon="2.09518">
        <ele>23</ele>
        <time>2022-06-12T13:40:33Z</time>
      </trkpt>
      <trkpt lat="48.99161" lon="2.09525">
        <ele>23</ele>
        <time>2022-06-12T13:40:36Z</time>
      </trkpt>
      <trkpt lat="48.9916" lon="2.09531">
        <ele>23</ele>
        <time>2022-06-12T13:40:40Z</time>
      </trkpt>
      <trkpt lat="48.99161" lon="2.09543">
        <ele>23</ele>
        <time>2022-06-12T13:40:47Z</time>
      </trkpt>
      <trkpt lat="48.99162" lon="2.09565">
        <ele>23</ele>
        <time>2022-06-12T13:40:59Z</time>
      </trkpt>
      <trkpt lat="48.99163" lon="2.09573">
        <ele>23</ele>
        <time>2022-06-12T13:41:04Z</time>
      </trkpt>
      <trkpt lat="48.99163" lon="2.09581">
        <ele>23</ele>
        <time>2022-06-12T13:41:09Z</time>
      </trkpt>
      <trkpt lat="48.99166" lon="2.09595">
        <ele>23</ele>
        <time>2022-06-12T13:41:17Z</time>
      </trkpt>
      <trkpt lat="48.99164" lon="2.09605">
        <ele>23</ele>
        <time>2022-06-12T13:41:21Z</time>
      </trkpt>
      <trkpt lat="48.99166" lon="2.09624">
        <ele>23</ele>
        <time>2022-06-12T13:41:33Z</time>
      </trkpt>
      <trkpt lat="48.99164" lon="2.09647">
        <ele>23</ele>
        <time>2022-06-12T13:41:44Z</time>
      </trkpt>
      <trkpt lat="48.99167" lon="2.09653">
        <ele>23</ele>
        <time>2022-06-12T13:41:48Z</time>
      </trkpt>
      <trkpt lat="48.99169" lon="2.09682">
        <ele>22</ele>
        <time>2022-06-12T13:42:03Z</time>
      </trkpt>
      <trkpt lat="48.99168" lon="2.09689">
        <ele>22</ele>
        <time>2022-06-12T13:42:06Z</time>
      </trkpt>
      <trkpt lat="48.99168" lon="2.09697">
        <ele>22</ele>
        <time>2022-06-12T13:42:10Z</time>
      </trkpt>
      <trkpt lat="48.99165" lon="2.09727">
        <ele>22</ele>
        <time>2022-06-12T13:42:25Z</time>
      </trkpt>
      <trkpt lat="48.99166" lon="2.09775">
        <ele>22</ele>
        <time>2022-06-12T13:42:52Z</time>
      </trkpt>
      <trkpt lat="48.99172" lon="2.09814">
        <ele>22</ele>
        <time>2022-06-12T13:43:15Z</time>
      </trkpt>
      <trkpt lat="48.99172" lon="2.09824">
        <ele>22</ele>
        <time>2022-06-12T13:43:20Z</time>
      </trkpt>
      <trkpt lat="48.99172" lon="2.09831">
        <ele>22</ele>
        <time>2022-06-12T13:43:23Z</time>
      </trkpt>
      <trkpt lat="48.99174" lon="2.09838">
        <ele>22</ele>
        <time>2022-06-12T13:43:27Z</time>
      </trkpt>
      <trkpt lat="48.99174" lon="2.09847">
        <ele>22</ele>
        <time>2022-06-12T13:43:31Z</time>
      </trkpt>
      <trkpt lat="48.99173" lon="2.09855">
        <ele>23</ele>
        <time>2022-06-12T13:43:35Z</time>
      </trkpt>
      <trkpt lat="48.99173" lon="2.09862">
        <ele>22</ele>
        <time>2022-06-12T13:43:39Z</time>
      </trkpt>
      <trkpt lat="48.99174" lon="2.0987">
        <ele>22</ele>
        <time>2022-06-12T13:43:43Z</time>
      </trkpt>
      <trkpt lat="48.99174" lon="2.09878">
        <ele>22</ele>
        <time>2022-06-12T13:43:47Z</time>
      </trkpt>
      <trkpt lat="48.99171" lon="2.09883">
        <ele>22</ele>
        <time>2022-06-12T13:43:50Z</time>
      </trkpt>
      <trkpt lat="48.99169" lon="2.0989">
        <ele>22</ele>
        <time>2022-06-12T13:43:54Z</time>
      </trkpt>
      <trkpt lat="48.99168" lon="2.09898">
        <ele>22</ele>
        <time>2022-06-12T13:43:58Z</time>
      </trkpt>
      <trkpt lat="48.99167" lon="2.09905">
        <ele>22</ele>
        <time>2022-06-12T13:44:02Z</time>
      </trkpt>
      <trkpt lat="48.99165" lon="2.0992">
        <ele>22</ele>
        <time>2022-06-12T13:44:11Z</time>
      </trkpt>
      <trkpt lat="48.99165" lon="2.09928">
        <ele>22</ele>
        <time>2022-06-12T13:44:15Z</time>
      </trkpt>
      <trkpt lat="48.99166" lon="2.09942">
        <ele>22</ele>
        <time>2022-06-12T13:44:24Z</time>
      </trkpt>
      <trkpt lat="48.99167" lon="2.0995">
        <ele>22</ele>
        <time>2022-06-12T13:44:28Z</time>
      </trkpt>
      <trkpt lat="48.99167" lon="2.09958">
        <ele>22</ele>
        <time>2022-06-12T13:44:32Z</time>
      </trkpt>
      <trkpt lat="48.99168" lon="2.09966">
        <ele>22</ele>
        <time>2022-06-12T13:44:36Z</time>
      </trkpt>
      <trkpt lat="48.99168" lon="2.09984">
        <ele>23</ele>
        <time>2022-06-12T13:44:44Z</time>
      </trkpt>
      <trkpt lat="48.99169" lon="2.09991">
        <ele>22</ele>
        <time>2022-06-12T13:44:47Z</time>
      </trkpt>
      <trkpt lat="48.99171" lon="2.10013">
        <ele>23</ele>
        <time>2022-06-12T13:45:00Z</time>
      </trkpt>
      <trkpt lat="48.99171" lon="2.10028">
        <ele>22</ele>
        <time>2022-06-12T13:45:08Z</time>
      </trkpt>
      <trkpt lat="48.99171" lon="2.10036">
        <ele>22</ele>
        <time>2022-06-12T13:45:12Z</time>
      </trkpt>
      <trkpt lat="48.9917" lon="2.10053">
        <ele>22</ele>
        <time>2022-06-12T13:45:20Z</time>
      </trkpt>
      <trkpt lat="48.99174" lon="2.10075">
        <ele>22</ele>
        <time>2022-06-12T13:45:35Z</time>
      </trkpt>
      <trkpt lat="48.99176" lon="2.10081">
        <ele>22</ele>
        <time>2022-06-12T13:45:39Z</time>
      </trkpt>
      <trkpt lat="48.99175" lon="2.10113">
        <ele>22</ele>
        <time>2022-06-12T13:45:54Z</time>
      </trkpt>
      <trkpt lat="48.99174" lon="2.10121">
        <ele>22</ele>
        <time>2022-06-12T13:45:57Z</time>
      </trkpt>
      <trkpt lat="48.99176" lon="2.10179">
        <ele>22</ele>
        <time>2022-06-12T13:46:27Z</time>
      </trkpt>
      <trkpt lat="48.99175" lon="2.10185">
        <ele>22</ele>
        <time>2022-06-12T13:46:31Z</time>
      </trkpt>
      <trkpt lat="48.99175" lon="2.10192">
        <ele>22</ele>
        <time>2022-06-12T13:46:36Z</time>
      </trkpt>
      <trkpt lat="48.99175" lon="2.10198">
        <ele>22</ele>
        <time>2022-06-12T13:46:40Z</time>
      </trkpt>
      <trkpt lat="48.99174" lon="2.10205">
        <ele>22</ele>
        <time>2022-06-12T13:46:44Z</time>
      </trkpt>
      <trkpt lat="48.99175" lon="2.10212">
        <ele>22</ele>
        <time>2022-06-12T13:46:48Z</time>
      </trkpt>
      <trkpt lat="48.99173" lon="2.10228">
        <ele>22</ele>
        <time>2022-06-12T13:46:55Z</time>
      </trkpt>
      <trkpt lat="48.99174" lon="2.10254">
        <ele>22</ele>
        <time>2022-06-12T13:47:07Z</time>
      </trkpt>
      <trkpt lat="48.99172" lon="2.10262">
        <ele>22</ele>
        <time>2022-06-12T13:47:10Z</time>
      </trkpt>
      <trkpt lat="48.99173" lon="2.10276">
        <ele>22</ele>
        <time>2022-06-12T13:47:17Z</time>
      </trkpt>
      <trkpt lat="48.99173" lon="2.10285">
        <ele>22</ele>
        <time>2022-06-12T13:47:21Z</time>
      </trkpt>
      <trkpt lat="48.99172" lon="2.10293">
        <ele>22</ele>
        <time>2022-06-12T13:47:25Z</time>
      </trkpt>
      <trkpt lat="48.99173" lon="2.103">
        <ele>22</ele>
        <time>2022-06-12T13:47:29Z</time>
      </trkpt>
      <trkpt lat="48.99173" lon="2.10309">
        <ele>22</ele>
        <time>2022-06-12T13:47:33Z</time>
      </trkpt>
      <trkpt lat="48.9918" lon="2.10337">
        <ele>22</ele>
        <time>2022-06-12T13:47:49Z</time>
      </trkpt>
      <trkpt lat="48.9918" lon="2.10352">
        <ele>22</ele>
        <time>2022-06-12T13:47:57Z</time>
      </trkpt>
      <trkpt lat="48.99181" lon="2.10359">
        <ele>22</ele>
        <time>2022-06-12T13:48:01Z</time>
      </trkpt>
      <trkpt lat="48.99181" lon="2.10366">
        <ele>22</ele>
        <time>2022-06-12T13:48:05Z</time>
      </trkpt>
      <trkpt lat="48.99182" lon="2.10372">
        <ele>22</ele>
        <time>2022-06-12T13:48:09Z</time>
      </trkpt>
      <trkpt lat="48.99184" lon="2.10379">
        <ele>22</ele>
        <time>2022-06-12T13:48:12Z</time>
      </trkpt>
      <trkpt lat="48.99184" lon="2.10394">
        <ele>22</ele>
        <time>2022-06-12T13:48:19Z</time>
      </trkpt>
      <trkpt lat="48.99184" lon="2.104">
        <ele>22</ele>
        <time>2022-06-12T13:48:23Z</time>
      </trkpt>
      <trkpt lat="48.99188" lon="2.10443">
        <ele>22</ele>
        <time>2022-06-12T13:48:45Z</time>
      </trkpt>
      <trkpt lat="48.99194" lon="2.10472">
        <ele>23</ele>
        <time>2022-06-12T13:49:01Z</time>
      </trkpt>
      <trkpt lat="48.99194" lon="2.10487">
        <ele>23</ele>
        <time>2022-06-12T13:49:08Z</time>
      </trkpt>
      <trkpt lat="48.99194" lon="2.10494">
        <ele>23</ele>
        <time>2022-06-12T13:49:11Z</time>
      </trkpt>
      <trkpt lat="48.99195" lon="2.10535">
        <ele>23</ele>
        <time>2022-06-12T13:49:30Z</time>
      </trkpt>
      <trkpt lat="48.99194" lon="2.10543">
        <ele>23</ele>
        <time>2022-06-12T13:49:34Z</time>
      </trkpt>
      <trkpt lat="48.99195" lon="2.1055">
        <ele>23</ele>
        <time>2022-06-12T13:49:38Z</time>
      </trkpt>
      <trkpt lat="48.99196" lon="2.10565">
        <ele>23</ele>
        <time>2022-06-12T13:49:46Z</time>
      </trkpt>
      <trkpt lat="48.99196" lon="2.10573">
        <ele>22</ele>
        <time>2022-06-12T13:49:50Z</time>
      </trkpt>
      <trkpt lat="48.99196" lon="2.10587">
        <ele>22</ele>
        <time>2022-06-12T13:49:57Z</time>
      </trkpt>
      <trkpt lat="48.99194" lon="2.10609">
        <ele>22</ele>
        <time>2022-06-12T13:50:09Z</time>
      </trkpt>
      <trkpt lat="48.99197" lon="2.10637">
        <ele>22</ele>
        <time>2022-06-12T13:50:23Z</time>
      </trkpt>
      <trkpt lat="48.99196" lon="2.10644">
        <ele>22</ele>
        <time>2022-06-12T13:50:27Z</time>
      </trkpt>
      <trkpt lat="48.9919" lon="2.10666">
        <ele>22</ele>
        <time>2022-06-12T13:50:37Z</time>
      </trkpt>
      <trkpt lat="48.9919" lon="2.10674">
        <ele>22</ele>
        <time>2022-06-12T13:50:41Z</time>
      </trkpt>
      <trkpt lat="48.99189" lon="2.10681">
        <ele>22</ele>
        <time>2022-06-12T13:50:45Z</time>
      </trkpt>
      <trkpt lat="48.99189" lon="2.10687">
        <ele>22</ele>
        <time>2022-06-12T13:50:49Z</time>
      </trkpt>
      <trkpt lat="48.99189" lon="2.10695">
        <ele>22</ele>
        <time>2022-06-12T13:50:53Z</time>
      </trkpt>
      <trkpt lat="48.99189" lon="2.10703">
        <ele>22</ele>
        <time>2022-06-12T13:50:57Z</time>
      </trkpt>
      <trkpt lat="48.99187" lon="2.10744">
        <ele>22</ele>
        <time>2022-06-12T13:51:18Z</time>
      </trkpt>
      <trkpt lat="48.99185" lon="2.10749">
        <ele>22</ele>
        <time>2022-06-12T13:51:20Z</time>
      </trkpt>
      <trkpt lat="48.99183" lon="2.10756">
        <ele>22</ele>
        <time>2022-06-12T13:51:23Z</time>
      </trkpt>
      <trkpt lat="48.99181" lon="2.10762">
        <ele>22</ele>
        <time>2022-06-12T13:51:26Z</time>
      </trkpt>
      <trkpt lat="48.9918" lon="2.10769">
        <ele>22</ele>
        <time>2022-06-12T13:51:29Z</time>
      </trkpt>
      <trkpt lat="48.99179" lon="2.10776">
        <ele>22</ele>
        <time>2022-06-12T13:51:33Z</time>
      </trkpt>
      <trkpt lat="48.99178" lon="2.10782">
        <ele>22</ele>
        <time>2022-06-12T13:51:36Z</time>
      </trkpt>
      <trkpt lat="48.99176" lon="2.10788">
        <ele>22</ele>
        <time>2022-06-12T13:51:40Z</time>
      </trkpt>
      <trkpt lat="48.99175" lon="2.10809">
        <ele>22</ele>
        <time>2022-06-12T13:51:50Z</time>
      </trkpt>
      <trkpt lat="48.99174" lon="2.10817">
        <ele>21</ele>
        <time>2022-06-12T13:51:54Z</time>
      </trkpt>
      <trkpt lat="48.99173" lon="2.10878">
        <ele>22</ele>
        <time>2022-06-12T13:52:25Z</time>
      </trkpt>
      <trkpt lat="48.99169" lon="2.10936">
        <ele>22</ele>
        <time>2022-06-12T13:52:57Z</time>
      </trkpt>
      <trkpt lat="48.99167" lon="2.10952">
        <ele>22</ele>
        <time>2022-06-12T13:53:05Z</time>
      </trkpt>
      <trkpt lat="48.99164" lon="2.10967">
        <ele>22</ele>
        <time>2022-06-12T13:53:12Z</time>
      </trkpt>
      <trkpt lat="48.99163" lon="2.10997">
        <ele>22</ele>
        <time>2022-06-12T13:53:29Z</time>
      </trkpt>
      <trkpt lat="48.9916" lon="2.11002">
        <ele>22</ele>
        <time>2022-06-12T13:53:37Z</time>
      </trkpt>
      <trkpt lat="48.9916" lon="2.11016">
        <ele>22</ele>
        <time>2022-06-12T13:53:45Z</time>
      </trkpt>
      <trkpt lat="48.99154" lon="2.11037">
        <ele>22</ele>
        <time>2022-06-12T13:53:56Z</time>
      </trkpt>
      <trkpt lat="48.99153" lon="2.1105">
        <ele>23</ele>
        <time>2022-06-12T13:54:03Z</time>
      </trkpt>
      <trkpt lat="48.99152" lon="2.11108">
        <ele>22</ele>
        <time>2022-06-12T13:54:32Z</time>
      </trkpt>
      <trkpt lat="48.99147" lon="2.11152">
        <ele>22</ele>
        <time>2022-06-12T13:54:55Z</time>
      </trkpt>
      <trkpt lat="48.99145" lon="2.11158">
        <ele>22</ele>
        <time>2022-06-12T13:54:58Z</time>
      </trkpt>
      <trkpt lat="48.99144" lon="2.11165">
        <ele>22</ele>
        <time>2022-06-12T13:55:02Z</time>
      </trkpt>
      <trkpt lat="48.99145" lon="2.11172">
        <ele>22</ele>
        <time>2022-06-12T13:55:06Z</time>
      </trkpt>
      <trkpt lat="48.99151" lon="2.11198">
        <ele>22</ele>
        <time>2022-06-12T13:55:21Z</time>
      </trkpt>
      <trkpt lat="48.99151" lon="2.11205">
        <ele>22</ele>
        <time>2022-06-12T13:55:24Z</time>
      </trkpt>
      <trkpt lat="48.99162" lon="2.11261">
        <ele>22</ele>
        <time>2022-06-12T13:55:55Z</time>
      </trkpt>
      <trkpt lat="48.99165" lon="2.11267">
        <ele>22</ele>
        <time>2022-06-12T13:55:59Z</time>
      </trkpt>
      <trkpt lat="48.99169" lon="2.11295">
        <ele>22</ele>
        <time>2022-06-12T13:56:14Z</time>
      </trkpt>
      <trkpt lat="48.99172" lon="2.11307">
        <ele>22</ele>
        <time>2022-06-12T13:56:20Z</time>
      </trkpt>
      <trkpt lat="48.99174" lon="2.11313">
        <ele>22</ele>
        <time>2022-06-12T13:56:23Z</time>
      </trkpt>
      <trkpt lat="48.99176" lon="2.11319">
        <ele>22</ele>
        <time>2022-06-12T13:56:27Z</time>
      </trkpt>
      <trkpt lat="48.99177" lon="2.11332">
        <ele>22</ele>
        <time>2022-06-12T13:56:34Z</time>
      </trkpt>
      <trkpt lat="48.99179" lon="2.11337">
        <ele>22</ele>
        <time>2022-06-12T13:56:37Z</time>
      </trkpt>
      <trkpt lat="48.9918" lon="2.11346">
        <ele>22</ele>
        <time>2022-06-12T13:56:41Z</time>
      </trkpt>
      <trkpt lat="48.99181" lon="2.11359">
        <ele>22</ele>
        <time>2022-06-12T13:56:47Z</time>
      </trkpt>
      <trkpt lat="48.9918" lon="2.11373">
        <ele>22</ele>
        <time>2022-06-12T13:56:54Z</time>
      </trkpt>
      <trkpt lat="48.99181" lon="2.11388">
        <ele>22</ele>
        <time>2022-06-12T13:57:02Z</time>
      </trkpt>
      <trkpt lat="48.9919" lon="2.11436">
        <ele>22</ele>
        <time>2022-06-12T13:57:27Z</time>
      </trkpt>
      <trkpt lat="48.9919" lon="2.11444">
        <ele>22</ele>
        <time>2022-06-12T13:57:31Z</time>
      </trkpt>
      <trkpt lat="48.99191" lon="2.11468">
        <ele>22</ele>
        <time>2022-06-12T13:57:43Z</time>
      </trkpt>
      <trkpt lat="48.9919" lon="2.11474">
        <ele>22</ele>
        <time>2022-06-12T13:57:47Z</time>
      </trkpt>
      <trkpt lat="48.9919" lon="2.11481">
        <ele>22</ele>
        <time>2022-06-12T13:57:50Z</time>
      </trkpt>
      <trkpt lat="48.99195" lon="2.11517">
        <ele>22</ele>
        <time>2022-06-12T13:58:09Z</time>
      </trkpt>
      <trkpt lat="48.99195" lon="2.11523">
        <ele>22</ele>
        <time>2022-06-12T13:58:12Z</time>
      </trkpt>
      <trkpt lat="48.99196" lon="2.11529">
        <ele>22</ele>
        <time>2022-06-12T13:58:16Z</time>
      </trkpt>
      <trkpt lat="48.99197" lon="2.11536">
        <ele>22</ele>
        <time>2022-06-12T13:58:19Z</time>
      </trkpt>
      <trkpt lat="48.99201" lon="2.11556">
        <ele>22</ele>
        <time>2022-06-12T13:58:31Z</time>
      </trkpt>
      <trkpt lat="48.99201" lon="2.11595">
        <ele>23</ele>
        <time>2022-06-12T13:58:50Z</time>
      </trkpt>
      <trkpt lat="48.99201" lon="2.11602">
        <ele>23</ele>
        <time>2022-06-12T13:58:55Z</time>
      </trkpt>
      <trkpt lat="48.99203" lon="2.11609">
        <ele>23</ele>
        <time>2022-06-12T13:58:59Z</time>
      </trkpt>
      <trkpt lat="48.99204" lon="2.11616">
        <ele>23</ele>
        <time>2022-06-12T13:59:03Z</time>
      </trkpt>
      <trkpt lat="48.99204" lon="2.11631">
        <ele>22</ele>
        <time>2022-06-12T13:59:11Z</time>
      </trkpt>
      <trkpt lat="48.99204" lon="2.11637">
        <ele>22</ele>
        <time>2022-06-12T13:59:14Z</time>
      </trkpt>
      <trkpt lat="48.99206" lon="2.11644">
        <ele>23</ele>
        <time>2022-06-12T13:59:18Z</time>
      </trkpt>
      <trkpt lat="48.99206" lon="2.11652">
        <ele>22</ele>
        <time>2022-06-12T13:59:22Z</time>
      </trkpt>
      <trkpt lat="48.99207" lon="2.11666">
        <ele>23</ele>
        <time>2022-06-12T13:59:29Z</time>
      </trkpt>
      <trkpt lat="48.99207" lon="2.11672">
        <ele>22</ele>
        <time>2022-06-12T13:59:32Z</time>
      </trkpt>
      <trkpt lat="48.99209" lon="2.11706">
        <ele>22</ele>
        <time>2022-06-12T13:59:50Z</time>
      </trkpt>
      <trkpt lat="48.99211" lon="2.11713">
        <ele>22</ele>
        <time>2022-06-12T13:59:54Z</time>
      </trkpt>
      <trkpt lat="48.99212" lon="2.11721">
        <ele>23</ele>
        <time>2022-06-12T13:59:58Z</time>
      </trkpt>
      <trkpt lat="48.99212" lon="2.11727">
        <ele>23</ele>
        <time>2022-06-12T14:00:03Z</time>
      </trkpt>
      <trkpt lat="48.99212" lon="2.11736">
        <ele>23</ele>
        <time>2022-06-12T14:00:08Z</time>
      </trkpt>
      <trkpt lat="48.99213" lon="2.11742">
        <ele>23</ele>
        <time>2022-06-12T14:00:12Z</time>
      </trkpt>
      <trkpt lat="48.99212" lon="2.1175">
        <ele>23</ele>
        <time>2022-06-12T14:00:16Z</time>
      </trkpt>
      <trkpt lat="48.99213" lon="2.11758">
        <ele>22</ele>
        <time>2022-06-12T14:00:21Z</time>
      </trkpt>
      <trkpt lat="48.99212" lon="2.11776">
        <ele>22</ele>
        <time>2022-06-12T14:00:30Z</time>
      </trkpt>
      <trkpt lat="48.99214" lon="2.11791">
        <ele>23</ele>
        <time>2022-06-12T14:00:37Z</time>
      </trkpt>
      <trkpt lat="48.99218" lon="2.11796">
        <ele>23</ele>
        <time>2022-06-12T14:00:41Z</time>
      </trkpt>
      <trkpt lat="48.9922" lon="2.11805">
        <ele>23</ele>
        <time>2022-06-12T14:00:45Z</time>
      </trkpt>
      <trkpt lat="48.99222" lon="2.11819">
        <ele>23</ele>
        <time>2022-06-12T14:00:52Z</time>
      </trkpt>
      <trkpt lat="48.99224" lon="2.11826">
        <ele>23</ele>
        <time>2022-06-12T14:00:56Z</time>
      </trkpt>
      <trkpt lat="48.99225" lon="2.11833">
        <ele>23</ele>
        <time>2022-06-12T14:01:00Z</time>
      </trkpt>
      <trkpt lat="48.99223" lon="2.11849">
        <ele>23</ele>
        <time>2022-06-12T14:01:08Z</time>
      </trkpt>
      <trkpt lat="48.99224" lon="2.11856">
        <ele>23</ele>
        <time>2022-06-12T14:01:12Z</time>
      </trkpt>
      <trkpt lat="48.99226" lon="2.11862">
        <ele>23</ele>
        <time>2022-06-12T14:01:16Z</time>
      </trkpt>
      <trkpt lat="48.99227" lon="2.11869">
        <ele>23</ele>
        <time>2022-06-12T14:01:19Z</time>
      </trkpt>
      <trkpt lat="48.99227" lon="2.11883">
        <ele>23</ele>
        <time>2022-06-12T14:01:26Z</time>
      </trkpt>
      <trkpt lat="48.99226" lon="2.1189">
        <ele>23</ele>
        <time>2022-06-12T14:01:30Z</time>
      </trkpt>
      <trkpt lat="48.99223" lon="2.11894">
        <ele>23</ele>
        <time>2022-06-12T14:01:38Z</time>
      </trkpt>
      <trkpt lat="48.99225" lon="2.11899">
        <ele>23</ele>
        <time>2022-06-12T14:02:08Z</time>
      </trkpt>
      <trkpt lat="48.99228" lon="2.11906">
        <ele>23</ele>
        <time>2022-06-12T14:02:12Z</time>
      </trkpt>
      <trkpt lat="48.99236" lon="2.11938">
        <ele>23</ele>
        <time>2022-06-12T14:02:29Z</time>
      </trkpt>
      <trkpt lat="48.99244" lon="2.12002">
        <ele>24</ele>
        <time>2022-06-12T14:03:02Z</time>
      </trkpt>
      <trkpt lat="48.99244" lon="2.1203">
        <ele>24</ele>
        <time>2022-06-12T14:03:17Z</time>
      </trkpt>
      <trkpt lat="48.99245" lon="2.12044">
        <ele>23</ele>
        <time>2022-06-12T14:03:25Z</time>
      </trkpt>
      <trkpt lat="48.99246" lon="2.12051">
        <ele>24</ele>
        <time>2022-06-12T14:03:29Z</time>
      </trkpt>
      <trkpt lat="48.99246" lon="2.1206">
        <ele>24</ele>
        <time>2022-06-12T14:03:33Z</time>
      </trkpt>
      <trkpt lat="48.99246" lon="2.12067">
        <ele>23</ele>
        <time>2022-06-12T14:03:36Z</time>
      </trkpt>
      <trkpt lat="48.99246" lon="2.12092">
        <ele>23</ele>
        <time>2022-06-12T14:03:49Z</time>
      </trkpt>
      <trkpt lat="48.99245" lon="2.12098">
        <ele>23</ele>
        <time>2022-06-12T14:03:52Z</time>
      </trkpt>
      <trkpt lat="48.99244" lon="2.12105">
        <ele>23</ele>
        <time>2022-06-12T14:03:56Z</time>
      </trkpt>
      <trkpt lat="48.99243" lon="2.12112">
        <ele>23</ele>
        <time>2022-06-12T14:04:00Z</time>
      </trkpt>
      <trkpt lat="48.99244" lon="2.12119">
        <ele>23</ele>
        <time>2022-06-12T14:04:04Z</time>
      </trkpt>
      <trkpt lat="48.99242" lon="2.12162">
        <ele>23</ele>
        <time>2022-06-12T14:04:26Z</time>
      </trkpt>
      <trkpt lat="48.99243" lon="2.12168">
        <ele>23</ele>
        <time>2022-06-12T14:04:30Z</time>
      </trkpt>
      <trkpt lat="48.99243" lon="2.12184">
        <ele>23</ele>
        <time>2022-06-12T14:04:38Z</time>
      </trkpt>
      <trkpt lat="48.99243" lon="2.1219">
        <ele>23</ele>
        <time>2022-06-12T14:04:42Z</time>
      </trkpt>
      <trkpt lat="48.99242" lon="2.12197">
        <ele>23</ele>
        <time>2022-06-12T14:04:46Z</time>
      </trkpt>
      <trkpt lat="48.99241" lon="2.12204">
        <ele>23</ele>
        <time>2022-06-12T14:04:51Z</time>
      </trkpt>
      <trkpt lat="48.9924" lon="2.12211">
        <ele>23</ele>
        <time>2022-06-12T14:04:56Z</time>
      </trkpt>
      <trkpt lat="48.9924" lon="2.12226">
        <ele>23</ele>
        <time>2022-06-12T14:05:04Z</time>
      </trkpt>
      <trkpt lat="48.99241" lon="2.12241">
        <ele>23</ele>
        <time>2022-06-12T14:05:14Z</time>
      </trkpt>
      <trkpt lat="48.99237" lon="2.12299">
        <ele>23</ele>
        <time>2022-06-12T14:05:44Z</time>
      </trkpt>
      <trkpt lat="48.99236" lon="2.12307">
        <ele>23</ele>
        <time>2022-06-12T14:05:48Z</time>
      </trkpt>
      <trkpt lat="48.99236" lon="2.12314">
        <ele>23</ele>
        <time>2022-06-12T14:05:51Z</time>
      </trkpt>
      <trkpt lat="48.99235" lon="2.12321">
        <ele>23</ele>
        <time>2022-06-12T14:05:55Z</time>
      </trkpt>
      <trkpt lat="48.99235" lon="2.12329">
        <ele>23</ele>
        <time>2022-06-12T14:05:59Z</time>
      </trkpt>
      <trkpt lat="48.99235" lon="2.12352">
        <ele>23</ele>
        <time>2022-06-12T14:06:11Z</time>
      </trkpt>
      <trkpt lat="48.99234" lon="2.12358">
        <ele>23</ele>
        <time>2022-06-12T14:06:14Z</time>
      </trkpt>
      <trkpt lat="48.99235" lon="2.12373">
        <ele>23</ele>
        <time>2022-06-12T14:06:22Z</time>
      </trkpt>
      <trkpt lat="48.99233" lon="2.12394">
        <ele>23</ele>
        <time>2022-06-12T14:06:33Z</time>
      </trkpt>
      <trkpt lat="48.99234" lon="2.124">
        <ele>23</ele>
        <time>2022-06-12T14:06:36Z</time>
      </trkpt>
      <trkpt lat="48.99231" lon="2.12423">
        <ele>23</ele>
        <time>2022-06-12T14:06:48Z</time>
      </trkpt>
      <trkpt lat="48.99229" lon="2.1243">
        <ele>23</ele>
        <time>2022-06-12T14:06:52Z</time>
      </trkpt>
      <trkpt lat="48.99227" lon="2.12463">
        <ele>23</ele>
        <time>2022-06-12T14:07:09Z</time>
      </trkpt>
      <trkpt lat="48.99222" lon="2.12486">
        <ele>23</ele>
        <time>2022-06-12T14:07:21Z</time>
      </trkpt>
      <trkpt lat="48.9922" lon="2.12491">
        <ele>23</ele>
        <time>2022-06-12T14:07:25Z</time>
      </trkpt>
      <trkpt lat="48.99218" lon="2.125">
        <ele>23</ele>
        <time>2022-06-12T14:07:29Z</time>
      </trkpt>
      <trkpt lat="48.99216" lon="2.12506">
        <ele>23</ele>
        <time>2022-06-12T14:07:32Z</time>
      </trkpt>
      <trkpt lat="48.99204" lon="2.12558">
        <ele>23</ele>
        <time>2022-06-12T14:08:00Z</time>
      </trkpt>
      <trkpt lat="48.99202" lon="2.12565">
        <ele>23</ele>
        <time>2022-06-12T14:08:04Z</time>
      </trkpt>
      <trkpt lat="48.992" lon="2.12571">
        <ele>23</ele>
        <time>2022-06-12T14:08:07Z</time>
      </trkpt>
      <trkpt lat="48.99198" lon="2.12578">
        <ele>23</ele>
        <time>2022-06-12T14:08:11Z</time>
      </trkpt>
      <trkpt lat="48.99196" lon="2.12583">
        <ele>23</ele>
        <time>2022-06-12T14:08:14Z</time>
      </trkpt>
      <trkpt lat="48.99195" lon="2.12589">
        <ele>23</ele>
        <time>2022-06-12T14:08:17Z</time>
      </trkpt>
      <trkpt lat="48.99174" lon="2.1264">
        <ele>23</ele>
        <time>2022-06-12T14:08:48Z</time>
      </trkpt>
      <trkpt lat="48.99163" lon="2.12665">
        <ele>23</ele>
        <time>2022-06-12T14:09:05Z</time>
      </trkpt>
      <trkpt lat="48.99159" lon="2.1267">
        <ele>23</ele>
        <time>2022-06-12T14:09:09Z</time>
      </trkpt>
      <trkpt lat="48.99156" lon="2.12676">
        <ele>23</ele>
        <time>2022-06-12T14:09:12Z</time>
      </trkpt>
      <trkpt lat="48.99153" lon="2.12682">
        <ele>23</ele>
        <time>2022-06-12T14:09:16Z</time>
      </trkpt>
      <trkpt lat="48.99151" lon="2.12687">
        <ele>22</ele>
        <time>2022-06-12T14:09:19Z</time>
      </trkpt>
      <trkpt lat="48.99148" lon="2.12693">
        <ele>22</ele>
        <time>2022-06-12T14:09:23Z</time>
      </trkpt>
      <trkpt lat="48.99136" lon="2.12708">
        <ele>23</ele>
        <time>2022-06-12T14:09:35Z</time>
      </trkpt>
      <trkpt lat="48.99131" lon="2.12718">
        <ele>22</ele>
        <time>2022-06-12T14:09:43Z</time>
      </trkpt>
      <trkpt lat="48.99128" lon="2.12724">
        <ele>23</ele>
        <time>2022-06-12T14:09:46Z</time>
      </trkpt>
      <trkpt lat="48.9911" lon="2.12762">
        <ele>23</ele>
        <time>2022-06-12T14:10:09Z</time>
      </trkpt>
      <trkpt lat="48.99109" lon="2.12768">
        <ele>23</ele>
        <time>2022-06-12T14:10:13Z</time>
      </trkpt>
      <trkpt lat="48.99101" lon="2.12783">
        <ele>23</ele>
        <time>2022-06-12T14:10:24Z</time>
      </trkpt>
      <trkpt lat="48.99099" lon="2.1279">
        <ele>23</ele>
        <time>2022-06-12T14:10:28Z</time>
      </trkpt>
      <trkpt lat="48.99094" lon="2.12811">
        <ele>23</ele>
        <time>2022-06-12T14:10:42Z</time>
      </trkpt>
      <trkpt lat="48.99093" lon="2.12818">
        <ele>23</ele>
        <time>2022-06-12T14:10:46Z</time>
      </trkpt>
      <trkpt lat="48.99085" lon="2.12845">
        <ele>23</ele>
        <time>2022-06-12T14:11:02Z</time>
      </trkpt>
      <trkpt lat="48.99083" lon="2.12859">
        <ele>23</ele>
        <time>2022-06-12T14:11:10Z</time>
      </trkpt>
      <trkpt lat="48.99081" lon="2.12865">
        <ele>23</ele>
        <time>2022-06-12T14:11:13Z</time>
      </trkpt>
      <trkpt lat="48.9908" lon="2.12878">
        <ele>23</ele>
        <time>2022-06-12T14:11:21Z</time>
      </trkpt>
      <trkpt lat="48.99079" lon="2.12886">
        <ele>23</ele>
        <time>2022-06-12T14:11:25Z</time>
      </trkpt>
      <trkpt lat="48.99076" lon="2.12907">
        <ele>22</ele>
        <time>2022-06-12T14:11:36Z</time>
      </trkpt>
      <trkpt lat="48.99072" lon="2.12906">
        <ele>22</ele>
        <time>2022-06-12T14:11:45Z</time>
      </trkpt>
      <trkpt lat="48.99068" lon="2.12903">
        <ele>22</ele>
        <time>2022-06-12T14:12:26Z</time>
      </trkpt>
      <trkpt lat="48.99069" lon="2.12903">
        <ele>20</ele>
        <time>2022-06-12T14:15:02Z</time>
      </trkpt>
      <trkpt lat="48.99069" lon="2.12911">
        <ele>20</ele>
        <time>2022-06-12T14:15:12Z</time>
      </trkpt>
      <trkpt lat="48.9907" lon="2.12918">
        <ele>20</ele>
        <time>2022-06-12T14:15:16Z</time>
      </trkpt>
      <trkpt lat="48.99069" lon="2.12937">
        <ele>20</ele>
        <time>2022-06-12T14:15:27Z</time>
      </trkpt>
      <trkpt lat="48.99068" lon="2.12952">
        <ele>19</ele>
        <time>2022-06-12T14:15:35Z</time>
      </trkpt>
      <trkpt lat="48.99068" lon="2.12959">
        <ele>19</ele>
        <time>2022-06-12T14:15:39Z</time>
      </trkpt>
      <trkpt lat="48.99068" lon="2.12967">
        <ele>19</ele>
        <time>2022-06-12T14:15:43Z</time>
      </trkpt>
      <trkpt lat="48.99067" lon="2.12982">
        <ele>19</ele>
        <time>2022-06-12T14:15:51Z</time>
      </trkpt>
      <trkpt lat="48.99065" lon="2.12996">
        <ele>19</ele>
        <time>2022-06-12T14:16:00Z</time>
      </trkpt>
      <trkpt lat="48.99064" lon="2.13004">
        <ele>19</ele>
        <time>2022-06-12T14:16:04Z</time>
      </trkpt>
      <trkpt lat="48.99064" lon="2.13012">
        <ele>19</ele>
        <time>2022-06-12T14:16:08Z</time>
      </trkpt>
      <trkpt lat="48.99061" lon="2.13019">
        <ele>19</ele>
        <time>2022-06-12T14:16:12Z</time>
      </trkpt>
      <trkpt lat="48.99061" lon="2.13027">
        <ele>19</ele>
        <time>2022-06-12T14:16:16Z</time>
      </trkpt>
      <trkpt lat="48.9906" lon="2.13035">
        <ele>19</ele>
        <time>2022-06-12T14:16:20Z</time>
      </trkpt>
      <trkpt lat="48.99062" lon="2.1304">
        <ele>20</ele>
        <time>2022-06-12T14:16:23Z</time>
      </trkpt>
      <trkpt lat="48.99062" lon="2.13047">
        <ele>20</ele>
        <time>2022-06-12T14:16:27Z</time>
      </trkpt>
      <trkpt lat="48.99062" lon="2.13054">
        <ele>19</ele>
        <time>2022-06-12T14:16:31Z</time>
      </trkpt>
      <trkpt lat="48.99061" lon="2.13061">
        <ele>20</ele>
        <time>2022-06-12T14:16:34Z</time>
      </trkpt>
      <trkpt lat="48.9906" lon="2.13068">
        <ele>19</ele>
        <time>2022-06-12T14:16:38Z</time>
      </trkpt>
      <trkpt lat="48.99061" lon="2.13076">
        <ele>20</ele>
        <time>2022-06-12T14:16:43Z</time>
      </trkpt>
      <trkpt lat="48.99062" lon="2.13083">
        <ele>20</ele>
        <time>2022-06-12T14:16:47Z</time>
      </trkpt>
      <trkpt lat="48.99059" lon="2.13115">
        <ele>20</ele>
        <time>2022-06-12T14:17:07Z</time>
      </trkpt>
      <trkpt lat="48.9906" lon="2.13122">
        <ele>21</ele>
        <time>2022-06-12T14:17:11Z</time>
      </trkpt>
      <trkpt lat="48.9906" lon="2.13129">
        <ele>21</ele>
        <time>2022-06-12T14:17:14Z</time>
      </trkpt>
      <trkpt lat="48.9906" lon="2.13136">
        <ele>20</ele>
        <time>2022-06-12T14:17:18Z</time>
      </trkpt>
      <trkpt lat="48.9906" lon="2.13142">
        <ele>20</ele>
        <time>2022-06-12T14:17:22Z</time>
      </trkpt>
      <trkpt lat="48.9906" lon="2.1315">
        <ele>20</ele>
        <time>2022-06-12T14:17:25Z</time>
      </trkpt>
      <trkpt lat="48.99062" lon="2.13156">
        <ele>21</ele>
        <time>2022-06-12T14:17:29Z</time>
      </trkpt>
      <trkpt lat="48.99063" lon="2.13162">
        <ele>21</ele>
        <time>2022-06-12T14:17:33Z</time>
      </trkpt>
      <trkpt lat="48.99064" lon="2.13192">
        <ele>21</ele>
        <time>2022-06-12T14:17:48Z</time>
      </trkpt>
      <trkpt lat="48.99063" lon="2.132">
        <ele>22</ele>
        <time>2022-06-12T14:17:52Z</time>
      </trkpt>
      <trkpt lat="48.99063" lon="2.13208">
        <ele>21</ele>
        <time>2022-06-12T14:17:56Z</time>
      </trkpt>
      <trkpt lat="48.99062" lon="2.13223">
        <ele>21</ele>
        <time>2022-06-12T14:18:04Z</time>
      </trkpt>
      <trkpt lat="48.99059" lon="2.1324">
        <ele>21</ele>
        <time>2022-06-12T14:18:12Z</time>
      </trkpt>
      <trkpt lat="48.99059" lon="2.13247">
        <ele>21</ele>
        <time>2022-06-12T14:18:16Z</time>
      </trkpt>
      <trkpt lat="48.99057" lon="2.13253">
        <ele>21</ele>
        <time>2022-06-12T14:18:20Z</time>
      </trkpt>
      <trkpt lat="48.99057" lon="2.13268">
        <ele>22</ele>
        <time>2022-06-12T14:18:28Z</time>
      </trkpt>
      <trkpt lat="48.99055" lon="2.13275">
        <ele>21</ele>
        <time>2022-06-12T14:18:31Z</time>
      </trkpt>
      <trkpt lat="48.99055" lon="2.13337">
        <ele>22</ele>
        <time>2022-06-12T14:19:03Z</time>
      </trkpt>
      <trkpt lat="48.99053" lon="2.13399">
        <ele>22</ele>
        <time>2022-06-12T14:19:34Z</time>
      </trkpt>
      <trkpt lat="48.99052" lon="2.13406">
        <ele>22</ele>
        <time>2022-06-12T14:19:38Z</time>
      </trkpt>
      <trkpt lat="48.99058" lon="2.13439">
        <ele>23</ele>
        <time>2022-06-12T14:19:56Z</time>
      </trkpt>
      <trkpt lat="48.99059" lon="2.13446">
        <ele>23</ele>
        <time>2022-06-12T14:19:59Z</time>
      </trkpt>
      <trkpt lat="48.99059" lon="2.13454">
        <ele>23</ele>
        <time>2022-06-12T14:20:03Z</time>
      </trkpt>
      <trkpt lat="48.99058" lon="2.13461">
        <ele>23</ele>
        <time>2022-06-12T14:20:07Z</time>
      </trkpt>
      <trkpt lat="48.99061" lon="2.13475">
        <ele>22</ele>
        <time>2022-06-12T14:20:15Z</time>
      </trkpt>
      <trkpt lat="48.9906" lon="2.13492">
        <ele>23</ele>
        <time>2022-06-12T14:20:23Z</time>
      </trkpt>
      <trkpt lat="48.99059" lon="2.13498">
        <ele>23</ele>
        <time>2022-06-12T14:20:26Z</time>
      </trkpt>
      <trkpt lat="48.99059" lon="2.13508">
        <ele>23</ele>
        <time>2022-06-12T14:20:30Z</time>
      </trkpt>
      <trkpt lat="48.99062" lon="2.13531">
        <ele>23</ele>
        <time>2022-06-12T14:20:41Z</time>
      </trkpt>
      <trkpt lat="48.99062" lon="2.13538">
        <ele>23</ele>
        <time>2022-06-12T14:20:46Z</time>
      </trkpt>
      <trkpt lat="48.9906" lon="2.13545">
        <ele>23</ele>
        <time>2022-06-12T14:20:49Z</time>
      </trkpt>
      <trkpt lat="48.9906" lon="2.1356">
        <ele>22</ele>
        <time>2022-06-12T14:20:57Z</time>
      </trkpt>
      <trkpt lat="48.99062" lon="2.13584">
        <ele>23</ele>
        <time>2022-06-12T14:21:09Z</time>
      </trkpt>
      <trkpt lat="48.99061" lon="2.13622">
        <ele>22</ele>
        <time>2022-06-12T14:21:29Z</time>
      </trkpt>
      <trkpt lat="48.99059" lon="2.13629">
        <ele>22</ele>
        <time>2022-06-12T14:21:33Z</time>
      </trkpt>
      <trkpt lat="48.99059" lon="2.13636">
        <ele>22</ele>
        <time>2022-06-12T14:21:36Z</time>
      </trkpt>
      <trkpt lat="48.99061" lon="2.13666">
        <ele>22</ele>
        <time>2022-06-12T14:21:51Z</time>
      </trkpt>
      <trkpt lat="48.99061" lon="2.13673">
        <ele>22</ele>
        <time>2022-06-12T14:21:55Z</time>
      </trkpt>
      <trkpt lat="48.99065" lon="2.13701">
        <ele>22</ele>
        <time>2022-06-12T14:22:11Z</time>
      </trkpt>
      <trkpt lat="48.99067" lon="2.13707">
        <ele>22</ele>
        <time>2022-06-12T14:22:15Z</time>
      </trkpt>
      <trkpt lat="48.99069" lon="2.13729">
        <ele>21</ele>
        <time>2022-06-12T14:22:26Z</time>
      </trkpt>
      <trkpt lat="48.99069" lon="2.13737">
        <ele>22</ele>
        <time>2022-06-12T14:22:30Z</time>
      </trkpt>
      <trkpt lat="48.99071" lon="2.13746">
        <ele>22</ele>
        <time>2022-06-12T14:22:34Z</time>
      </trkpt>
      <trkpt lat="48.9907" lon="2.13752">
        <ele>21</ele>
        <time>2022-06-12T14:22:37Z</time>
      </trkpt>
      <trkpt lat="48.9907" lon="2.13767">
        <ele>22</ele>
        <time>2022-06-12T14:22:45Z</time>
      </trkpt>
      <trkpt lat="48.99069" lon="2.13782">
        <ele>22</ele>
        <time>2022-06-12T14:22:52Z</time>
      </trkpt>
      <trkpt lat="48.99069" lon="2.13789">
        <ele>22</ele>
        <time>2022-06-12T14:22:56Z</time>
      </trkpt>
      <trkpt lat="48.9907" lon="2.13801">
        <ele>22</ele>
        <time>2022-06-12T14:23:04Z</time>
      </trkpt>
      <trkpt lat="48.99074" lon="2.13807">
        <ele>22</ele>
        <time>2022-06-12T14:23:08Z</time>
      </trkpt>
      <trkpt lat="48.99075" lon="2.13814">
        <ele>23</ele>
        <time>2022-06-12T14:23:12Z</time>
      </trkpt>
      <trkpt lat="48.99074" lon="2.13822">
        <ele>22</ele>
        <time>2022-06-12T14:23:15Z</time>
      </trkpt>
      <trkpt lat="48.99075" lon="2.13829">
        <ele>23</ele>
        <time>2022-06-12T14:23:19Z</time>
      </trkpt>
      <trkpt lat="48.99078" lon="2.13858">
        <ele>22</ele>
        <time>2022-06-12T14:23:34Z</time>
      </trkpt>
      <trkpt lat="48.9908" lon="2.13864">
        <ele>22</ele>
        <time>2022-06-12T14:23:38Z</time>
      </trkpt>
      <trkpt lat="48.99079" lon="2.13872">
        <ele>22</ele>
        <time>2022-06-12T14:23:42Z</time>
      </trkpt>
      <trkpt lat="48.99081" lon="2.13879">
        <ele>22</ele>
        <time>2022-06-12T14:23:46Z</time>
      </trkpt>
      <trkpt lat="48.99083" lon="2.13901">
        <ele>22</ele>
        <time>2022-06-12T14:23:57Z</time>
      </trkpt>
      <trkpt lat="48.99087" lon="2.13916">
        <ele>22</ele>
        <time>2022-06-12T14:24:05Z</time>
      </trkpt>
      <trkpt lat="48.99087" lon="2.13947">
        <ele>22</ele>
        <time>2022-06-12T14:24:20Z</time>
      </trkpt>
      <trkpt lat="48.99088" lon="2.13954">
        <ele>22</ele>
        <time>2022-06-12T14:24:24Z</time>
      </trkpt>
      <trkpt lat="48.99093" lon="2.14012">
        <ele>22</ele>
        <time>2022-06-12T14:24:53Z</time>
      </trkpt>
      <trkpt lat="48.99095" lon="2.14019">
        <ele>22</ele>
        <time>2022-06-12T14:24:57Z</time>
      </trkpt>
      <trkpt lat="48.99095" lon="2.14026">
        <ele>22</ele>
        <time>2022-06-12T14:25:01Z</time>
      </trkpt>
      <trkpt lat="48.99094" lon="2.14065">
        <ele>22</ele>
        <time>2022-06-12T14:25:21Z</time>
      </trkpt>
      <trkpt lat="48.99095" lon="2.14071">
        <ele>22</ele>
        <time>2022-06-12T14:25:25Z</time>
      </trkpt>
      <trkpt lat="48.99094" lon="2.14114">
        <ele>22</ele>
        <time>2022-06-12T14:25:46Z</time>
      </trkpt>
      <trkpt lat="48.99092" lon="2.14129">
        <ele>22</ele>
        <time>2022-06-12T14:25:54Z</time>
      </trkpt>
      <trkpt lat="48.99093" lon="2.14136">
        <ele>22</ele>
        <time>2022-06-12T14:25:58Z</time>
      </trkpt>
      <trkpt lat="48.99092" lon="2.14145">
        <ele>22</ele>
        <time>2022-06-12T14:26:03Z</time>
      </trkpt>
      <trkpt lat="48.99092" lon="2.14152">
        <ele>22</ele>
        <time>2022-06-12T14:26:07Z</time>
      </trkpt>
      <trkpt lat="48.99089" lon="2.14189">
        <ele>22</ele>
        <time>2022-06-12T14:26:27Z</time>
      </trkpt>
      <trkpt lat="48.99091" lon="2.14202">
        <ele>22</ele>
        <time>2022-06-12T14:26:39Z</time>
      </trkpt>
      <trkpt lat="48.99092" lon="2.14211">
        <ele>22</ele>
        <time>2022-06-12T14:26:48Z</time>
      </trkpt>
      <trkpt lat="48.99089" lon="2.14217">
        <ele>23</ele>
        <time>2022-06-12T14:27:03Z</time>
      </trkpt>
      <trkpt lat="48.99086" lon="2.1423">
        <ele>23</ele>
        <time>2022-06-12T14:27:38Z</time>
      </trkpt>
      <trkpt lat="48.99087" lon="2.14237">
        <ele>23</ele>
        <time>2022-06-12T14:27:41Z</time>
      </trkpt>
      <trkpt lat="48.99086" lon="2.14244">
        <ele>23</ele>
        <time>2022-06-12T14:27:46Z</time>
      </trkpt>
      <trkpt lat="48.99084" lon="2.14251">
        <ele>22</ele>
        <time>2022-06-12T14:27:50Z</time>
      </trkpt>
      <trkpt lat="48.99084" lon="2.14258">
        <ele>22</ele>
        <time>2022-06-12T14:27:54Z</time>
      </trkpt>
      <trkpt lat="48.99085" lon="2.14274">
        <ele>22</ele>
        <time>2022-06-12T14:28:03Z</time>
      </trkpt>
      <trkpt lat="48.99082" lon="2.14306">
        <ele>22</ele>
        <time>2022-06-12T14:28:19Z</time>
      </trkpt>
      <trkpt lat="48.9908" lon="2.14313">
        <ele>22</ele>
        <time>2022-06-12T14:28:23Z</time>
      </trkpt>
      <trkpt lat="48.99074" lon="2.14373">
        <ele>22</ele>
        <time>2022-06-12T14:28:53Z</time>
      </trkpt>
      <trkpt lat="48.99067" lon="2.14424">
        <ele>22</ele>
        <time>2022-06-12T14:29:19Z</time>
      </trkpt>
      <trkpt lat="48.99072" lon="2.14439">
        <ele>22</ele>
        <time>2022-06-12T14:29:26Z</time>
      </trkpt>
      <trkpt lat="48.9907" lon="2.14446">
        <ele>22</ele>
        <time>2022-06-12T14:29:29Z</time>
      </trkpt>
      <trkpt lat="48.99062" lon="2.14475">
        <ele>23</ele>
        <time>2022-06-12T14:29:46Z</time>
      </trkpt>
      <trkpt lat="48.99053" lon="2.14518">
        <ele>23</ele>
        <time>2022-06-12T14:30:07Z</time>
      </trkpt>
      <trkpt lat="48.99049" lon="2.14522">
        <ele>23</ele>
        <time>2022-06-12T14:30:10Z</time>
      </trkpt>
      <trkpt lat="48.99046" lon="2.14536">
        <ele>23</ele>
        <time>2022-06-12T14:30:19Z</time>
      </trkpt>
      <trkpt lat="48.99043" lon="2.14543">
        <ele>23</ele>
        <time>2022-06-12T14:30:22Z</time>
      </trkpt>
      <trkpt lat="48.99037" lon="2.14572">
        <ele>23</ele>
        <time>2022-06-12T14:30:36Z</time>
      </trkpt>
      <trkpt lat="48.9903" lon="2.14587">
        <ele>22</ele>
        <time>2022-06-12T14:30:44Z</time>
      </trkpt>
      <trkpt lat="48.99015" lon="2.14643">
        <ele>22</ele>
        <time>2022-06-12T14:31:14Z</time>
      </trkpt>
      <trkpt lat="48.99003" lon="2.14699">
        <ele>22</ele>
        <time>2022-06-12T14:31:45Z</time>
      </trkpt>
      <trkpt lat="48.98987" lon="2.14762">
        <ele>21</ele>
        <time>2022-06-12T14:32:17Z</time>
      </trkpt>
      <trkpt lat="48.98985" lon="2.14769">
        <ele>21</ele>
        <time>2022-06-12T14:32:21Z</time>
      </trkpt>
      <trkpt lat="48.98976" lon="2.14788">
        <ele>21</ele>
        <time>2022-06-12T14:32:32Z</time>
      </trkpt>
      <trkpt lat="48.9897" lon="2.14809">
        <ele>21</ele>
        <time>2022-06-12T14:32:45Z</time>
      </trkpt>
      <trkpt lat="48.98963" lon="2.14822">
        <ele>21</ele>
        <time>2022-06-12T14:32:54Z</time>
      </trkpt>
      <trkpt lat="48.98961" lon="2.14839">
        <ele>21</ele>
        <time>2022-06-12T14:33:02Z</time>
      </trkpt>
      <trkpt lat="48.98961" lon="2.14846">
        <ele>21</ele>
        <time>2022-06-12T14:33:05Z</time>
      </trkpt>
      <trkpt lat="48.98959" lon="2.14852">
        <ele>21</ele>
        <time>2022-06-12T14:33:08Z</time>
      </trkpt>
      <trkpt lat="48.98951" lon="2.14874">
        <ele>21</ele>
        <time>2022-06-12T14:33:19Z</time>
      </trkpt>
      <trkpt lat="48.98945" lon="2.14895">
        <ele>21</ele>
        <time>2022-06-12T14:33:30Z</time>
      </trkpt>
      <trkpt lat="48.98942" lon="2.14901">
        <ele>21</ele>
        <time>2022-06-12T14:33:33Z</time>
      </trkpt>
      <trkpt lat="48.9894" lon="2.14906">
        <ele>21</ele>
        <time>2022-06-12T14:33:36Z</time>
      </trkpt>
      <trkpt lat="48.9892" lon="2.14946">
        <ele>22</ele>
        <time>2022-06-12T14:33:59Z</time>
      </trkpt>
      <trkpt lat="48.98905" lon="2.14994">
        <ele>22</ele>
        <time>2022-06-12T14:34:23Z</time>
      </trkpt>
      <trkpt lat="48.98895" lon="2.15013">
        <ele>22</ele>
        <time>2022-06-12T14:34:34Z</time>
      </trkpt>
      <trkpt lat="48.98879" lon="2.15061">
        <ele>22</ele>
        <time>2022-06-12T14:35:03Z</time>
      </trkpt>
      <trkpt lat="48.98877" lon="2.15077">
        <ele>22</ele>
        <time>2022-06-12T14:35:14Z</time>
      </trkpt>
      <trkpt lat="48.98876" lon="2.15083">
        <ele>22</ele>
        <time>2022-06-12T14:35:38Z</time>
      </trkpt>
      <trkpt lat="48.98881" lon="2.15085">
        <ele>23</ele>
        <time>2022-06-12T14:36:24Z</time>
      </trkpt>
      <trkpt lat="48.98877" lon="2.15082">
        <ele>22</ele>
        <time>2022-06-12T14:37:26Z</time>
      </trkpt>
      <trkpt lat="48.98872" lon="2.15086">
        <ele>22</ele>
        <time>2022-06-12T14:37:30Z</time>
      </trkpt>
      <trkpt lat="48.98864" lon="2.15095">
        <ele>21</ele>
        <time>2022-06-12T14:37:37Z</time>
      </trkpt>
      <trkpt lat="48.98862" lon="2.15101">
        <ele>21</ele>
        <time>2022-06-12T14:37:41Z</time>
      </trkpt>
      <trkpt lat="48.98858" lon="2.15115">
        <ele>21</ele>
        <time>2022-06-12T14:37:48Z</time>
      </trkpt>
      <trkpt lat="48.98855" lon="2.15121">
        <ele>21</ele>
        <time>2022-06-12T14:37:52Z</time>
      </trkpt>
      <trkpt lat="48.98851" lon="2.15141">
        <ele>21</ele>
        <time>2022-06-12T14:38:04Z</time>
      </trkpt>
      <trkpt lat="48.98834" lon="2.15195">
        <ele>21</ele>
        <time>2022-06-12T14:38:35Z</time>
      </trkpt>
      <trkpt lat="48.98831" lon="2.15202">
        <ele>21</ele>
        <time>2022-06-12T14:38:39Z</time>
      </trkpt>
      <trkpt lat="48.98829" lon="2.15208">
        <ele>21</ele>
        <time>2022-06-12T14:38:42Z</time>
      </trkpt>
      <trkpt lat="48.98826" lon="2.15215">
        <ele>21</ele>
        <time>2022-06-12T14:38:46Z</time>
      </trkpt>
      <trkpt lat="48.98824" lon="2.15222">
        <ele>21</ele>
        <time>2022-06-12T14:38:50Z</time>
      </trkpt>
      <trkpt lat="48.98813" lon="2.15247">
        <ele>21</ele>
        <time>2022-06-12T14:39:04Z</time>
      </trkpt>
      <trkpt lat="48.98805" lon="2.15273">
        <ele>21</ele>
        <time>2022-06-12T14:39:20Z</time>
      </trkpt>
      <trkpt lat="48.98791" lon="2.15319">
        <ele>22</ele>
        <time>2022-06-12T14:39:44Z</time>
      </trkpt>
      <trkpt lat="48.9879" lon="2.15327">
        <ele>22</ele>
        <time>2022-06-12T14:39:48Z</time>
      </trkpt>
      <trkpt lat="48.98787" lon="2.15334">
        <ele>22</ele>
        <time>2022-06-12T14:39:52Z</time>
      </trkpt>
      <trkpt lat="48.98771" lon="2.15387">
        <ele>22</ele>
        <time>2022-06-12T14:40:22Z</time>
      </trkpt>
      <trkpt lat="48.98766" lon="2.15409">
        <ele>22</ele>
        <time>2022-06-12T14:40:34Z</time>
      </trkpt>
      <trkpt lat="48.98763" lon="2.15415">
        <ele>22</ele>
        <time>2022-06-12T14:40:37Z</time>
      </trkpt>
      <trkpt lat="48.9876" lon="2.1542">
        <ele>22</ele>
        <time>2022-06-12T14:40:41Z</time>
      </trkpt>
      <trkpt lat="48.98749" lon="2.15462">
        <ele>22</ele>
        <time>2022-06-12T14:41:04Z</time>
      </trkpt>
      <trkpt lat="48.98748" lon="2.15468">
        <ele>22</ele>
        <time>2022-06-12T14:41:08Z</time>
      </trkpt>
      <trkpt lat="48.98746" lon="2.15474">
        <ele>22</ele>
        <time>2022-06-12T14:41:12Z</time>
      </trkpt>
      <trkpt lat="48.98741" lon="2.15505">
        <ele>22</ele>
        <time>2022-06-12T14:41:28Z</time>
      </trkpt>
      <trkpt lat="48.98737" lon="2.15518">
        <ele>22</ele>
        <time>2022-06-12T14:41:35Z</time>
      </trkpt>
      <trkpt lat="48.98736" lon="2.15524">
        <ele>22</ele>
        <time>2022-06-12T14:41:39Z</time>
      </trkpt>
      <trkpt lat="48.98729" lon="2.15553">
        <ele>23</ele>
        <time>2022-06-12T14:41:54Z</time>
      </trkpt>
      <trkpt lat="48.98729" lon="2.1556">
        <ele>22</ele>
        <time>2022-06-12T14:41:58Z</time>
      </trkpt>
      <trkpt lat="48.98726" lon="2.1558">
        <ele>22</ele>
        <time>2022-06-12T14:42:09Z</time>
      </trkpt>
      <trkpt lat="48.98724" lon="2.15586">
        <ele>23</ele>
        <time>2022-06-12T14:42:13Z</time>
      </trkpt>
      <trkpt lat="48.98722" lon="2.15597">
        <ele>23</ele>
        <time>2022-06-12T14:42:19Z</time>
      </trkpt>
      <trkpt lat="48.98722" lon="2.15604">
        <ele>23</ele>
        <time>2022-06-12T14:42:23Z</time>
      </trkpt>
      <trkpt lat="48.98718" lon="2.15617">
        <ele>23</ele>
        <time>2022-06-12T14:42:30Z</time>
      </trkpt>
      <trkpt lat="48.98717" lon="2.15625">
        <ele>23</ele>
        <time>2022-06-12T14:42:34Z</time>
      </trkpt>
      <trkpt lat="48.98717" lon="2.15632">
        <ele>23</ele>
        <time>2022-06-12T14:42:38Z</time>
      </trkpt>
      <trkpt lat="48.9871" lon="2.15655">
        <ele>23</ele>
        <time>2022-06-12T14:42:49Z</time>
      </trkpt>
      <trkpt lat="48.98707" lon="2.15662">
        <ele>23</ele>
        <time>2022-06-12T14:42:54Z</time>
      </trkpt>
      <trkpt lat="48.98705" lon="2.15676">
        <ele>24</ele>
        <time>2022-06-12T14:43:02Z</time>
      </trkpt>
      <trkpt lat="48.98701" lon="2.15693">
        <ele>25</ele>
        <time>2022-06-12T14:43:11Z</time>
      </trkpt>
      <trkpt lat="48.98701" lon="2.157">
        <ele>25</ele>
        <time>2022-06-12T14:43:15Z</time>
      </trkpt>
      <trkpt lat="48.98699" lon="2.1574">
        <ele>25</ele>
        <time>2022-06-12T14:43:36Z</time>
      </trkpt>
      <trkpt lat="48.98697" lon="2.15746">
        <ele>25</ele>
        <time>2022-06-12T14:43:40Z</time>
      </trkpt>
      <trkpt lat="48.98697" lon="2.15753">
        <ele>25</ele>
        <time>2022-06-12T14:43:44Z</time>
      </trkpt>
      <trkpt lat="48.98697" lon="2.15761">
        <ele>25</ele>
        <time>2022-06-12T14:43:48Z</time>
      </trkpt>
      <trkpt lat="48.98693" lon="2.15759">
        <ele>25</ele>
        <time>2022-06-12T14:44:10Z</time>
      </trkpt>
      <trkpt lat="48.98695" lon="2.15766">
        <ele>24</ele>
        <time>2022-06-12T14:44:32Z</time>
      </trkpt>
      <trkpt lat="48.98699" lon="2.15768">
        <ele>24</ele>
        <time>2022-06-12T14:44:36Z</time>
      </trkpt>
      <trkpt lat="48.98717" lon="2.15777">
        <ele>25</ele>
        <time>2022-06-12T14:44:50Z</time>
      </trkpt>
      <trkpt lat="48.98734" lon="2.15792">
        <ele>28</ele>
        <time>2022-06-12T14:45:06Z</time>
      </trkpt>
      <trkpt lat="48.98742" lon="2.15802">
        <ele>29</ele>
        <time>2022-06-12T14:45:15Z</time>
      </trkpt>
      <trkpt lat="48.98747" lon="2.15805">
        <ele>29</ele>
        <time>2022-06-12T14:45:18Z</time>
      </trkpt>
      <trkpt lat="48.9876" lon="2.15826">
        <ele>31</ele>
        <time>2022-06-12T14:45:32Z</time>
      </trkpt>
      <trkpt lat="48.98769" lon="2.15836">
        <ele>32</ele>
        <time>2022-06-12T14:45:40Z</time>
      </trkpt>
      <trkpt lat="48.98771" lon="2.15844">
        <ele>32</ele>
        <time>2022-06-12T14:45:44Z</time>
      </trkpt>
      <trkpt lat="48.98791" lon="2.15872">
        <ele>35</ele>
        <time>2022-06-12T14:46:09Z</time>
      </trkpt>
      <trkpt lat="48.98792" lon="2.15896">
        <ele>41</ele>
        <time>2022-06-12T14:47:01Z</time>
      </trkpt>
      <trkpt lat="48.98789" lon="2.15904">
        <ele>42</ele>
        <time>2022-06-12T14:47:12Z</time>
      </trkpt>
      <trkpt lat="48.98786" lon="2.15911">
        <ele>44</ele>
        <time>2022-06-12T14:47:22Z</time>
      </trkpt>
      <trkpt lat="48.98781" lon="2.15915">
        <ele>45</ele>
        <time>2022-06-12T14:47:28Z</time>
      </trkpt>
      <trkpt lat="48.98782" lon="2.15924">
        <ele>46</ele>
        <time>2022-06-12T14:47:36Z</time>
      </trkpt>
      <trkpt lat="48.98779" lon="2.15929">
        <ele>48</ele>
        <time>2022-06-12T14:47:47Z</time>
      </trkpt>
      <trkpt lat="48.98777" lon="2.15939">
        <ele>51</ele>
        <time>2022-06-12T14:47:57Z</time>
      </trkpt>
      <trkpt lat="48.98769" lon="2.15955">
        <ele>55</ele>
        <time>2022-06-12T14:48:19Z</time>
      </trkpt>
      <trkpt lat="48.98769" lon="2.15966">
        <ele>57</ele>
        <time>2022-06-12T14:48:32Z</time>
      </trkpt>
      <trkpt lat="48.98768" lon="2.15972">
        <ele>57</ele>
        <time>2022-06-12T14:48:35Z</time>
      </trkpt>
      <trkpt lat="48.98768" lon="2.1598">
        <ele>57</ele>
        <time>2022-06-12T14:48:43Z</time>
      </trkpt>
      <trkpt lat="48.98772" lon="2.15988">
        <ele>58</ele>
        <time>2022-06-12T14:48:59Z</time>
      </trkpt>
      <trkpt lat="48.98774" lon="2.15994">
        <ele>58</ele>
        <time>2022-06-12T14:49:06Z</time>
      </trkpt>
      <trkpt lat="48.9877" lon="2.16005">
        <ele>58</ele>
        <time>2022-06-12T14:49:19Z</time>
      </trkpt>
      <trkpt lat="48.98764" lon="2.16011">
        <ele>59</ele>
        <time>2022-06-12T14:49:44Z</time>
      </trkpt>
      <trkpt lat="48.98769" lon="2.16018">
        <ele>59</ele>
        <time>2022-06-12T14:50:05Z</time>
      </trkpt>
      <trkpt lat="48.98771" lon="2.1601">
        <ele>58</ele>
        <time>2022-06-12T14:50:20Z</time>
      </trkpt>
      <trkpt lat="48.9877" lon="2.16005">
        <ele>58</ele>
        <time>2022-06-12T14:51:24Z</time>
      </trkpt>
      <trkpt lat="48.98775" lon="2.15993">
        <ele>59</ele>
        <time>2022-06-12T14:52:08Z</time>
      </trkpt>
      <trkpt lat="48.98772" lon="2.15992">
        <ele>59</ele>
        <time>2022-06-12T14:52:40Z</time>
      </trkpt>
      <trkpt lat="48.98767" lon="2.15989">
        <ele>59</ele>
        <time>2022-06-12T14:52:51Z</time>
      </trkpt>
      <trkpt lat="48.98759" lon="2.15993">
        <ele>59</ele>
        <time>2022-06-12T14:53:20Z</time>
      </trkpt>
      <trkpt lat="48.98766" lon="2.15996">
        <ele>59</ele>
        <time>2022-06-12T14:54:04Z</time>
      </trkpt>
      <trkpt lat="48.98768" lon="2.16005">
        <ele>60</ele>
        <time>2022-06-12T14:56:02Z</time>
      </trkpt>
      <trkpt lat="48.98762" lon="2.16001">
        <ele>61</ele>
        <time>2022-06-12T14:56:08Z</time>
      </trkpt>
      <trkpt lat="48.9875" lon="2.15993">
        <ele>60</ele>
        <time>2022-06-12T14:56:20Z</time>
      </trkpt>
      <trkpt lat="48.98745" lon="2.15989">
        <ele>61</ele>
        <time>2022-06-12T14:56:29Z</time>
      </trkpt>
      <trkpt lat="48.98742" lon="2.15983">
        <ele>59</ele>
        <time>2022-06-12T14:59:45Z</time>
      </trkpt>
      <trkpt lat="48.98749" lon="2.15979">
        <ele>59</ele>
        <time>2022-06-12T14:59:50Z</time>
      </trkpt>
      <trkpt lat="48.98754" lon="2.15981">
        <ele>58</ele>
        <time>2022-06-12T14:59:54Z</time>
      </trkpt>
      <trkpt lat="48.98764" lon="2.15988">
        <ele>58</ele>
        <time>2022-06-12T15:00:04Z</time>
      </trkpt>
      <trkpt lat="48.98767" lon="2.15992">
        <ele>59</ele>
        <time>2022-06-12T15:00:08Z</time>
      </trkpt>
      <trkpt lat="48.98775" lon="2.1601">
        <ele>59</ele>
        <time>2022-06-12T15:00:19Z</time>
      </trkpt>
      <trkpt lat="48.98775" lon="2.16017">
        <ele>59</ele>
        <time>2022-06-12T15:00:22Z</time>
      </trkpt>
      <trkpt lat="48.98786" lon="2.16035">
        <ele>58</ele>
        <time>2022-06-12T15:00:34Z</time>
      </trkpt>
      <trkpt lat="48.98786" lon="2.16042">
        <ele>59</ele>
        <time>2022-06-12T15:00:41Z</time>
      </trkpt>
      <trkpt lat="48.98791" lon="2.16042">
        <ele>58</ele>
        <time>2022-06-12T15:00:51Z</time>
      </trkpt>
      <trkpt lat="48.98795" lon="2.16061">
        <ele>59</ele>
        <time>2022-06-12T15:01:05Z</time>
      </trkpt>
      <trkpt lat="48.988" lon="2.16072">
        <ele>59</ele>
        <time>2022-06-12T15:01:14Z</time>
      </trkpt>
      <trkpt lat="48.98804" lon="2.16082">
        <ele>59</ele>
        <time>2022-06-12T15:01:20Z</time>
      </trkpt>
      <trkpt lat="48.98807" lon="2.16087">
        <ele>59</ele>
        <time>2022-06-12T15:01:23Z</time>
      </trkpt>
      <trkpt lat="48.98814" lon="2.16101">
        <ele>59</ele>
        <time>2022-06-12T15:01:31Z</time>
      </trkpt>
      <trkpt lat="48.98825" lon="2.16118">
        <ele>58</ele>
        <time>2022-06-12T15:01:42Z</time>
      </trkpt>
      <trkpt lat="48.98834" lon="2.16139">
        <ele>58</ele>
        <time>2022-06-12T15:01:55Z</time>
      </trkpt>
      <trkpt lat="48.98843" lon="2.16148">
        <ele>57</ele>
        <time>2022-06-12T15:02:03Z</time>
      </trkpt>
      <trkpt lat="48.98848" lon="2.16162">
        <ele>56</ele>
        <time>2022-06-12T15:02:13Z</time>
      </trkpt>
      <trkpt lat="48.98862" lon="2.16192">
        <ele>56</ele>
        <time>2022-06-12T15:02:32Z</time>
      </trkpt>
      <trkpt lat="48.98867" lon="2.16198">
        <ele>56</ele>
        <time>2022-06-12T15:02:36Z</time>
      </trkpt>
      <trkpt lat="48.98871" lon="2.16207">
        <ele>56</ele>
        <time>2022-06-12T15:02:41Z</time>
      </trkpt>
      <trkpt lat="48.98881" lon="2.16218">
        <ele>55</ele>
        <time>2022-06-12T15:02:52Z</time>
      </trkpt>
      <trkpt lat="48.98885" lon="2.16223">
        <ele>55</ele>
        <time>2022-06-12T15:02:56Z</time>
      </trkpt>
      <trkpt lat="48.98899" lon="2.16243">
        <ele>56</ele>
        <time>2022-06-12T15:03:13Z</time>
      </trkpt>
      <trkpt lat="48.98907" lon="2.16251">
        <ele>56</ele>
        <time>2022-06-12T15:03:23Z</time>
      </trkpt>
      <trkpt lat="48.98909" lon="2.16261">
        <ele>57</ele>
        <time>2022-06-12T15:03:29Z</time>
      </trkpt>
      <trkpt lat="48.98928" lon="2.16304">
        <ele>59</ele>
        <time>2022-06-12T15:04:00Z</time>
      </trkpt>
      <trkpt lat="48.98937" lon="2.16328">
        <ele>60</ele>
        <time>2022-06-12T15:04:13Z</time>
      </trkpt>
      <trkpt lat="48.98943" lon="2.16328">
        <ele>60</ele>
        <time>2022-06-12T15:04:16Z</time>
      </trkpt>
      <trkpt lat="48.98947" lon="2.16325">
        <ele>60</ele>
        <time>2022-06-12T15:04:26Z</time>
      </trkpt>
      <trkpt lat="48.9897" lon="2.16372">
        <ele>61</ele>
        <time>2022-06-12T15:04:48Z</time>
      </trkpt>
      <trkpt lat="48.98971" lon="2.16379">
        <ele>62</ele>
        <time>2022-06-12T15:04:55Z</time>
      </trkpt>
      <trkpt lat="48.98964" lon="2.16394">
        <ele>62</ele>
        <time>2022-06-12T15:05:25Z</time>
      </trkpt>
      <trkpt lat="48.98961" lon="2.164">
        <ele>62</ele>
        <time>2022-06-12T15:05:35Z</time>
      </trkpt>
      <trkpt lat="48.98956" lon="2.16402">
        <ele>62</ele>
        <time>2022-06-12T15:05:40Z</time>
      </trkpt>
      <trkpt lat="48.98951" lon="2.16384">
        <ele>62</ele>
        <time>2022-06-12T15:05:52Z</time>
      </trkpt>
      <trkpt lat="48.98952" lon="2.16376">
        <ele>62</ele>
        <time>2022-06-12T15:05:57Z</time>
      </trkpt>
      <trkpt lat="48.98947" lon="2.16359">
        <ele>61</ele>
        <time>2022-06-12T15:06:06Z</time>
      </trkpt>
      <trkpt lat="48.98947" lon="2.1635">
        <ele>61</ele>
        <time>2022-06-12T15:06:08Z</time>
      </trkpt>
      <trkpt lat="48.98949" lon="2.16332">
        <ele>62</ele>
        <time>2022-06-12T15:06:14Z</time>
      </trkpt>
      <trkpt lat="48.98948" lon="2.16325">
        <ele>62</ele>
        <time>2022-06-12T15:06:17Z</time>
      </trkpt>
      <trkpt lat="48.98949" lon="2.16317">
        <ele>62</ele>
        <time>2022-06-12T15:06:20Z</time>
      </trkpt>
      <trkpt lat="48.98954" lon="2.16299">
        <ele>63</ele>
        <time>2022-06-12T15:06:28Z</time>
      </trkpt>
      <trkpt lat="48.98955" lon="2.1629">
        <ele>64</ele>
        <time>2022-06-12T15:06:32Z</time>
      </trkpt>
      <trkpt lat="48.98958" lon="2.16282">
        <ele>64</ele>
        <time>2022-06-12T15:06:37Z</time>
      </trkpt>
      <trkpt lat="48.98963" lon="2.16278">
        <ele>64</ele>
        <time>2022-06-12T15:06:41Z</time>
      </trkpt>
      <trkpt lat="48.98966" lon="2.16271">
        <ele>64</ele>
        <time>2022-06-12T15:06:46Z</time>
      </trkpt>
      <trkpt lat="48.98966" lon="2.16262">
        <ele>65</ele>
        <time>2022-06-12T15:06:51Z</time>
      </trkpt>
      <trkpt lat="48.98966" lon="2.16255">
        <ele>65</ele>
        <time>2022-06-12T15:06:55Z</time>
      </trkpt>
      <trkpt lat="48.98977" lon="2.1624">
        <ele>66</ele>
        <time>2022-06-12T15:07:05Z</time>
      </trkpt>
      <trkpt lat="48.98985" lon="2.16224">
        <ele>67</ele>
        <time>2022-06-12T15:07:16Z</time>
      </trkpt>
      <trkpt lat="48.98993" lon="2.16207">
        <ele>67</ele>
        <time>2022-06-12T15:07:28Z</time>
      </trkpt>
      <trkpt lat="48.98997" lon="2.16201">
        <ele>64</ele>
        <time>2022-06-12T15:08:04Z</time>
      </trkpt>
      <trkpt lat="48.99015" lon="2.16189">
        <ele>65</ele>
        <time>2022-06-12T15:08:27Z</time>
      </trkpt>
      <trkpt lat="48.99015" lon="2.16224">
        <ele>68</ele>
        <time>2022-06-12T15:08:44Z</time>
      </trkpt>
      <trkpt lat="48.9902" lon="2.16227">
        <ele>69</ele>
        <time>2022-06-12T15:08:49Z</time>
      </trkpt>
      <trkpt lat="48.99027" lon="2.16222">
        <ele>69</ele>
        <time>2022-06-12T15:08:53Z</time>
      </trkpt>
      <trkpt lat="48.99027" lon="2.16217">
        <ele>69</ele>
        <time>2022-06-12T15:09:12Z</time>
      </trkpt>
      <trkpt lat="48.99024" lon="2.16211">
        <ele>69</ele>
        <time>2022-06-12T15:09:15Z</time>
      </trkpt>
      <trkpt lat="48.9902" lon="2.16215">
        <ele>69</ele>
        <time>2022-06-12T15:09:19Z</time>
      </trkpt>
      <trkpt lat="48.99017" lon="2.1622">
        <ele>69</ele>
        <time>2022-06-12T15:09:26Z</time>
      </trkpt>
      <trkpt lat="48.99018" lon="2.16227">
        <ele>69</ele>
        <time>2022-06-12T15:09:29Z</time>
      </trkpt>
      <trkpt lat="48.99009" lon="2.16244">
        <ele>69</ele>
        <time>2022-06-12T15:09:44Z</time>
      </trkpt>
      <trkpt lat="48.99009" lon="2.16251">
        <ele>69</ele>
        <time>2022-06-12T15:09:48Z</time>
      </trkpt>
      <trkpt lat="48.99004" lon="2.16254">
        <ele>68</ele>
        <time>2022-06-12T15:10:07Z</time>
      </trkpt>
    </trkseg>
  </trk>
</gpx>